     2              OBSERVATION DATA    GPS                 RINEX VERSION / TYPE
teqc 1998Oct22 19990203 01:58:45UTC                         PGM / RUN BY / DATE
                                                            COMMENT
Original Marker Name: 0701                                  COMMENT
Campaign Name: ucla winter 1998                             COMMENT
4-Character Station Name: 0701                              COMMENT
6-Character Antenna Code: DMRCHT                            COMMENT
Vertical Measurement Point: BCR                             COMMENT
Vertical Offset to Rinex Ref. Point: 0.0349                 COMMENT
Radial Measurement Point: ECF                               COMMENT
Radial Offset to Rinex Ref. Point: 0.1896                   COMMENT
Antenna Height from Field Measurement: 1.4835 m             COMMENT
Additional Antenna Identification Info.:                    COMMENT
Turborogue and Ashtech Choke Ring                           COMMENT
Original XYZ: 0.0000 0.0000 0.0000                          COMMENT
New XYZ position is based on association with SCEC monument COMMENT
E1C7Y4O8+0011. Position of that monument is believed to be  COMMENT
valid to within 1 m horizontally; vertical accuracy         COMMENT
should be no worse than 3-times this value.                 COMMENT
                                                            COMMENT
Revised Rinex header created by UCSD GPS archive for        COMMENT
GSAC on 25-May-1999 (1999:145) 01:37:44 GMT                 COMMENT
For assistance contact dagnew@ucsd.edu or hjohnson@ucsd.edu COMMENT
                                                            COMMENT
HPGN CA STA 07-01 1991                                      MARKER NAME
HYU UNIV CALIF LOS ANGELES                                  OBSERVER / AGENCY
LP03148 ASHTECH Z12-XII3 1F50                               REC # / TYPE / VERS
CR14768 DORNE-MARGOL. TYPE T                                ANT # / TYPE
 -2517963.0000 -4656233.0000  3546114.0000                  APPROX POSITION XYZ
        1.4364        0.0000        0.0000                  ANTENNA: DELTA H/E/N
     1     1     0                                          WAVELENGTH FACT L1/2
     7    C1    L1    L2    P1    P2    S1    S2            # / TYPES OF OBSERV
     0                                                      INTERVAL
  1999     1     2     0    11    0.000000                  TIME OF FIRST OBS
  1999     1     2     7     9   30.000000                  TIME OF LAST OBS
                                                            END OF HEADER
 99  1  2  0 11  0.0000000  0  2G 2G 7
                    -24304.90447                                  20026720.391
       241.000         190.000
                    -30313.58147                                  18844384.903
       244.000         202.000
 99  1  2  0 11 30.0000000  0  2G 2G 7
  20017794.407      -93564.11449    -60829.05847  20017794.020    20017801.013
       242.000         202.000
  18833281.550     -111974.08249    -75753.54348  18833280.951    18833287.898
       244.000         214.000
 99  1  2  0 12  0.0000000  0  2G 2G 7
  21507917.589     -140011.19349    -97021.56047  21507917.319    21507924.464
       241.000         204.000
  20321276.661     -169605.28249   -120660.92748  20321276.353    20321283.227
       244.000         217.000
 99  1  2  0 12 30.0000000  0  2G 2G 7
  21499155.976     -186055.82449   -132900.45947  21499155.344    21499162.226
       242.000         204.000
  20310437.681     -226566.08049   -165045.92348  20310437.237    20310444.219
       244.000         217.000
 99  1  2  0 13  0.0000000  0  2G 2G 7
  21454398.029     -421261.54549   -316177.61647  21454397.230    21454404.251
       242.000         204.000
  20263654.802     -472411.90649   -356614.05748  20263654.054    20263661.046
       244.000         217.000
 99  1  2  0 13 30.0000000  0  3G 2G27G 7
  21459060.944     -396756.95049   -297083.09147  21459060.442    21459067.576
       242.000         204.000
  22175633.075      -53678.20449    -45588.56346  22175632.889    22175640.748
       227.000         175.000
  20266345.906     -458269.80749   -345594.20248  20266345.291    20266352.319
       243.000         217.000
 99  1  2  0 14  0.0000000  0  3G 2G27G 7
  21463985.741     -370876.77949   -276916.68847  21463985.192    21463992.320
       241.000         204.000
  22193648.715       40994.12849     28182.05646  22193648.257    22193656.139
       226.000         176.000
  20269346.489     -442501.22249   -333306.95448  20269346.064    20269352.912
       244.000         217.000
 99  1  2  0 14 30.0000000  0  3G 2G27G 7
  21470597.144     -336133.44149   -249843.92747  21470596.845    21470603.862
       242.000         204.000
  22213384.606      144707.76949    108997.85946  22213384.914    22213393.317
       227.000         177.000
  20274075.161     -417651.90649   -313943.81748  20274074.780    20274081.668
       245.000         217.000
 99  1  2  0 15  0.0000000  0  3G 2G27G 7
  21475916.304     -308181.19149   -228062.91747  21475915.703    21475923.240
       241.000         204.000
  22231861.910      241805.81849    184658.65146  22231861.393    22231869.676
       225.000         176.000
  20277551.780     -399382.47049   -299707.85448  20277551.293    20277558.237
       244.000         217.000
 99  1  2  0 15 30.0000000  0  3G 2G27G 7
  21480870.536     -282145.78549   -207775.54847  21480870.343    21480877.319
       242.000         204.000
  22250007.976      337164.39749    258964.00346  22250008.100    22250016.489
       224.000         176.000
  20280701.861     -382828.48149   -286808.60648  20280701.033    20280708.173
       244.000         217.000
 99  1  2  0 16  0.0000000  0  3G 2G27G 7
  21485740.441     -256554.60949   -187834.34147  21485740.232    21485747.202
       242.000         204.000
  22268103.981      432259.22649    333063.84746  22268104.202    22268112.310
       226.000         176.000
  20283804.292     -366524.74249   -274104.36148  20283803.585    20283810.641
       244.000         217.000
 99  1  2  0 16 30.0000000  0  3G 2G27G 7
  21490607.204     -230980.20149   -167906.20347  21490606.403    21490613.990
       241.000         205.000
  22286226.200      527492.27549    407271.39346  22286226.207    22286234.793
       224.000         175.000
  20286940.769     -350042.09749   -261260.70548  20286940.164    20286947.303
       243.000         217.000
 99  1  2  0 17  0.0000000  0  3G 2G27G 7
  21495493.832     -205300.52249   -147896.02647  21495493.380    21495500.396
       242.000         204.000
  22304397.556      622983.36549    481680.02846  22304396.508    22304406.173
       222.000         174.000
  20290137.793     -333241.72249   -248169.47148  20290137.450    20290144.347
       244.000         217.000
 99  1  2  0 17 30.0000000  0  3G 2G27G 7
  21500410.631     -179462.71449   -127762.63947  21500410.096    21500416.987
       241.000         204.000
  22322627.381      718783.17849    556329.17546  22322628.086    22322636.237
       225.000         174.000
  20293404.472     -316075.35449   -234793.04448  20293403.929    20293410.688
       244.000         217.000
 99  1  2  0 18  0.0000000  0  3G 2G27G 7
  21505360.914     -153448.55449   -107491.84047  21505360.419    21505367.491
       241.000         203.000
  22340917.923      814898.98849    631224.60546  22340917.495    22340927.121
       222.000         173.000
  20296745.546     -298517.70649   -221111.72548  20296745.206    20296752.101
       244.000         217.000
 99  1  2  0 18 30.0000000  0  3G 2G27G 7
  21510338.892     -127288.96649    -87107.70947  21510338.533    21510345.581
       241.000         204.000
  22359262.503      911300.36949    706342.53546  22359262.095    22359271.139
       224.000         174.000
  20300156.445     -280593.56749   -207144.82548  20300155.974    20300162.738
       244.000         217.000
 99  1  2  0 19  0.0000000  0  3G 2G27G 7
  21515344.399     -100984.97049    -66611.06247  21515343.897    21515350.656
       241.000         204.000
  22377664.248     1008001.79249    781694.26746  22377664.795    22377671.895
       223.000         172.000
  20303636.275     -262306.99849   -192895.51348  20303635.905    20303642.522
       244.000         217.000
 99  1  2  0 19 30.0000000  0  3G 2G27G 7
  21520379.791      -74523.67849    -45991.84947  21520379.152    21520386.404
       241.000         204.000
  22396122.662     1105001.05449    857278.08146  22396122.687    22396131.137
       221.000         172.000
  20307184.977     -243658.39149   -178364.09448  20307184.639    20307191.485
       244.000         217.000
 99  1  2  0 20  0.0000000  0  3G 2G27G 7
  21525443.896      -47911.47049    -25255.03447  21525443.426    21525450.649
       244.000         205.000
  22414638.388     1202301.31449    933096.45446  22414638.738    22414646.152
       224.000         172.000
  20310801.533     -224653.44049   -163555.00448  20310801.095    20310807.893
       243.000         217.000
 99  1  2  0 20 30.0000000  0  3G 2G27G 7
  21530539.802      -21132.40649     -4388.20647  21530539.268    21530546.409
       245.000         209.000
  22433211.623     1299903.36349   1009149.97946  22433212.110    22433219.774
       222.000         171.000
  20314486.264     -205289.94849   -148466.53248  20314485.754    20314492.555
       244.000         217.000
 99  1  2  0 21  0.0000000  0  3G 2G27G 7
  21535668.502        5818.85149     16612.81047  21535667.787    21535675.311
       244.000         207.000
  22451840.364     1397798.12849   1085431.60046  22451839.025    22451848.075
       216.000         171.000
  20318239.119     -185568.46149   -133099.11048  20318238.676    20318245.442
       244.000         217.000
 99  1  2  0 21 30.0000000  0  3G 2G27G 7
  21540831.160       32949.13249     37753.35147  21540830.453    21540837.543
       240.000         204.000
  22470527.743     1496002.12149   1161954.15446  22470527.637    22470536.388
       223.000         171.000
  20322063.098     -165473.22349   -117440.44048  20322062.319    20322069.497
       243.000         217.000
 99  1  2  0 22  0.0000000  0  3G 2G27G 7
  21546024.410       60240.43349     59019.31047  21546023.878    21546030.876
       240.000         204.000
  22489273.366     1594511.32449   1238714.55046  22489273.780    22489282.234
       221.000         171.000
  20325955.774     -145016.75549   -101500.29348  20325955.094    20325962.239
       245.000         217.000
 99  1  2  0 22 30.0000000  0  3G 2G27G 7
  21551252.330       87713.58449     80426.97847  21551252.109    21551258.953
       241.000         202.000
  22508078.237     1693331.44249   1315717.22646  22508078.561    22508086.330
       222.000         170.000
  20329920.138     -124183.70349    -85266.71748  20329919.729    20329926.600
       244.000         216.000
 99  1  2  0 23  0.0000000  0  3G 2G27G 7
  21556510.400      115345.18349    101958.12947  21556509.809    21556517.266
       241.000         203.000
  22526943.645     1792468.60749   1392966.92746  22526944.201    22526951.669
       223.000         170.000
  20333953.514     -102988.12949    -68750.65148  20333952.987    20333959.856
       244.000         217.000
 99  1  2  0 23 30.0000000  0  3G 2G27G 7
  21561801.186      143148.22149    123622.86247  21561800.726    21561807.993
       241.000         203.000
  22545872.263     1891938.16249   1470475.65946  22545872.677    22545881.034
       221.000         170.000
  20338057.504      -81421.44949    -51945.41548  20338056.726    20338063.692
       244.000         217.000
 99  1  2  0 24  0.0000000  0  6G 4G 2G26G27G 7G 9
  22524164.762     -797009.56149   -569972.94246  22524163.956    22524172.811
       226.000         168.000
  21565013.164      160027.18049    136775.32547  21565012.313    21565019.440
       241.000         203.000
  22769499.989     -394762.74549   -301650.41346  22769500.253    22769508.608
       225.000         172.000
  22562744.014     1980600.03149   1539562.79746  22562743.618    22562752.307
       221.000         170.000
  20340118.268      -70591.66449    -43506.59248  20340117.590    20340124.573
       244.000         217.000
  23121040.365     -771432.90249   -583918.25046  23121040.876    23121049.346
       218.000         164.000
 99  1  2  0 24 30.0000000  0  6G 4G 2G26G27G 7G 9
  22505414.199     -895545.03649   -646753.71646  22505415.355    22505422.636
       230.000         175.000
  21569629.377      184285.86949    155678.22447  21569629.027    21569635.933
       241.000         203.000
  22777256.881     -353998.03649   -269885.70446  22777257.533    22777265.067
       223.000         173.000
  22581037.671     2076734.09749   1614472.43346  22581037.643    22581046.555
       221.000         169.000
  20343619.922      -52190.54449    -29168.02348  20343619.435    20343626.245
       244.000         217.000
  23103229.155     -865035.08349   -656854.86446  23103228.917    23103237.343
       220.000         165.000
 99  1  2  0 25  0.0000000  0  6G 4G 2G26G27G 7G 9
  22487191.563     -991304.91549   -721371.66046  22487191.691    22487198.757
       228.000         175.000
  21574771.308      211306.39449    176733.20347  21574770.737    21574777.908
       239.000         203.000
  22785580.117     -310260.92949   -235804.82846  22785580.281    22785588.444
       223.000         174.000
  22599872.274     2175709.83249   1691596.34746  22599871.924    22599880.645
       221.000         170.000
  20347683.571      -30835.94149    -12528.04848  20347683.062    20347689.773
       244.000         217.000
  23085949.409     -955840.90349   -727612.52346  23085949.600    23085957.357
       221.000         167.000
 99  1  2  0 25 30.0000000  0  6G 4G 2G26G27G 7G 9
  22469182.390    -1085942.46249   -795115.08646  22469181.210    22469190.947
       225.000         177.000
  21580127.582      239454.63849    198666.92547  21580127.339    21580134.164
       240.000         202.000
  22794154.198     -265203.78649   -200695.36846  22794154.405    22794163.160
       224.000         175.000
  22618932.442     2275872.61649   1769645.22546  22618932.099    22618940.464
       220.000         170.000
  20351997.698       -8165.15049      5137.52648  20351997.046    20352004.021
       244.000         217.000
  23068889.719    -1045490.49249   -797469.19646  23068889.070    23068897.578
       220.000         167.000
 99  1  2  0 26  0.0000000  0  6G 4G 2G26G27G 7G 9
  22451262.042    -1180113.51349   -868495.02746  22451262.794    22451269.997
       230.000         177.000
  21585570.259      268055.79049    220953.54947  21585569.561    21585576.954
       239.000         202.000
  22802850.820     -219502.80249   -165084.21546  22802851.654    22802859.674
       224.000         173.000
  22638092.618     2376560.18149   1848103.02346  22638092.764    22638101.144
       221.000         170.000
  20356433.822       15147.21949     23303.03048  20356433.464    20356440.073
       244.000         217.000
  23051921.351    -1134659.21349   -866951.18246  23051921.297    23051928.461
       222.000         167.000
 99  1  2  0 26 30.0000000  0  6G 4G 2G26G27G 7G 9
  22433414.562    -1273902.70449   -941577.37346  22433415.340    22433421.986
       231.000         177.000
  21591071.568      296965.91149    243480.93647  21591071.502    21591078.212
       241.000         202.000
  22811647.829     -173273.94249   -129061.74346  22811648.494    22811656.728
       223.000         172.000
  22657335.104     2477679.36849   1926897.16146  22657334.943    22657343.428
       222.000         170.000
  20360965.598       38961.99349     41860.01848  20360965.247    20360971.813
       245.000         216.000
  23035017.515    -1223489.78549   -936169.66946  23035017.349    23035025.389
       223.000         168.000
 99  1  2  0 27  0.0000000  0  6G 4G 2G26G27G 7G 9
  22415627.284    -1367375.99949  -1014413.59946  22415626.675    22415634.832
       229.000         177.000
  21596614.415      326093.52649    266177.79447  21596613.885    21596621.268
       240.000         202.000
  22820528.805     -126604.47249    -92695.90946  22820529.396    22820537.439
       223.000         172.000
  22676645.846     2579157.22749   2005970.79446  22676645.895    22676653.430
       223.000         169.000
  20365574.331       63180.70649     60731.76348  20365573.807    20365580.496
       244.000         216.000
  23018162.294    -1312065.15849  -1005189.30546  23018162.028    23018169.088
       225.000         170.000
 99  1  2  0 27 30.0000000  0  6G 4G 2G26G27G 7G 9
  22397906.365    -1460500.36549  -1086977.91746  22397905.373    22397913.833
       228.000         179.000
  21602203.562      355464.68949    289064.44347  21602203.306    21602210.114
       241.000         202.000
  22829501.596      -79452.17849    -55953.86146  22829502.994    22829509.861
       225.000         172.000
  22696033.283     2681038.77149   2085358.97846  22696033.473    22696041.103
       219.000         168.000
  20370264.428       87827.55649     79937.13848  20370263.790    20370270.541
       244.000         216.000
  23001362.817    -1400346.63049  -1073979.92546  23001362.438    23001370.434
       226.000         173.000
 99  1  2  0 28  0.0000000  0  6G 4G 2G26G27G 7G 9
  22380235.606    -1553359.69549  -1159335.72746  22380236.774    22380244.017
       232.000         179.000
  21607823.927      384999.15549    312078.33347  21607823.395    21607830.149
       239.000         202.000
  22838551.501      -31895.06449    -18896.39546  22838551.210    22838560.021
       222.000         171.000
  22715480.242     2783233.45049   2164991.19146  22715480.110    22715488.647
       221.000         169.000
  20375017.277      112804.59749     99399.79248  20375016.669    20375023.344
       244.000         216.000
  22984603.940    -1488414.50249  -1142604.08946  22984604.340    22984610.632
       226.000         172.000
 99  1  2  0 28 30.0000000  0  6G 4G 2G26G27G 7G 9
  22362598.646    -1646042.26649  -1231555.78146  22362598.455    22362605.388
       230.000         178.000
  21613462.931      414633.15149    335169.78747  21613462.401    21613469.557
       240.000         201.000
  22847661.301       15977.20849     18406.68446  22847661.993    22847671.091
       223.000         171.000
  22734966.757     2885636.00049   2244785.33346  22734966.800    22734974.403
       220.000         168.000
  20379818.213      138033.71549    119058.87848  20379817.636    20379824.319
       244.000         216.000
  22967872.455    -1576338.94449  -1211116.50546  22967871.933    22967879.370
       225.000         173.000
 99  1  2  0 29  0.0000000  0  6G 4G 2G26G27G 7G 9
  22344996.796    -1738540.04849  -1303631.86246  22344995.751    22345004.985
       228.000         179.000
  21619130.908      444418.29449    358379.01147  21619130.547    21619137.192
       240.000         201.000
  22856836.754       64193.58749     55977.90546  22856837.860    22856844.986
       226.000         174.000
  22754493.242     2988248.31449   2324742.97346  22754493.632    22754502.028
       220.000         168.000
  20384673.760      163549.99349    138941.72048  20384673.045    20384679.633
       244.000         216.000
  22951177.137    -1664072.61749  -1279480.28246  22951177.690    22951184.738
       225.000         173.000
 99  1  2  0 29 30.0000000  0  6G 4G 2G26G27G 7G 9
  22327432.161    -1830841.91449  -1375555.30446  22327432.740    22327439.486
       231.000         179.000
  21624833.503      474385.87149    381730.39347  21624832.780    21624839.733
       239.000         201.000
  22866079.318      112763.43749     93824.54946  22866079.652    22866088.293
       226.000         174.000
  22774063.470     3091091.28449   2404880.32146  22774063.124    22774072.143
       217.000         167.000
  20389587.876      189373.99849    159064.35148  20389587.272    20389593.995
       244.000         216.000
  22934523.406    -1751588.91049  -1347674.63946  22934523.620    22934530.671
       225.000         173.000
 99  1  2  0 30  0.0000000  0  6G 4G 2G26G27G 7G 9
  22309909.417    -1922924.08349  -1447307.49246  22309909.721    22309917.263
       231.000         180.000
  21630571.476      504539.27049    405226.57347  21630570.837    21630578.028
       240.000         201.000
  22875385.017      161664.69949    131929.41946  22875386.469    22875393.301
       227.000         174.000
  22793675.724     3194154.48049   2485189.30646  22793675.217    22793684.538
       217.000         167.000
  20394561.643      215511.50449    179431.26648  20394561.129    20394568.106
       243.000         216.000
  22917914.010    -1838872.47949  -1415687.66846  22917913.259    22917921.067
       224.000         172.000
 99  1  2  0 30 30.0000000  0  6G 4G 2G26G27G 7G 9
  22292434.952    -2014752.77949  -1518862.23046  22292434.549    22292442.194
       230.000         179.000
  21636346.854      534888.72549    428875.51747  21636346.339    21636353.065
       239.000         201.000
  22884754.469      210901.14649    170295.48046  22884754.774    22884762.706
       225.000         174.000
  22813333.957     3297459.60249   2565686.76946  22813334.767    22813343.057
       220.000         167.000
  20399601.427      241995.77049    200068.38248  20399601.090    20399607.782
       244.000         216.000
  22901350.983    -1925910.74449  -1483509.57746  22901350.805    22901357.802
       224.000         171.000
 99  1  2  0 31  0.0000000  0  6G 4G 2G26G27G 7G 9
  22275011.027    -2106315.85449  -1590209.94846  22275011.301    22275018.762
       231.000         181.000
  21642157.083      565422.03449    452667.72947  21642156.407    21642163.216
       239.000         201.000
  22894188.790      260478.67249    208927.32946  22894189.123    22894197.005
       224.000         174.000
  22833044.699     3401038.73449   2646397.76346  22833043.753    22833053.335
       219.000         168.000
  20404707.274      268827.03249    220975.88948  20404706.795    20404713.635
       243.000         216.000
  22884834.396    -2012705.32949  -1551141.59146  22884833.469    22884840.998
       225.000         172.000
 99  1  2  0 31 30.0000000  0  6G 4G 2G26G27G 7G 9
  22257642.638    -2197586.63049  -1661329.92746  22257642.944    22257650.693
       229.000         180.000
  21648001.922      596137.09549    476601.56447  21648001.670    21648008.491
       239.000         201.000
  22903689.339      310404.67049    247830.69446  22903690.325    22903697.311
       226.000         175.000
  22852811.647     3504913.97049   2727339.47646  22852811.258    22852820.152
       220.000         167.000
  20409880.135      296010.75049    242158.03048  20409879.804    20409886.426
       244.000         216.000
  22868366.197    -2099245.51049  -1618575.38846  22868365.720    22868373.656
       224.000         173.000
 99  1  2  0 32  0.0000000  0  6G 4G 2G26G27G 7G 9
  22240333.292    -2288546.42749  -1732207.57546  22240333.228    22240340.234
       228.000         181.000
  21653881.003      627031.84149    500675.41347  21653880.750    21653887.917
       239.000         201.000
  22913260.196      360699.41949    287021.39046  22913261.439    22913268.301
       226.000         175.000
  22872634.404     3609082.01549   2808509.34146  22872633.985    22872642.364
       219.000         167.000
  20415119.968      323545.95149    263614.06348  20415119.337    20415126.257
       244.000         216.000
  22851948.245    -2185521.82549  -1685803.57046  22851947.166    22851956.278
       224.000         175.000
 99  1  2  0 32 30.0000000  0  6G 4G 2G26G27G 7G 9
  22223078.014    -2379222.53849  -1802864.17846  22223078.253    22223086.284
       228.000         182.000
  21659792.340      658096.20149    524881.42747  21659791.938    21659798.991
       239.000         201.000
  22922900.336      411358.42049    326495.93046  22922900.037    22922907.691
       226.000         175.000
  22892510.545     3713530.80049   2889897.99346  22892510.884    22892518.398
       220.000         165.000
  20420422.698      351412.34249    285328.16548  20420422.246    20420428.930
       243.000         216.000
  22835579.270    -2271541.15349  -1752831.49946  22835578.918    22835587.099
       225.000         175.000
 99  1  2  0 33  0.0000000  0  6G 4G 2G26G27G 7G 9
  22205874.113    -2469628.13149  -1873309.96846  22205875.202    22205881.477
       230.000         182.000
  21665735.848      689329.88649    549219.38447  21665735.234    21665742.266
       238.000         200.000
  22932610.125      462383.77249    366255.95646  22932610.464    22932617.780
       224.000         173.000
  22912436.125     3818239.98549   2971489.53546  22912435.751    22912444.362
       218.000         166.000
  20425785.620      379594.58749    307288.38448  20425785.263    20425791.937
       244.000         216.000
  22819260.032    -2357298.80049  -1819655.52346  22819259.355    22819267.006
       225.000         176.000
 99  1  2  0 33 30.0000000  0  6G 4G 2G26G27G 7G 9
  22188718.191    -2559782.74249  -1943560.20346  22188717.900    22188726.990
       228.000         182.000
  21671708.046      720714.00649    573674.56347  21671707.759    21671714.435
       239.000         200.000
  22942385.473      513753.78049    406284.53246  22942386.396    22942393.210
       227.000         173.000
  22932402.328     3923164.40149   3053248.79146  22932402.588    22932409.233
       219.000         165.000
  20431204.270      408069.69949    329476.81048  20431203.682    20431210.491
       244.000         216.000
  22802989.373    -2442801.91849  -1886281.23546  22802989.349    22802995.575
       226.000         177.000
 99  1  2  0 34  0.0000000  0  6G 4G 2G26G27G 7G 9
  22171609.164    -2649691.95449  -2013619.22446  22171609.524    22171616.215
       229.000         183.000
  21677710.476      752256.21449    598252.92247  21677710.383    21677716.690
       238.000         200.000
  22952224.931      565459.98749    446575.07146  22952225.045    22952232.916
       225.000         174.000
  22952408.985     4028299.91349   3135172.53246  22952408.968    22952417.613
       218.000         165.000
  20436679.297      436841.33849    351896.29648  20436678.762    20436685.543
       244.000         216.000
  22786767.403    -2528048.13949  -1952706.76346  22786766.440    22786774.224
       225.000         177.000
 99  1  2  0 34 30.0000000  0  6G 4G 2G26G27G 7G 9
  22154547.681    -2739349.76649  -2083482.33846  22154548.845    22154555.872
       231.000         184.000
  21683746.234      783974.58949    622968.56547  21683745.565    21683752.881
       238.000         199.000
  22962125.260      617486.58149    487115.25146  22962125.901    22962133.465
       225.000         174.000
  22972455.818     4133646.28449   3217260.55546  22972456.419    22972464.958
       219.000         166.000
  20442213.013      465921.50049    374556.19448  20442212.601    20442219.266
       244.000         217.000
  22770592.344    -2613047.93349  -2018940.27246  22770591.677    22770599.990
       224.000         176.000
 99  1  2  0 35  0.0000000  0  6G 4G 2G26G27G 7G 9
  22137539.646    -2828727.58749  -2153127.26246  22137540.150    22137547.251
       231.000         184.000
  21689819.745      815891.52249    647838.92647  21689819.091    21689825.997
       238.000         199.000
  22972089.493      669849.12049    527917.23646  22972089.743    22972097.612
       227.000         174.000
  22992546.566     4239222.71549   3299527.89146  22992546.172    22992554.456
       220.000         165.000
  20447809.178      495329.37749    397471.45548  20447808.737    20447815.350
       244.000         217.000
  22754464.208    -2697801.13949  -2084981.63246  22754464.042    22754471.500
       224.000         175.000
 99  1  2  0 35 30.0000000  0  6G 4G 2G26G27G 7G 9
  22120589.230    -2917802.43749  -2222536.13946  22120589.285    22120597.415
       229.000         184.000
  21695933.555      848019.73549    672873.91447  21695933.208    21695939.927
       238.000         199.000
  22982118.484      722551.50749    568984.03946  22982118.910    22982126.339
       225.000         174.000
  23012686.790     4345059.53449   3381998.07546  23012686.738    23012695.320
       219.000         165.000
  20453470.293      525078.67149    420652.75448  20453469.837    20453476.625
       243.000         217.000
  22738384.980    -2782297.73549  -2150823.03646  22738384.254    22738392.580
       225.000         176.000
 99  1  2  0 36  0.0000000  0  6G 4G 2G26G27G 7G 9
  22103702.084    -3006543.79649  -2291685.13846  22103702.725    22103709.293
       230.000         184.000
  21702093.468      880390.00149    698097.52447  21702092.774    21702100.122
       238.000         199.000
  22992213.398      775600.94549    610321.24146  22992214.331    22992221.633
       225.000         174.000
  23032881.740     4451183.96549   3464692.41246  23032881.718    23032889.151
       218.000         165.000
  20459201.603      555196.90249    444121.53548  20459201.300    20459208.019
       244.000         216.000
  22722354.973    -2866535.26949  -2216462.56846  22722355.281    22722362.428
       225.000         177.000
 99  1  2  0 36 30.0000000  0  6G 4G 2G26G27G 7G 9
  22086881.858    -3094934.71949  -2360561.05546  22086881.460    22086889.664
       230.000         185.000
  21708299.004      913000.55649    723508.37247  21708298.718    21708305.095
       239.000         198.000
  23002376.769      829009.22149    651938.08046  23002376.996    23002384.923
       226.000         174.000
  23053131.808     4557598.95149   3547613.13046  23053131.229    23053140.476
       219.000         164.000
  20465005.057      585693.85549    467885.42048  20465004.502    20465011.013
       244.000         216.000
  22706375.868    -2950505.71449  -2281893.99446  22706375.443    22706382.310
       225.000         177.000
 99  1  2  0 37  0.0000000  0  6G 4G 2G26G27G 7G 9
  22070129.606    -3182967.61849  -2429158.02846  22070129.297    22070137.083
       229.000         185.000
  21714546.501      945831.26849    749090.76547  21714545.733    21714552.639
       238.000         198.000
  23012611.813      882794.45049    693848.63646  23012612.510    23012620.035
       226.000         174.000
  23073439.963     4664318.89449   3630771.48846  23073439.650    23073448.519
       219.000         166.000
  20470880.659      616570.73249    491945.34848  20470880.105    20470886.756
       244.000         216.000
  22690452.216    -3034184.63849  -2347098.25746  22690451.937    22690459.567
       227.000         177.000
 99  1  2  0 37 30.0000000  0  6G 4G 2G26G27G 7G 9
  22053445.399    -3270644.02049  -2497477.18846  22053445.817    22053452.748
       232.000         186.000
  21720832.429      978864.56249    774831.02647  21720831.901    21720839.018
       239.000         198.000
  23022917.320      936949.58649    736047.44846  23022918.055    23022924.843
       224.000         172.000
  23093805.120     4771337.15349   3714162.29746  23093804.372    23093813.183
       219.000         164.000
  20476826.434      647816.24049    516292.52748  20476825.499    20476832.338
       243.000         216.000
  22674585.565    -3117564.36549  -2412069.38446  22674585.751    22674592.154
       228.000         177.000
 99  1  2  0 38  0.0000000  0  6G 4G 2G26G27G 7G 9
  22036830.168    -3357957.04849  -2565513.20046  22036830.839    22036837.778
       232.000         185.000
  21727160.205     1012116.81949    800741.89747  21727159.770    21727166.609
       238.000         198.000
  23033293.830      991479.80049    778538.52746  23033292.793    23033302.134
       221.000         170.000
  23114225.124     4878644.87549   3797778.66546  23114224.825    23114233.748
       218.000         164.000
  20482842.198      679429.84549    540926.52348  20482841.554    20482848.701
       243.000         216.000
  22658778.740    -3200630.23949  -2476795.94246  22658777.845    22658785.372
       227.000         177.000
 99  1  2  0 38 30.0000000  0  6G 4G 2G26G27G 7G 9
  22020279.521    -3444931.00449  -2633284.99446  22020279.718    22020286.418
       230.000         185.000
  21733524.670     1045562.36749    826803.39447  21733524.064    21733531.036
       238.000         198.000
  23043738.970     1046369.32249    821309.57546  23043739.781    23043746.783
       226.000         172.000
  23134693.929     4986210.18649   3881595.73746  23134693.905    23134702.316
       218.000         164.000
  20488921.105      711374.66949    565818.61248  20488920.625    20488927.326
       243.000         216.000
  22643031.634    -3283380.63349  -2541276.66046  22643031.096    22643038.399
       228.000         179.000
 99  1  2  0 39  0.0000000  0  6G 4G 2G26G27G 7G 9
  22003789.543    -3531585.98649  -2700808.26446  22003789.154    22003796.968
       231.000         186.000
  21739923.741     1079189.71449    853006.54747  21739923.464    21739929.957
       239.000         198.000
  23054247.444     1101591.81149    864340.09146  23054247.776    23054255.661
       223.000         173.000
  23155205.360     5093999.09249   3965587.05646  23155205.255    23155213.008
       217.000         164.000
  20495055.296      743610.05849    590937.11848  20495054.799    20495061.592
       244.000         216.000
  22627339.988    -3365840.14149  -2605530.72746  22627339.269    22627347.041
       229.000         181.000
 99  1  2  0 39 30.0000000  0  6G 4G 2G26G27G 7G 9
  21987351.381    -3617969.14749  -2768119.70146  21987351.323    21987358.439
       232.000         186.000
  21746355.376     1112987.97649    879342.88247  21746354.882    21746361.838
       238.000         198.000
  23064808.966     1157093.16549    907587.89846  23064808.895    23064816.320
       220.000         171.000
  23175747.878     5201950.80249   4049705.21846  23175748.053    23175756.336
       219.000         164.000
  20501234.919      776084.32949    616241.76348  20501234.691    20501241.249
       244.000         216.000
  22611695.965    -3448050.16149  -2669590.37246  22611695.979    22611703.251
       230.000         182.000
 99  1  2  0 40  0.0000000  0  6G 4G 2G26G27G 7G 9
  21970971.647    -3704044.32849  -2835191.15746  21970971.863    21970979.202
       231.000         186.000
  21752828.536     1147005.11249    905849.76647  21752828.060    21752835.027
       238.000         197.000
  23075430.973     1212913.13649    951083.96846  23075430.992    23075439.316
       222.000         171.000
  23196325.937     5310088.57649   4133968.35246  23196325.928    23196333.157
       216.000         164.000
  20507470.113      808850.28249    641773.69548  20507469.744    20507476.003
       244.000         216.000
  22596107.811    -3529965.98449  -2733420.79646  22596107.820    22596114.123
       230.000         182.000
 99  1  2  0 40 30.0000000  0  6G 4G 2G26G27G 7G 9
  21954642.839    -3789853.06149  -2902054.99746  21954641.418    21954649.911
       230.000         187.000
  21759331.131     1181176.55549    932476.89247  21759330.169    21759337.262
       238.000         197.000
  23086106.336     1269012.30949    994797.61446  23086106.961    23086114.427
       223.000         171.000
  23216930.672     5418367.61349   4218341.60146  23216930.453    23216939.147
       216.000         163.000
  20513754.526      841875.33949    667507.52948  20513753.904    20513760.513
       244.000         216.000
  22580566.289    -3611636.95249  -2797060.43346  22580565.560    22580572.842
       231.000         182.000
 99  1  2  0 41  0.0000000  0  6G 4G 2G26G27G 7G 9
  21938375.851    -3875336.29849  -2968665.20147  21938376.388    21938383.127
       231.000         188.000
  21765873.299     1215555.89049    959266.00747  21765872.600    21765879.625
       237.000         197.000
  23096844.364     1325440.69349   1038767.77646  23096844.417    23096853.507
       219.000         170.000
  23237574.771     5526853.11649   4302875.70146  23237573.982    23237583.325
       215.000         163.000
  20520100.273      875222.54749    693492.38548  20520099.731    20520106.221
       244.000         216.000
  22565079.974    -3693017.91249  -2860474.07446  22565078.581    22565086.706
       228.000         181.000
 99  1  2  0 41 30.0000000  0  6G 4G 2G26G27G 7G 9
  21922173.711    -3960477.89049  -3035009.18447  21922173.835    21922180.610
       232.000         188.000
  21772457.804     1250157.76249    986228.52147  21772457.361    21772464.505
       238.000         197.000
  23107645.378     1382201.37849   1082996.84646  23107645.190    23107653.933
       217.000         167.000
  23258264.095     5635575.45549   4387594.36445  23258265.028    23258272.031
       218.000         162.000
  20526514.184      908928.29849    719756.62848  20526513.850    20526520.403
       244.000         216.000
  22549652.720    -3774087.40349  -2923645.00446  22549651.411    22549659.718
       227.000         181.000
 99  1  2  0 42  0.0000000  0  6G 4G 2G26G27G 7G 9
  21906046.117    -4045228.18549  -3101048.25747  21906045.870    21906053.512
       232.000         188.000
  21779088.782     1285003.77749   1013381.27947  21779088.111    21779095.055
       237.000         197.000
  23118514.948     1439321.56249   1127506.06746  23118514.376    23118523.831
       220.000         167.000
  23279006.565     5744577.31449   4472530.83745  23279006.589    23279015.256
       217.000         162.000
  20533004.551      943035.31749    746333.54848  20533004.327    20533010.932
       244.000         216.000
  22534290.265    -3854816.25749  -2986550.48446  22534289.626    22534297.478
       227.000         181.000
 99  1  2  0 42 30.0000000  0  6G 4G 2G26G27G 7G 9
  21889991.094    -4129597.77449  -3166790.68247  21889990.905    21889998.372
       232.000         188.000
  21785765.183     1320088.75449   1040720.23447  21785764.549    21785771.377
       238.000         197.000
  23129449.360     1496782.23149   1172280.60946  23129450.115    23129457.384
       222.000         168.000
  23299801.285     5853853.51249   4557681.06346  23299801.303    23299809.074
       216.000         163.000
  20539562.398      977496.79849    773186.67748  20539561.717    20539568.520
       243.000         216.000
  22518990.821    -3935214.92849  -3049198.70146  22518991.067    22518997.498
       227.000         181.000
 99  1  2  0 43  0.0000000  0  6G 4G 2G26G27G 7G 9
  21874000.078    -4213630.46049  -3232270.57747  21874000.784    21874007.339
       233.000         188.000
  21792484.249     1355397.93349   1068233.89547  21792483.887    21792490.578
       239.000         197.000
  23140440.872     1554541.83949   1217288.09246  23140441.226    23140448.755
       221.000         169.000
  23320642.752     5963375.97849   4643023.21845  23320642.905    23320650.707
       217.000         162.000
  20546179.437     1012269.59449    800282.38848  20546178.886    20546185.666
       244.000         216.000
  22503751.734    -4015296.87849  -3111600.11446  22503751.267    22503758.105
       228.000         180.000
 99  1  2  0 43 30.0000000  0  6G 4G 2G26G27G 7G 9
  21858063.634    -4297377.27649  -3297527.72547  21858063.368    21858070.722
       233.000         188.000
  21799237.000     1390883.66449   1095885.12647  21799236.533    21799242.829
       238.000         197.000
  23151481.247     1612560.13249   1262497.11346  23151481.233    23151489.441
       219.000         167.000
  23341519.507     6073084.01349   4728509.94645  23341518.953    23341528.260
       216.000         161.000
  20552846.138     1047303.30349    827581.40648  20552845.791    20552852.204
       244.000         215.000
  22488567.577    -4095090.13349  -3173776.57346  22488567.529    22488574.336
       228.000         180.000
 99  1  2  0 44  0.0000000  0  6G 4G 2G26G27G 7G 9
  21842177.613    -4380859.19449  -3362578.45447  21842176.886    21842184.088
       232.000         189.000
  21806019.807     1426527.81249   1123659.80147  21806019.337    21806026.181
       236.000         197.000
  23162570.683     1670835.65649   1307906.61246  23162570.616    23162578.978
       222.000         168.000
  23362426.497     6182951.38449   4814120.85145  23362426.179    23362434.242
       214.000         161.000
  20559556.054     1082564.20149    855057.45248  20559555.746    20559562.022
       244.000         215.000
  22473437.276    -4174600.67649  -3235732.72846  22473437.603    22473444.116
       228.000         181.000
 99  1  2  0 44 30.0000000  0  7G 4G 2G26G27G24G 7G 9
  21826330.181    -4464137.08549  -3427470.20147  21826330.156    21826337.166
       233.000         189.000
  21812822.949     1462278.90049   1151517.80947  21812822.527    21812829.033
       237.000         196.000
  23173699.891     1729319.76449   1353478.63746  23173699.961    23173707.524
       222.000         168.000
  23383354.399     6292928.53549   4899817.29845  23383354.511    23383362.762
       216.000         160.000
  24427779.974    -5559979.66449  -4273638.90345  24427778.731    24427791.035
       209.000         144.000
  20566300.457     1118005.98249    882674.44948  20566299.877    20566306.437
       244.000         215.000
  22458352.824    -4253869.63349  -3297500.63346  22458352.406    22458359.464
       228.000         181.000
 99  1  2  0 45  0.0000000  0  7G 4G 2G26G27G24G 7G 9
  21810533.951    -4547145.65849  -3492152.08747  21810534.211    21810540.474
       234.000         189.000
  21819655.073     1498181.84849   1179494.13947  21819654.408    21819661.398
       235.000         196.000
  23184876.078     1788050.54649   1399242.88646  23184876.554    23184883.672
       221.000         167.000
  23404312.403     6403062.66949   4985636.07245  23404311.203    23404321.211
       214.000         160.000
  24407129.633    -5668495.98049  -4358196.75845  24407128.696    24407139.895
       210.000         146.000
  20573093.404     1153703.14249    910490.44248  20573092.814    20573099.414
       243.000         215.000
  22443322.640    -4332853.89849  -3359046.70146  22443322.281    22443329.091
       229.000         182.000
 99  1  2  0 45 30.0000000  0  7G 4G 2G26G27G24G 7G 9
  21794800.297    -4629826.51549  -3556578.62347  21794800.414    21794807.507
       233.000         189.000
  21826520.751     1534261.12049   1207607.88047  21826520.015    21826526.899
       237.000         196.000
  23196103.290     1847050.34349   1445216.71646  23196104.111    23196110.812
       220.000         166.000
  23425303.032     6513369.77649   5071589.59545  23425303.120    23425311.495
       214.000         159.000
  24386470.418    -5777059.99749  -4442791.72745  24386467.960    24386482.134
       210.000         146.000
  20579938.828     1189676.34149    938521.53048  20579938.425    20579944.745
       244.000         215.000
  22428347.007    -4411550.64549  -3420368.73146  22428346.599    22428353.347
       229.000         183.000
 99  1  2  0 46  0.0000000  0  7G 4G 2G26G27G24G 7G 9
  21779141.135    -4712115.06049  -3620699.47047  21779141.384    21779147.568
       233.000         190.000
  21833429.754     1570568.67649   1235899.50547  21833429.361    21833435.917
       236.000         196.000
  23207387.604     1906348.94549   1491423.42946  23207388.779    23207395.963
       223.000         166.000
  23446334.520     6623891.81449   5157710.65345  23446334.760    23446343.961
       215.000         160.000
  24365807.277    -5885644.92649  -4527403.01745  24365806.353    24365817.829
       212.000         146.000
  20586844.627     1225966.59649    966799.67148  20586844.084    20586850.671
       244.000         215.000
  22413431.032    -4489934.09049  -3481446.62646  22413430.605    22413437.314
       229.000         183.000
 99  1  2  0 46 30.0000000  0  7G 4G 2G26G27G24G 7G 9
  21763564.305    -4793970.86849  -3684483.10747  21763564.378    21763571.137
       233.000         190.000
  21840384.216     1607114.66449   1264376.91047  21840383.977    21840390.494
       237.000         196.000
  23218729.470     1965950.32649   1537866.05046  23218729.778    23218737.137
       223.000         167.000
  23467410.088     6734645.38249   5244012.08545  23467409.181    23467418.977
       212.000         160.000
  24345145.247    -5994223.24449  -4612009.18745  24345143.668    24345156.052
       209.000         147.000
  20593814.682     1262594.76049    995341.12048  20593814.229    20593820.660
       244.000         215.000
  22398577.293    -4567989.71249  -3542269.07846  22398576.638    22398584.073
       228.000         183.000
 99  1  2  0 47  0.0000000  0  7G 4G 2G26G27G24G 7G 9
  21748077.287    -4875355.63849  -3747899.72047  21748077.010    21748084.327
       233.000         190.000
  21847386.495     1643912.21049   1293050.32747  21847385.989    21847393.023
       237.000         196.000
  23230133.789     2025880.00249   1584564.49946  23230134.423    23230141.827
       222.000         166.000
  23488531.220     6845637.43849   5330499.37645  23488531.808    23488540.137
       215.000         159.000
  24324488.729    -6102772.04349  -4696592.30145  24324487.698    24324499.505
       214.000         149.000
  20600849.728     1299564.41549   1024148.66948  20600849.009    20600855.462
       245.000         215.000
  22383789.912    -4645696.89649  -3602820.01946  22383789.405    22383796.744
       229.000         184.000
 99  1  2  0 47 30.0000000  0  7G 4G 2G26G27G24G 7G 9
  21732683.756    -4956248.70549  -3810933.18747  21732683.956    21732690.342
       234.000         191.000
  21854440.065     1680979.19749   1321933.70847  21854439.926    21854446.917
       238.000         196.000
  23241606.904     2086171.69649   1631545.02946  23241607.960    23241614.990
       220.000         163.000
  23509700.720     6956883.37249   5417184.49645  23509699.584    23509709.261
       212.000         158.000
  24303841.663    -6211272.62049  -4781137.92545  24303841.321    24303853.388
       214.000         148.000
  20607951.601     1336885.34249   1053229.93348  20607951.092    20607957.630
       244.000         214.000
  22369073.252    -4723033.23049  -3663081.99046  22369073.103    22369079.881
       230.000         184.000
 99  1  2  0 48  0.0000000  0  7G 4G 2G26G27G24G 7G 9
  21717375.007    -5036696.86549  -3873619.97847  21717375.684    21717381.847
       235.000         191.000
  21861540.747     1718292.60849   1351009.09747  21861540.840    21861547.423
       238.000         196.000
  23253144.403     2146802.21749   1678789.58046  23253144.513    23253152.204
       220.000         163.000
  23530914.359     7068362.19649   5504051.07345  23530914.127    23530923.222
       213.000         158.000
  24283200.658    -6319741.32349  -4865658.68345  24283200.310    24283210.751
       215.000         149.000
  20615115.084     1374529.89349   1082563.36948  20615114.693    20615120.903
       244.000         214.000
  22354426.403    -4800003.37449  -3723058.63146  22354426.413    22354432.699
       230.000         184.000
 99  1  2  0 48 30.0000000  0  7G 4G 2G26G27G24G 7G 9
  21702144.416    -5116733.96749  -3935986.45347  21702144.368    21702150.687
       234.000         191.000
  21868682.752     1755823.61749   1380254.04747  21868682.436    21868688.957
       237.000         196.000
  23264744.276     2207760.03449   1726289.15546  23264744.323    23264752.750
       218.000         164.000
  23552167.427     7180047.94549   5591078.89545  23552166.834    23552176.398
       213.000         158.000
  24262564.229    -6428186.34349  -4950161.03545  24262563.797    24262573.732
       212.000         148.000
  20622335.033     1412471.11149   1112127.98048  20622334.325    20622340.902
       244.000         214.000
  22339846.343    -4876622.17649  -3782761.50146  22339846.276    22339852.151
       230.000         184.000
 99  1  2  0 49  0.0000000  0  7G 4G 2G26G27G24G 7G 9
  21686987.603    -5196383.51749  -3998050.96347  21686987.641    21686993.728
       234.000         191.000
  21875866.463     1793574.71849   1409670.50147  21875865.823    21875872.889
       236.000         195.000
  23276405.300     2269039.27149   1774039.21246  23276405.020    23276413.868
       217.000         164.000
  23573456.392     7291921.33949   5678252.93745  23573456.596    23573464.775
       213.000         158.000
  24241929.808    -6536620.06149  -5034654.58445  24241930.341    24241939.024
       216.000         148.000
  20629609.106     1450696.68449   1141914.16948  20629608.699    20629615.362
       244.000         214.000
  22325331.641    -4952896.73349  -3842196.12346  22325331.255    22325338.254
       230.000         185.000
 99  1  2  0 49 30.0000000  0  7G 4G 2G26G27G24G 7G 9
  21671898.830    -5275675.57349  -4059836.90047  21671899.326    21671905.003
       236.000         192.000
  21883091.930     1831545.32349   1439257.99847  21883091.091    21883098.296
       236.000         195.000
  23288121.714     2330609.73849   1822016.17946  23288121.119    23288130.891
       214.000         163.000
  23594779.152     7403972.85049   5765565.77645  23594777.625    23594788.677
       212.000         158.000
  24221295.547    -6645054.30949  -5119148.54445  24221293.527    24221304.695
       213.000         148.000
  20636935.145     1489195.34849   1171913.14948  20636934.697    20636941.128
       244.000         214.000
  22310880.776    -5028835.94649  -3901369.45646  22310879.969    22310887.123
       228.000         186.000
 99  1  2  0 50  0.0000000  0  7G 4G 2G26G27G24G 7G 9
  21656869.650    -5354654.42049  -4121378.78747  21656870.101    21656876.157
       236.000         192.000
  21890352.615     1869700.50549   1468989.31647  21890351.795    21890359.043
       235.000         194.000
  23299885.740     2392430.42049   1870188.11146  23299885.815    23299894.183
       218.000         163.000
  23616130.428     7516175.77549   5852996.58845  23616130.313    23616139.435
       211.000         156.000
  24200653.551    -6753525.79749  -5203671.48845  24200652.457    24200662.909
       215.000         149.000
  20644308.123     1527940.47749   1202104.18348  20644307.523    20644314.148
       243.000         214.000
  22296491.741    -5104449.96949  -3960289.37946  22296491.460    22296498.394
       230.000         186.000
 99  1  2  0 50 30.0000000  0  7G 4G 2G26G27G24G 7G 9
  21641897.025    -5433335.25649  -4182688.45347  21641897.176    21641903.309
       236.000         192.000
  21897642.116     1908007.50349   1498838.94447  21897641.338    21897647.711
       235.000         194.000
  23311689.479     2454459.23749   1918522.22146  23311690.982    23311698.724
       220.000         165.000
  23637505.920     7628504.38849   5940525.36645  23637506.085    23637515.650
       214.000         157.000
  24179999.554    -6862061.85249  -5288244.79745  24179998.465    24180010.951
       210.000         150.000
  20651725.431     1566919.04749   1232477.12248  20651724.838    20651731.407
       244.000         213.000
  22282160.675    -5179759.96349  -4018972.42346  22282160.331    22282166.906
       230.000         185.000
 99  1  2  0 51  0.0000000  0  7G 4G 2G26G27G24G 7G 9
  21626989.723    -5511673.71649  -4243731.32647  21626989.547    21626996.420
       235.000         193.000
  21904969.960     1946515.94149   1528845.52647  21904969.525    21904976.400
       235.000         194.000
  23323536.759     2516716.50449   1967034.38946  23323536.801    23323545.381
       221.000         168.000
  23658914.562     7741006.63349   6028189.42345  23658914.354    23658923.430
       213.000         155.000
  24159340.439    -6970624.94949  -5372839.15745  24159340.067    24159350.751
       215.000         151.000
  20659193.727     1606165.10549   1263058.49148  20659193.628    20659199.724
       244.000         214.000
  22267895.102    -5254725.81049  -4077387.30646  22267895.157    22267901.023
       230.000         184.000
 99  1  2  0 51 30.0000000  0  7G 4G 2G26G27G24G 7G 9
  21612142.703    -5589694.91149  -4304527.00147  21612142.895    21612149.354
       236.000         193.000
  21912330.305     1985195.14449   1558985.18847  21912329.730    21912336.982
       234.000         194.000
  23335418.710     2579155.96949   2015688.50046  23335419.195    23335426.650
       222.000         169.000
  23680351.654     7853657.59649   6115969.35945  23680351.734    23680360.750
       214.000         156.000
  24138670.957    -7079242.98049  -5457476.36845  24138670.216    24138679.822
       212.000         148.000
  20666706.460     1645644.34749   1293821.56048  20666705.977    20666712.177
       244.000         214.000
  22253688.679    -5329381.12249  -4135560.20946  22253688.442    22253695.314
       230.000         184.000
 99  1  2  0 52  0.0000000  0  7G 4G 2G26G27G24G 7G 9
  21597361.283    -5667371.25449  -4365053.94847  21597361.688    21597367.603
       237.000         194.000
  21919724.427     2024051.04649   1589262.52547  21919724.201    21919730.727
       236.000         194.000
  23347338.934     2641796.92549   2064499.62346  23347339.753    23347347.566
       221.000         169.000
  23701817.703     7966462.06449   6203868.92945  23701817.713    23701826.673
       213.000         156.000
  24117994.907    -7187897.36149  -5542141.86045  24117994.130    24118002.726
       215.000         150.000
  20674264.790     1685363.70649   1324771.74148  20674264.255    20674270.501
       245.000         214.000
  22239541.483    -5403724.57549  -4193490.11346  22239541.476    22239547.630
       230.000         185.000
 99  1  2  0 52 30.0000000  0  7G 4G 2G26G27G24G 7G 9
  21582655.490    -5744650.41049  -4425271.40447  21582655.548    21582662.252
       236.000         194.000
  21927160.390     2063126.55449   1619710.98447  21927159.713    21927166.391
       235.000         194.000
  23359303.243     2704669.37049   2113491.12846  23359303.840    23359311.370
       222.000         168.000
  23723314.988     8079431.73149   6291897.20345  23723314.721    23723324.575
       211.000         156.000
  24097320.338    -7296542.93449  -5626800.53745  24097318.673    24097328.469
       211.000         149.000
  20681873.312     1725346.66749   1355927.32448  20681872.628    20681878.987
       244.000         214.000
  22225455.557    -5477746.29249  -4251169.30546  22225455.277    22225462.112
       231.000         187.000
 99  1  2  0 53  0.0000000  0  8G 4G 2G26G27G24G 7G 5G 9
  21568045.990    -5821423.54049  -4485094.55947  21568046.242    21568052.420
       236.000         194.000
  21934658.069     2102527.38549   1650412.95147  21934657.373    21934664.656
       234.000         194.000
  23371332.067     2767881.04249   2162746.97246  23371332.863    23371339.356
       223.000         168.000
  23744858.697     8192644.68549   6380115.07345  23744858.946    23744867.459
       213.000         157.000
  24076668.824    -7405062.90049  -5711361.28745  24076667.140    24076678.135
       210.000         151.000
  20689548.464     1765680.20549   1387356.08548  20689547.974    20689554.247
       244.000         214.000
  24611046.485    -2975459.20049  -1971386.51145  24611045.638    24611055.596
       208.000         147.000
  22211449.569    -5551347.52849  -4308520.86046  22211449.364    22211456.277
       232.000         187.000
 99  1  2  0 53 30.0000000  0  8G 4G 2G26G27G24G 7G 5G 9
  21553510.924    -5897805.66749  -4544613.03547  21553511.225    21553517.818
       237.000         195.000
  21942191.126     2142114.05149   1681259.71747  21942190.857    21942197.345
       235.000         194.000
  23383401.751     2831307.55849   2212170.24546  23383401.908    23383410.048
       224.000         168.000
  23766422.866     8305966.21649   6468417.53445  23766423.258    23766432.393
       211.000         154.000
  24056019.503    -7513572.57349  -5795914.10945  24056019.204    24056029.198
       212.000         149.000
  20697265.425     1806233.63649   1418956.18848  20697265.052    20697271.364
       243.000         213.000
  24595828.967    -3055428.10349  -2033699.71245  24595828.083    24595837.635
       209.000         143.000
  22197500.871    -5624648.25249  -4365638.25247  22197501.040    22197507.016
       232.000         188.000
 99  1  2  0 54  0.0000000  0  8G 4G 2G26G27G24G 7G 5G 9
  21539055.706    -5973768.04949  -4603804.44547  21539056.342    21539062.284
       238.000         195.000
  21949762.008     2181898.87049   1712260.88447  21949761.576    21949768.422
       235.000         194.000
  23395516.094     2894967.76449   2261775.57446  23395516.011    23395524.463
       222.000         167.000
  23788009.809     8419406.41549   6556812.47645  23788010.203    23788019.116
       213.000         154.000
  24035376.744    -7622050.73249  -5880442.30845  24035375.016    24035386.619
       210.000         151.000
  20705027.379     1847022.76549   1450739.95748  20705026.798    20705033.226
       244.000         213.000
  24580603.983    -3135434.13949  -2096041.78645  24580603.422    24580613.778
       204.000         141.000
  22183613.056    -5697628.78849  -4422506.14447  22183613.424    22183619.570
       232.000         188.000
 99  1  2  0 54 30.0000000  0  8G 4G 2G26G27G24G 7G 5G 9
  21524687.967    -6049271.41849  -4662638.16747  21524688.218    21524694.242
       238.000         196.000
  21957377.447     2221918.36349   1743444.92647  21957376.874    21957383.784
       234.000         194.000
  23407678.576     2958882.54649   2311579.32146  23407678.321    23407686.069
       221.000         165.000
  23809626.791     8533003.28249   6645329.48445  23809627.248    23809635.449
       212.000         156.000
  24014746.907    -7730459.64949  -5964916.62645  24014746.027    24014756.090
       210.000         149.000
  20712842.913     1888093.66249   1482743.28448  20712842.268    20712848.658
       243.000         213.000
  24565378.570    -3215442.50549  -2158385.68845  24565377.773    24565388.058
       203.000         140.000
  22169797.047    -5770232.28149  -4479080.23447  22169796.859    22169803.644
       231.000         189.000
 99  1  2  0 55  0.0000000  0  8G 4G 2G26G27G24G 7G 5G 9
  21510405.968    -6124323.58849  -4721120.31847  21510405.986    21510412.454
       238.000         196.000
  21965035.807     2262163.23849   1774804.57347  21965035.612    21965042.688
       236.000         194.000
  23419887.127     3023038.60249   2361571.03446  23419888.209    23419896.434
       222.000         166.000
  23831278.460     8646783.00249   6733988.96145  23831278.529    23831287.357
       213.000         155.000
  23994129.194    -7838804.75249  -6049341.16945  23994128.101    23994139.744
       210.000         151.000
  20720711.586     1929443.89049   1514964.26548  20720711.190    20720717.217
       243.000         213.000
  24550152.145    -3295455.99649  -2220733.55445  24550151.584    24550162.095
       204.000         138.000
  22156055.057    -5842446.84549  -4535351.26347  22156055.062    22156061.377
       233.000         189.000
 99  1  2  0 55 30.0000000  0  8G 4G 2G26G27G24G 7G 5G 9
  21496203.327    -6198958.23949  -4779277.11747  21496203.288    21496209.913
       239.000         196.000
  21972732.002     2302606.91449   1806319.14047  21972731.015    21972737.853
       233.000         193.000
  23432136.219     3087408.63849   2411729.46446  23432136.469    23432144.090
       219.000         164.000
  23852964.199     8760741.41649   6822787.73845  23852965.246    23852973.713
       213.000         153.000
  23973515.717    -7947130.04949  -6133750.33345  23973515.690    23973525.668
       218.000         150.000
  20728629.994     1971055.83149   1547389.17947  20728629.339    20728635.727
       243.000         212.000
  24534920.876    -3375496.48249  -2283102.44745  24534918.739    24534930.331
       205.000         138.000
  22142381.478    -5914302.46349  -4591342.59747  22142381.168    22142387.832
       232.000         188.000
 99  1  2  0 56  0.0000000  0  8G 4G 2G26G27G24G 7G 5G 9
  21482083.182    -6273159.38149  -4837096.12647  21482083.183    21482090.109
       238.000         196.000
  21980471.806     2343280.19349   1838012.60747  21980471.206    21980477.725
       235.000         193.000
  23444431.175     3152019.23949   2462075.39546  23444431.678    23444439.107
       222.000         165.000
  23874687.471     8874896.30149   6911739.54245  23874687.548    23874696.440
       213.000         155.000
  23952911.549    -8055408.06549  -6218122.60345  23952909.786    23952921.019
       213.000         151.000
  20736608.047     2012980.89449   1580058.08147  20736607.625    20736614.060
       243.000         212.000
  24519687.120    -3455549.21949  -2345480.82745  24519686.015    24519696.398
       208.000         138.000
  22128781.276    -5985771.00849  -4647032.30647  22128780.784    22128787.766
       231.000         188.000
 99  1  2  0 56 30.0000000  0  8G 4G 2G26G27G24G 7G 5G 9
  21468040.859    -6346952.28649  -4894597.02347  21468041.294    21468047.399
       238.000         196.000
  21988254.322     2384177.13649   1869880.36247  21988253.909    21988260.226
       235.000         193.000
  23456771.836     3216868.74849   2512607.45646  23456771.645    23456780.502
       220.000         165.000
  23896446.828     8989241.43649   7000839.62145  23896446.874    23896454.802
       216.000         155.000
  23932314.723    -8163642.43849  -6302460.89745  23932313.084    23932323.973
       209.000         151.000
  20744643.241     2055206.05249   1612960.83047  20744642.963    20744649.087
       243.000         212.000
  24504447.197    -3535634.95749  -2407884.99945  24504446.515    24504455.902
       212.000         140.000
  22115254.901    -6056852.09449  -4702420.09847  22115254.238    22115261.561
       232.000         189.000
 99  1  2  0 57  0.0000000  0  8G 4G 2G26G27G24G 7G 5G 9
  21454074.581    -6420345.63049  -4951786.57447  21454074.623    21454081.038
       238.000         197.000
  21996080.674     2425305.21449   1901928.23947  21996080.141    21996087.262
       234.000         193.000
  23469159.940     3281968.83049   2563334.79546  23469160.628    23469167.198
       220.000         164.000
  23918240.883     9103768.99749   7090081.84445  23918240.796    23918247.971
       212.000         154.000
  23911727.529    -8271825.73649  -6386759.39745  23911727.535    23911736.941
       211.000         152.000
  20752732.749     2097716.55549   1646085.92047  20752732.202    20752738.513
       243.000         212.000
  24489202.353    -3615746.85649  -2470309.53045  24489201.648    24489210.409
       210.000         142.000
  22101799.206    -6127561.68349  -4757518.41347  22101799.193    22101806.002
       232.000         189.000
 99  1  2  0 57 30.0000000  0  8G 4G 2G26G27G24G 7G 5G 9
  21440180.106    -6493361.84249  -5008682.25347  21440180.352    21440186.440
       239.000         197.000
  22003947.838     2466647.54449   1934143.04847  22003947.084    22003953.876
       234.000         193.000
  23481592.374     3347301.86649   2614243.63546  23481591.912    23481599.317
       218.000         163.000
  23940058.536     9218422.07949   7179421.87045  23940059.422    23940066.655
       214.000         151.000
  23891147.078    -8379975.91149  -6471032.09345  23891145.734    23891155.477
       211.000         151.000
  20760872.048     2140488.79749   1679414.96547  20760871.508    20760877.688
       243.000         212.000
  24473949.638    -3695899.52349  -2532765.81345  24473948.988    24473958.031
       208.000         142.000
  22088410.977    -6197917.60749  -4812341.14947  22088411.091    22088417.152
       233.000         190.000
 99  1  2  0 58  0.0000000  0  8G 4G 2G26G27G24G 7G 5G 9
  21426358.647    -6565993.99349  -5065278.66647  21426358.631    21426364.936
       239.000         197.000
  22011854.918     2508199.85249   1966521.48347  22011853.961    22011861.123
       235.000         192.000
  23494067.071     3412857.33749   2665325.80645  23494066.756    23494074.221
       216.000         160.000
  23961896.773     9333181.54949   7268844.85145  23961896.724    23961906.170
       215.000         154.000
  23870574.506    -8488085.01549  -6555272.75445  23870574.005    23870584.345
       211.000         152.000
  20769057.691     2183505.08449   1712934.17547  20769057.281    20769063.514
       243.000         212.000
  24458688.371    -3776096.30049  -2595256.44345  24458687.213    24458695.457
       206.000         143.000
  22075092.921    -6267905.26749  -4866876.93047  22075093.291    22075099.196
       235.000         191.000
 99  1  2  0 58 30.0000000  0  8G 4G 2G26G27G24G 7G 5G 9
  21412610.916    -6638238.36549  -5121572.91247  21412610.868    21412617.065
       240.000         197.000
  22019799.769     2549949.85149   1999053.94647  22019799.360    22019806.182
       234.000         193.000
  23506581.210     3478619.73049   2716569.19845  23506581.592    23506589.334
       218.000         159.000
  23983754.183     9448044.07249   7358348.05545  23983753.153    23983763.072
       207.000         151.000
  23850006.048    -8596172.66549  -6639496.72645  23850006.204    23850014.910
       212.000         152.000
  20777281.633     2226722.36049   1746609.99247  20777281.218    20777287.435
       243.000         212.000
  24443422.195    -3856320.59449  -2657768.56145  24443422.051    24443430.554
       205.000         144.000
  22061844.534    -6337526.33049  -4921127.04147  22061843.873    22061850.456
       233.000         191.000
 99  1  2  0 59  0.0000000  0  8G 4G 2G26G27G24G 7G 5G 9
  21398943.606    -6710060.04449  -5177537.78647  21398943.480    21398949.673
       238.000         197.000
  22027781.911     2591896.84949   2031739.94847  22027780.765    22027788.517
       233.000         192.000
  23519133.330     3544581.54449   2767967.99445  23519132.733    23519142.111
       215.000         159.000
  24005630.275     9563005.57249   7447928.41545  24005631.107    24005637.978
       213.000         150.000
  23829442.569    -8704233.99349  -6723700.13745  23829442.420    23829451.554
       214.000         153.000
  20785546.104     2270152.48749   1780451.67347  20785545.446    20785551.902
       243.000         212.000
  24428154.135    -3936553.77649  -2720287.61145  24428153.291    24428161.866
       208.000         143.000
  22048667.853    -6406769.38249  -4975082.59147  22048667.665    22048673.801
       233.000         191.000
 99  1  2  0 59 30.0000000  0  8G 4G 2G26G27G24G 7G 5G 9
  21385364.663    -6781416.95149  -5233140.50647  21385364.710    21385371.507
       237.000         197.000
  22035805.058     2634059.00549   2064593.58847  22035804.800    22035811.303
       234.000         193.000
  23531725.842     3610757.20549   2819533.41045  23531726.145    23531734.176
       212.000         155.000
  24027530.114     9678090.25049   7537604.77845  24027530.107    24027538.856
       213.000         152.000
  23808888.664    -8812246.78149  -6807865.72345  23808888.440    23808897.441
       215.000         153.000
  20793856.030     2313821.58649   1814479.56747  20793855.513    20793861.896
       243.000         212.000
  24412888.073    -4016776.33549  -2782798.44245  24412887.530    24412896.267
       208.000         142.000
  22035571.070    -6475593.34349  -5028711.58747  22035570.992    22035577.052
       234.000         191.000
 99  1  2  1  0  0.0000000  0  8G 4G 2G26G27G24G 7G 5G 9
  21371874.015    -6852310.30449  -5288382.01547  21371874.769    21371880.303
       238.000         197.000
  22043867.379     2676426.65249   2097607.34847  22043867.328    22043873.622
       234.000         192.000
  23544356.651     3677132.05849   2871254.08545  23544357.211    23544364.431
       218.000         156.000
  24049453.073     9793295.20649   7627374.84845  24049452.520    24049461.014
       209.000         151.000
  23788342.322    -8920219.99949  -6892000.41945  23788341.024    23788350.013
       215.000         153.000
  20802207.135     2357707.21249   1848676.17947  20802206.742    20802213.113
       243.000         212.000
  24397621.287    -4097003.15749  -2845312.59845  24397620.479    24397629.271
       210.000         143.000
  22022549.219    -6544023.64049  -5082033.83547  22022548.637    22022554.791
       234.000         191.000
 99  1  2  1  0 30.0000000  0  8G 4G 2G26G27G24G 7G 5G 9
  21358475.207    -6922721.46749  -5343247.78747  21358475.605    21358481.589
       239.000         198.000
  22051973.756     2719025.82449   2130801.52447  22051972.997    22051979.917
       233.000         192.000
  23557029.269     3743726.08049   2923145.52045  23557029.198    23557037.451
       216.000         159.000
  24071400.924     9908632.73549   7717248.22045  24071400.926    24071409.450
       209.000         147.000
  23767806.937    -9028133.25949  -6976088.43245  23767804.401    23767816.585
       212.000         152.000
  20810604.461     2401835.20549   1883061.64947  20810603.839    20810610.411
       243.000         212.000
  24382357.053    -4177215.60249  -2907815.56045  24382355.976    24382364.511
       210.000         141.000
  22009600.700    -6612068.09049  -5135055.40847  22009600.750    22009607.025
       235.000         193.000
 99  1  2  1  1  0.0000000  0  8G 4G 2G26G27G24G 7G 5G 9
  21345168.865    -6992646.29249  -5397734.60247  21345168.777    21345175.373
       238.000         198.000
  22060129.213     2761883.55849   2164197.18747  22060129.360    22060135.272
       235.000         192.000
  23569745.324     3810549.88849   2975215.97245  23569746.094    23569754.299
       218.000         160.000
  24093375.003    10024107.31949   7807228.39945  24093375.653    24093384.320
       213.000         150.000
  23747288.420    -9135957.60149  -7060107.14245  23747286.366    23747295.970
       213.000         151.000
  20819052.524     2446230.20849   1917655.18747  20819051.780    20819058.327
       242.000         211.000
  24367093.105    -4257426.92749  -2970317.65345  24367093.392    24367101.177
       211.000         141.000
  21996725.336    -6679728.53249  -5187777.76647  21996725.384    21996731.259
       235.000         194.000
 99  1  2  1  1 30.0000000  0  8G 4G 2G26G27G24G 7G 5G 9
  21331952.236    -7062099.97149  -5451854.28947  21331952.487    21331958.790
       239.000         198.000
  22068335.007     2805004.87549   2197798.21547  22068334.440    22068341.554
       233.000         192.000
  23582504.538     3877599.72449   3027462.59946  23582504.902    23582513.383
       220.000         163.000
  24115374.595    10139714.66249   7897312.01745  24115374.214    24115381.948
       209.000         148.000
  23726786.550    -9243694.80349  -7144057.91645  23726786.138    23726794.525
       214.000         152.000
  20827548.839     2490879.32749   1952446.73047  20827548.378    20827554.755
       243.000         211.000
  24351826.606    -4337652.61649  -3032830.96045  24351826.641    24351834.278
       211.000         141.000
  21983920.390    -6747018.60449  -5240211.52247  21983919.809    21983926.397
       235.000         194.000
 99  1  2  1  2  0.0000000  0  8G 4G 2G26G27G24G 7G 5G 9
  21318821.867    -7131100.46449  -5505620.84147  21318821.877    21318828.366
       238.000         198.000
  22076587.803     2848373.33349   2231591.84347  22076587.516    22076593.895
       234.000         191.000
  23595302.894     3944855.07749   3079869.35845  23595304.181    23595311.247
       217.000         162.000
  24137397.028    10255443.15749   7987490.00545  24137396.668    24137405.211
       211.000         148.000
  23706297.418    -9351363.69849  -7227955.50845  23706297.332    23706305.353
       212.000         151.000
  20836092.560     2535776.87949   1987431.85847  20836091.654    20836098.065
       242.000         211.000
  24336554.456    -4417907.08349  -3095366.68445  24336552.545    24336562.467
       212.000         141.000
  21971183.360    -6813951.89949  -5292367.26447  21971183.306    21971189.391
       235.000         193.000
 99  1  2  1  2 30.0000000  0  8G 4G 2G26G27G24G 7G 5G 9
  21305776.855    -7199651.64749  -5559037.28547  21305776.798    21305783.157
       239.000         198.000
  22084885.074     2891976.78049   2265568.56347  22084885.202    22084892.007
       234.000         192.000
  23608139.622     4012313.19849   3132434.11545  23608139.495    23608147.386
       213.000         160.000
  24159444.534    10371303.29549   8077770.62845  24159444.275    24159451.451
       209.000         147.000
  23685821.368    -9458963.95949  -7311799.60445  23685818.989    23685829.376
       205.000         151.000
  20844684.184     2580926.98949   2022613.79147  20844683.406    20844689.695
       243.000         211.000
  24321276.824    -4498191.16549  -3157925.49045  24321275.691    24321283.884
       207.000         140.000
  21958519.329    -6880501.63349  -5344224.13747  21958519.383    21958525.187
       236.000         194.000
 99  1  2  1  3  0.0000000  0  8G 4G 2G26G27G24G 7G 5G 9
  21292816.623    -7267757.82049  -5612106.97047  21292816.950    21292822.924
       239.000         199.000
  22093225.563     2935806.05849   2299721.26747  22093224.919    22093231.614
       232.000         191.000
  23621012.077     4079958.38349   3185144.60645  23621013.363    23621020.646
       217.000         161.000
  24181517.391    10487298.10149   8168156.16445  24181516.674    24181525.839
       206.000         144.000
  23665358.211    -9566497.08949  -7395591.41345  23665357.734    23665366.907
       212.000         151.000
  20853320.497     2626311.51949   2057978.38447  20853320.037    20853326.475
       242.000         211.000
  24305990.336    -4578520.40649  -3220519.44245  24305990.383    24305997.082
       211.000         140.000
  21945932.351    -6946646.95749  -5395765.88747  21945931.668    21945938.108
       234.000         193.000
 99  1  2  1  3 30.0000000  0  8G 4G 2G26G27G24G 7G 5G 9
  21279942.752    -7335410.33849  -5664823.15447  21279942.422    21279949.003
       239.000         199.000
  22101607.193     2979852.04049   2334042.82547  22101606.906    22101614.132
       234.000         191.000
  23633919.814     4147788.94749   3237999.59245  23633920.747    23633928.247
       218.000         162.000
  24203616.517    10603431.55249   8258649.76745  24203615.456    24203625.753
       208.000         147.000
  23644907.458    -9673966.14649  -7479333.26145  23644907.121    23644915.444
       212.000         151.000
  20862002.328     2671934.75749   2093528.98447  20862001.757    20862008.122
       242.000         211.000
  24290697.282    -4658884.78649  -3283140.78245  24290696.591    24290704.977
       210.000         141.000
  21933424.644    -7012374.18649  -5446981.84047  21933424.626    21933430.366
       235.000         193.000
 99  1  2  1  4  0.0000000  0  8G 4G 2G26G27G24G 7G 5G 9
  21267153.909    -7402615.75349  -5717190.95247  21267154.206    21267160.211
       239.000         199.000
  22110029.324     3024111.18149   2368530.46647  22110028.856    22110035.424
       232.000         190.000
  23646863.335     4215807.09349   3291000.73645  23646862.877    23646872.282
       216.000         162.000
  24225743.100    10719707.79649   8349254.61345  24225743.976    24225752.043
       207.000         147.000
  23624470.032    -9781363.77149  -7563019.46645  23624469.520    23624477.793
       211.000         151.000
  20870728.282     2717790.17049   2129260.49647  20870727.966    20870734.285
       242.000         211.000
  24275400.494    -4739269.58549  -3345778.01445  24275399.710    24275406.753
       213.000         143.000
  21920997.127    -7077681.32649  -5497870.45947  21920996.820    21921002.904
       235.000         194.000
 99  1  2  1  4 30.0000000  0  8G 4G 2G26G27G24G 7G 5G 9
  21254447.830    -7469386.45649  -5769220.00147  21254447.772    21254454.152
       239.000         200.000
  22118490.555     3068574.88349   2403177.52847  22118490.258    22118497.332
       232.000         190.000
  23659842.873     4284014.95549   3344149.71046  23659843.171    23659851.628
       218.000         163.000
  24247892.418    10836103.85849   8439952.80045  24247892.973    24247902.233
       209.000         144.000
  23604046.405    -9888688.84549  -7646649.17645  23604045.080    23604054.665
       212.000         150.000
  20879494.085     2763854.69849   2165154.95947  20879494.047    20879499.912
       243.000         211.000
  24260098.093    -4819682.69549  -3408437.31945  24260097.584    24260105.783
       213.000         145.000
  21908645.768    -7142587.77449  -5548446.84447  21908645.340    21908651.696
       234.000         194.000
 99  1  2  1  5  0.0000000  0  8G 4G 2G26G27G24G 7G 5G 9
  21241827.742    -7535705.14349  -5820896.84347  21241827.949    21241833.827
       239.000         200.000
  22126994.776     3113265.41149   2438001.32147  22126994.261    22127000.625
       232.000         189.000
  23672858.401     4352411.99249   3397446.10346  23672858.721    23672866.213
       220.000         164.000
  24270061.337    10952600.95249   8530729.73645  24270062.086    24270069.864
       207.000         141.000
  23583639.922    -9995924.84949  -7730209.47145  23583638.986    23583647.735
       213.000         150.000
  20888302.927     2810145.09549   2201225.42447  20888302.519    20888308.634
       242.000         210.000
  24244792.149    -4900114.15549  -3471110.90645  24244791.920    24244799.518
       214.000         145.000
  21896368.767    -7207103.63049  -5598718.86247  21896368.480    21896374.532
       235.000         194.000
 99  1  2  1  5 30.0000000  0  8G 4G 2G26G27G24G 7G 5G 9
  21229292.349    -7601579.06349  -5872227.10347  21229292.577    21229298.579
       240.000         200.000
  22135540.071     3158171.41849   2472993.02447  22135539.065    22135546.365
       231.000         189.000
  23685908.951     4420992.60649   3450885.52945  23685908.986    23685916.962
       216.000         161.000
  24292245.844    11069179.36049   8621570.04345  24292245.888    24292254.441
       210.000         144.000
  23563249.220   -10103078.28449  -7813705.45245  23563249.232    23563257.415
       211.000         152.000
  20897154.562     2856660.69049   2237471.36847  20897153.951    20897160.326
       242.000         210.000
  24229484.265    -4980557.29049  -3533793.62645  24229482.628    24229491.640
       211.000         145.000
  21884163.306    -7271243.56849  -5648697.96647  21884163.239    21884169.261
       236.000         195.000
 99  1  2  1  6  0.0000000  0  8G 4G 2G26G27G24G 7G 5G 9
  21216839.572    -7667018.50649  -5923218.81747  21216839.797    21216846.032
       239.000         200.000
  22144125.008     3203285.74649   2508147.05847  22144124.642    22144131.581
       232.000         189.000
  23698992.419     4489747.47549   3504460.71645  23698992.799    23699001.779
       216.000         161.000
  24314443.266    11185826.79749   8712464.12345  24314442.821    24314451.956
       208.000         144.000
  23542873.128   -10210154.32749  -7897141.16045  23542872.159    23542881.187
       210.000         152.000
  20906046.306     2903387.31349   2273881.74547  20906045.886    20906051.969
       242.000         210.000
  24214174.069    -5061011.04549  -3596484.65545  24214173.277    24214181.528
       210.000         146.000
  21872028.396    -7335012.77449  -5698388.19347  21872028.000    21872034.026
       235.000         195.000
 99  1  2  1  6 30.0000000  0  8G 4G 2G26G27G24G 7G 5G 9
  21204472.167    -7732009.43649  -5973861.03847  21204472.279    21204478.259
       240.000         201.000
  22152749.594     3248608.32949   2543463.36147  22152749.101    22152755.621
       232.000         188.000
  23712104.772     4558652.83849   3558153.20345  23712105.451    23712113.511
       214.000         161.000
  24336651.512    11302530.73249   8803402.22245  24336650.368    24336659.416
       203.000         139.000
  23522510.911   -10317156.62749  -7980519.37545  23522510.735    23522518.859
       214.000         152.000
  20914979.053     2950329.47849   2310460.08547  20914978.292    20914984.710
       242.000         209.000
  24198858.631    -5141494.18249  -3659198.57645  24198858.109    24198865.971
       209.000         145.000
  21859966.022    -7398400.64049  -5747781.26447  21859965.581    21859971.445
       235.000         194.000
 99  1  2  1  7  0.0000000  0  8G 4G 2G26G27G24G 7G 5G 9
  21192178.685    -7796612.19949  -6024200.79347  21192178.690    21192185.057
       240.000         201.000
  22161403.586     3294085.30049   2578899.96246  22161402.760    22161409.922
       232.000         187.000
  23725231.086     4627632.99049   3611903.98645  23725231.054    23725240.445
       215.000         160.000
  24358860.802    11419241.27949   8894345.45745  24358860.642    24358869.263
       207.000         140.000
  23502151.211   -10424146.08649  -8063887.60745  23502150.630    23502160.398
       214.000         154.000
  20923940.853     2997423.92649   2347157.07347  20923940.407    20923946.700
       242.000         209.000
  24183525.544    -5222069.23949  -3721984.15945  24183524.115    24183533.225
       207.000         145.000
  21847967.791    -7461451.15849  -5796911.48447  21847967.767    21847973.445
       237.000         195.000
 99  1  2  1  7 30.0000000  0  7G 4G 2G26G24G 7G 5G 9
  21180015.003    -7860532.70549  -6074008.92447  21180015.091    21180021.514
       240.000         202.000
  22170141.243     3340001.77649   2614679.04446  22170141.051    22170148.173
       232.000         187.000
  23738430.513     4696996.08449   3665953.11045  23738432.085    23738440.118
       217.000         160.000
  23481848.740   -10530834.04349  -8147020.93745  23481848.744    23481858.020
       217.000         155.000
  20932984.306     3044947.77749   2384188.66247  20932983.797    20932990.038
       242.000         209.000
  24168232.236    -5302434.67749  -3784606.40045  24168231.611    24168239.098
       205.000         143.000
  21836092.373    -7523856.58949  -5845539.02847  21836092.208    21836098.456
       236.000         195.000
 99  1  2  1  8  0.0000000  0  7G 4G 2G26G24G 7G 5G 9
  21167909.883    -7924144.96749  -6123576.86347  21167910.131    21167916.224
       240.000         202.000
  22178888.356     3385968.05449   2650496.93146  22178888.095    22178894.606
       232.000         187.000
  23751628.613     4766351.99249   3719996.63145  23751628.919    23751637.080
       219.000         161.000
  23461531.097   -10637603.23749  -8230217.53445  23461530.730    23461537.999
       215.000         154.000
  20942034.842     3092508.65649   2421249.11147  20942034.591    20942040.946
       243.000         209.000
  24152903.939    -5382984.78849  -3847372.60445  24152902.803    24152912.274
       206.000         143.000
  21824269.397    -7585986.79249  -5893952.11547  21824269.083    21824274.863
       237.000         195.000
 99  1  2  1  8 30.0000000  0  7G 4G 2G26G24G 7G 5G 9
  21155897.755    -7987269.27349  -6172764.56447  21155897.837    21155904.008
       241.000         202.000
  22187677.402     3432154.91249   2686486.71046  22187676.811    22187683.911
       232.000         187.000
  23764855.846     4835860.99349   3774159.49345  23764856.332    23764864.336
       220.000         161.000
  23441231.450   -10744278.15049  -8313340.66645  23441229.295    23441240.862
       215.000         154.000
  20951124.084     3140272.85849   2458467.98947  20951123.939    20951129.802
       243.000         209.000
  24137568.941    -5463569.74449  -3910165.92845  24137567.820    24137576.433
       207.000         145.000
  21812529.929    -7647677.58549  -5942022.80247  21812529.750    21812536.178
       237.000         196.000
 99  1  2  1  9  0.0000000  0  7G 4G 2G26G24G 7G 5G 9
  21143993.749    -8049825.27849  -6221509.44347  21143993.828    21143999.743
       241.000         203.000
  22196522.390     3478635.66249   2722705.47246  22196522.127    22196528.810
       231.000         187.000
  23778130.884     4905620.94149   3828517.89445  23778131.682    23778139.167
       221.000         162.000
  23420966.462   -10850771.38749  -8396322.30745  23420963.714    23420974.986
       212.000         154.000
  20960269.093     3188329.75249   2495914.94347  20960268.568    20960275.080
       242.000         209.000
  24122245.282    -5544095.45149  -3972913.12745  24122244.438    24122252.518
       206.000         145.000
  21800889.386    -7708848.90749  -5989688.70247  21800889.258    21800895.198
       237.000         196.000
 99  1  2  1  9 30.0000000  0  7G 4G 2G26G24G 7G 5G 9
  21132192.115    -8111843.30349  -6269835.11547  21132192.198    21132197.895
       241.000         203.000
  22205414.055     3525361.79549   2759115.45746  22205413.852    22205420.746
       231.000         186.000
  23791443.182     4975577.32049   3883029.33846  23791443.576    23791452.895
       219.000         164.000
  23400728.644   -10957120.85949  -8479191.88945  23400727.813    23400736.240
       214.000         157.000
  20969464.084     3236649.99349   2533567.09847  20969463.532    20969469.768
       242.000         209.000
  24106926.726    -5624594.87649  -4035639.85845  24106927.172    24106933.870
       210.000         146.000
  21789340.266    -7769540.06749  -6036980.46547  21789339.964    21789346.009
       237.000         196.000
 99  1  2  1 10  0.0000000  0  7G 4G 2G26G24G 7G 5G 9
  21120493.847    -8173317.69049  -6317737.17947  21120494.056    21120499.926
       240.000         203.000
  22214355.785     3572350.69549   2795730.19146  22214355.312    22214361.830
       232.000         186.000
  23804790.176     5045716.23249   3937683.02545  23804790.546    23804797.968
       221.000         162.000
  23380521.365   -11063310.55349  -8561936.94845  23380522.791    23380530.469
       217.000         158.000
  20978713.280     3285255.14249   2571441.25647  20978712.939    20978718.920
       242.000         209.000
  24091612.790    -5705070.55149  -4098348.12645  24091613.623    24091619.750
       211.000         147.000
  21777882.790    -7829749.02849  -6083896.49647  21777882.436    21777888.324
       237.000         196.000
 99  1  2  1 10 30.0000000  0  7G 4G 2G26G24G 7G 5G 9
  21108897.701    -8234255.08349  -6365220.80147  21108897.994    21108903.973
       241.000         203.000
  22223348.255     3619605.94349   2832552.47446  22223347.916    22223354.401
       232.000         185.000
  23818169.051     5116021.91349   3992466.66645  23818169.654    23818176.939
       222.000         162.000
  23360343.397   -11169347.01349  -8644562.63545  23360343.880    23360352.223
       220.000         157.000
  20988014.542     3334133.49849   2609528.30547  20988014.240    20988020.033
       242.000         208.000
  24076303.419    -5785521.27749  -4161036.92845  24076302.623    24076310.302
       211.000         147.000
  21766513.681    -7889493.76949  -6130450.78347  21766513.166    21766519.083
       237.000         195.000
 99  1  2  1 11  0.0000000  0  7G 4G 2G26G24G 7G 5G 9
  21097398.450    -8294684.15649  -6412308.33447  21097398.435    21097404.426
       241.000         203.000
  22232388.538     3667112.32049   2869570.44546  22232387.648    22232394.775
       231.000         186.000
  23831576.089     5186475.84549   4047365.82345  23831576.553    23831584.426
       218.000         162.000
  23340189.089   -11275258.84349  -8727091.18845  23340190.542    23340196.502
       223.000         157.000
  20997361.463     3383252.25149   2647802.67447  20997361.079    20997367.602
       242.000         208.000
  24060998.696    -5865948.14249  -4223707.14945  24060998.667    24061004.844
       210.000         147.000
  21755230.146    -7948788.79949  -6176654.64747  21755230.148    21755235.857
       238.000         196.000
 99  1  2  1 11 30.0000000  0  7G 4G 2G26G24G 7G 5G 9
  21085991.602    -8354627.26949  -6459017.19847  21085991.722    21085997.586
       241.000         204.000
  22241475.131     3714863.20949   2906778.94346  22241474.747    22241480.676
       231.000         185.000
  23845004.443     5257043.25649   4102353.41345  23845004.617    23845011.758
       217.000         159.000
  23320055.099   -11381064.18949  -8809536.72645  23320055.462    23320062.536
       221.000         158.000
  21006745.098     3432563.65849   2686227.16247  21006744.763    21006750.669
       242.000         208.000
  24045691.475    -5946387.85949  -4286387.32945  24045691.024    24045698.951
       213.000         147.000
  21744026.718    -8007663.06949  -6222530.64647  21744026.394    21744032.280
       237.000         196.000
 99  1  2  1 12  0.0000000  0  7G 4G 2G26G24G 7G 5G 9
  21074676.516    -8414088.24049  -6505350.36347  21074676.505    21074682.263
       241.000         204.000
  22250609.217     3762863.49449   2944181.77146  22250608.135    22250616.108
       228.000         185.000
  23858457.707     5327740.66949   4157442.29745  23858457.234    23858466.263
       219.000         159.000
  23299942.232   -11486757.45149  -8891894.96045  23299942.026    23299951.149
       221.000         160.000
  21016162.372     3482051.54649   2724789.17447  21016161.724    21016168.310
       242.000         208.000
  24030378.111    -6026859.52649  -4349092.40345  24030378.465    24030385.029
       213.000         150.000
  21732900.706    -8066130.07449  -6268089.29947  21732900.616    21732906.342
       238.000         197.000
 99  1  2  1 12 30.0000000  0  7G 4G 2G26G24G 7G 5G 9
  21063448.592    -8473091.00549  -6551326.49047  21063449.038    21063454.618
       242.000         204.000
  22259785.013     3811083.33249   2981755.68746  22259784.782    22259791.058
       230.000         184.000
  23871933.044     5398554.06049   4212621.53445  23871933.294    23871940.843
       218.000         159.000
  23279847.374   -11592355.26449  -8974178.84545  23279846.997    23279855.403
       219.000         159.000
  21025605.155     3531674.15949   2763456.15647  21025604.797    21025610.824
       242.000         207.000
  24015055.148    -6107381.34749  -4411836.53345  24015054.544    24015061.966
       215.000         151.000
  21721848.026    -8124212.07649  -6313347.96047  21721847.898    21721853.551
       237.000         197.000
 99  1  2  1 13  0.0000000  0  7G 4G 2G26G24G 7G 5G 9
  21052305.726    -8531647.25949  -6596954.68847  21052305.842    21052311.818
       242.000         204.000
  22269000.568     3859511.22249   3019491.70446  22269000.372    22269007.434
       230.000         184.000
  23885431.625     5469489.44749   4267895.82745  23885432.889    23885439.344
       219.000         158.000
  23259771.802   -11697851.42149  -9056383.46945  23259768.937    23259778.720
       216.000         160.000
  21035073.918     3581432.98549   2802229.28247  21035073.442    21035079.900
       242.000         207.000
  23999720.186    -6187967.17749  -4474630.53845  23999720.010    23999726.820
       213.000         150.000
  21710868.499    -8181909.74549  -6358307.14047  21710868.449    21710874.227
       237.000         197.000
 99  1  2  1 13 30.0000000  0  7G 4G 2G26G24G 7G 5G 9
  21041250.641    -8589742.01949  -6642223.27847  21041250.605    21041256.655
       241.000         204.000
  22278256.398     3908151.42049   3057393.19246  22278256.014    22278262.758
       230.000         184.000
  23898954.145     5540550.80749   4323268.31045  23898955.238    23898961.039
       215.000         153.000
  23239720.305   -11803222.49449  -9138490.65445  23239719.057    23239728.707
       219.000         161.000
  21044572.637     3631348.88749   2841124.81147  21044572.066    21044578.407
       242.000         207.000
  23984372.028    -6268621.27849  -4537477.70245  23984371.325    23984379.215
       215.000         151.000
  21699963.622    -8239214.94949  -6402960.49647  21699963.738    21699969.372
       238.000         198.000
 99  1  2  1 14  0.0000000  0  8G 4G 2G26G24G 8G 7G 5G 9
  21030288.742    -8647346.35449  -6687109.72447  21030288.934    21030295.063
       241.000         204.000
  22287556.495     3957024.71449   3095476.27346  22287556.386    22287563.204
       230.000         184.000
  23912505.248     5611762.91349   4378758.28345  23912506.306    23912513.751
       213.000         150.000
  23219698.354   -11908439.43449  -9220477.79345  23219697.448    23219706.859
       218.000         161.000

       202.000          74.000
  21054108.394     3681459.93649   2880172.39547  21054107.954    21054114.219
       242.000         207.000
  23969019.206    -6349299.98449  -4600344.01845  23969018.384    23969024.763
       215.000         151.000
  21689140.245    -8296092.42349  -6447280.55947  21689140.241    21689145.796
       238.000         198.000
 99  1  2  1 14 30.0000000  0  8G 4G 2G26G24G 8G 7G 5G 9
  21019415.089    -8704487.67449  -6731635.37747  21019415.252    21019421.030
       242.000         204.000
  22296895.196     4006099.36249   3133716.27446  22296894.951    22296901.115
       230.000         183.000
  23926076.484     5683081.03749   4434330.80345  23926077.401    23926086.159
       212.000         149.000
  23199698.736   -12013536.77449  -9302371.67945  23199698.173    23199704.234
       218.000         162.000

       201.000          74.000
  21063674.942     3731732.73649   2919346.02447  21063674.212    21063680.747
       241.000         207.000
  23953658.914    -6430018.92249  -4663241.66545  23953659.027    23953665.500
       214.000         152.000
  21678394.876    -8352559.63449  -6491280.94247  21678394.780    21678400.544
       238.000         199.000
 99  1  2  1 15  0.0000000  0  8G 4G 2G26G24G 8G 7G 5G 9
  21008631.747    -8761154.25949  -6775791.10647  21008631.897    21008637.393
       242.000         204.000
  22306273.525     4055382.64649   3172118.83846  22306273.568    22306279.848
       230.000         183.000
  23939666.576     5754497.35349   4489979.84345  23939667.113    23939675.865
       211.000         148.000
  23179720.517   -12118521.75749  -9384177.96546  23179719.764    23179728.929
       220.000         163.000
                  -1101236.98144                                  24203613.846
       200.000         121.000
  21073276.086     3782187.14149   2958661.15947  21073276.085    21073282.254
       242.000         207.000
  23938291.517    -6510773.44249  -4726167.02845  23938290.167    23938298.744
       214.000         151.000
  21667729.771    -8408605.01649  -6534952.62747  21667729.813    21667735.205
       238.000         199.000
 99  1  2  1 15 30.0000000  0  8G 4G 2G26G24G 8G 7G 5G 9
  20997945.619    -8817309.97849  -6819548.76347  20997945.855    20997951.510
       242.000         205.000
  22315698.745     4104912.80949   3210713.77546  22315697.934    22315705.328
       228.000         183.000
  23953278.421     5826028.46949   4545718.40945  23953276.252    23953285.777
       205.000         144.000
  23159767.921   -12223372.57549  -9465879.78846  23159768.186    23159777.492
       219.000         163.000
  24183252.193    -2061547.78149  -1184582.12744  24183250.944    24183257.844
       201.000         125.000
  21082916.934     3832849.93749   2998138.67447  21082916.511    21082922.813
       241.000         207.000
  23922926.391    -6591516.83649  -4789083.76145  23922925.413    23922933.259
       216.000         152.000
  21657150.955    -8464197.14849  -6578271.13147  21657150.617    21657156.221
       238.000         199.000
 99  1  2  1 16  0.0000000  0  8G 4G 2G26G24G 8G 7G 5G 9
  20987354.055    -8872968.38649  -6862918.90147  20987354.397    20987360.374
       241.000         205.000
  22325166.939     4154668.82049   3249484.72046  22325167.448    22325173.141
       232.000         183.000
  23966909.113     5897659.28249   4601534.58245  23966908.504    23966918.502
       205.000         142.000
  23139837.498   -12328106.40749  -9547490.41046  23139837.684    23139844.349
       221.000         163.000
  24162924.746    -2168369.49649  -1267819.66844  24162923.276    24162931.444
       198.000         126.000
  21092592.937     3883697.96649   3037760.53147  21092592.642    21092598.746
       241.000         207.000
  23907564.500    -6672243.21049  -4851987.20945  23907563.298    23907571.574
       218.000         154.000
  21646656.393    -8519345.81649  -6621244.07547  21646656.142    21646661.880
       239.000         199.000
 99  1  2  1 16 30.0000000  0  8G 4G 2G26G24G 8G 7G 5G 9
  20976861.451    -8928107.05249  -6905884.04647  20976861.781    20976867.406
       242.000         205.000
  22334679.895     4204658.65549   3288437.82746  22334679.623    22334686.015
       231.000         183.000
  23980560.618     5969397.81849   4657434.71345  23980561.743    23980568.903
       210.000         142.000
  23119930.822   -12432716.25549  -9629004.40346  23119931.255    23119938.415
       222.000         164.000
  24142628.076    -2275028.44349  -1350930.41044  24142624.869    24142634.995
       197.000         123.000
  21102308.968     3934755.99249   3077546.01847  21102308.346    21102314.656
       241.000         206.000
  23892206.767    -6752948.59349  -4914874.32345  23892206.400    23892213.001
       219.000         155.000
  21636249.245    -8574036.04749  -6663859.79947  21636248.937    21636254.783
       237.000         199.000
 99  1  2  1 17  0.0000000  0  8G 4G 2G26G24G 8G 7G 5G 9
  20966469.997    -8982714.75849  -6948435.45847  20966470.195    20966475.954
       241.000         205.000
  22344238.591     4254888.95349   3327578.33046  22344237.846    22344243.944
       229.000         183.000
  23994231.489     6041237.81349   4713413.92745  23994232.009    23994239.595
       205.000         144.000
  23100050.227   -12537189.40549  -9710411.90746  23100049.648    23100058.126
       221.000         165.000
  24122366.814    -2381503.65949  -1433897.97744  24122365.584    24122372.117
       197.000         120.000
  21112067.242     3986036.24749   3117504.68147  21112066.650    21112073.052
       240.000         206.000
  23876854.468    -6833624.73849  -4977738.64945  23876853.668    23876860.995
       220.000         157.000
  21625930.526    -8628260.98349  -6706112.95547  21625930.320    21625935.983
       238.000         200.000
 99  1  2  1 17 30.0000000  0  8G 4G 2G26G24G 8G 7G 5G 9
  20956182.250    -9036776.88249  -6990561.74347  20956182.607    20956187.939
       241.000         205.000
  22353842.777     4305359.48849   3366906.02946  22353842.867    22353849.375
       229.000         182.000
  24007921.954     6113181.60749   4769474.01145  24007923.111    24007929.839
       214.000         148.000
  23080199.252   -12641505.63849  -9791697.13046  23080196.942    23080206.990
       218.000         164.000
  24102140.562    -2487793.21949  -1516720.90544  24102139.276    24102149.339
       196.000         120.000
  21121865.313     4037525.70749   3157626.34747  21121865.007    21121871.231
       241.000         206.000
  23861506.704    -6914277.60649  -5040584.85745  23861506.483    23861513.109
       219.000         159.000
  21615701.761    -8682013.10249  -6747997.67747  21615701.761    21615707.355
       238.000         200.000
 99  1  2  1 18  0.0000000  0  8G 4G 2G26G24G 8G 7G 5G 9
  20946002.432    -9090271.89649  -7032246.11747  20946002.794    20946008.215
       242.000         205.000
  22363494.087     4356077.40649   3406426.49346  22363493.216    22363500.478
       228.000         182.000
  24021634.020     6185237.51149   4825621.45345  24021633.699    24021641.322
       214.000         152.000
  23060381.893   -12745645.72449  -9872845.07146  23060381.290    23060389.752
       221.000         166.000
  24081954.882    -2593868.26949  -1599376.69144  24081954.850    24081962.519
       196.000         121.000
  21131705.650     4089237.14149   3197920.98347  21131705.095    21131711.407
       241.000         206.000
  23846161.150    -6994917.32249  -5103420.82045  23846160.587    23846167.557
       219.000         159.000
  21605566.609    -8735273.37249  -6789499.13747  21605566.468    21605572.237
       238.000         200.000
 99  1  2  1 18 30.0000000  0  8G 4G 2G26G24G 8G 7G 5G 9
  20935933.124    -9143186.22949  -7073478.01647  20935933.455    20935939.116
       242.000         206.000
  22373195.609     4407059.59349   3446152.86746  22373195.669    22373202.008
       230.000         182.000
  24035365.538     6257396.96249   4881849.58145  24035366.202    24035373.342
       216.000         155.000
  23040599.795   -12849602.11149  -9953849.91446  23040599.455    23040607.136
       222.000         167.000
  24061810.118    -2699730.79149  -1681866.87444  24061809.576    24061816.882
       198.000         121.000
  21141588.176     4141170.20149   3238388.32247  21141588.023    21141594.042
       241.000         205.000
  23830814.897    -7075562.16749  -5166260.81045  23830814.241    23830820.910
       219.000         160.000
  21595526.400    -8788035.11249  -6830612.13947  21595526.418    21595532.101
       239.000         201.000
 99  1  2  1 19  0.0000000  0  8G 4G 2G26G24G 8G 7G 5G 9
  20925974.636    -9195518.33049  -7114256.22547  20925975.009    20925980.775
       242.000         206.000
  22382947.801     4458307.71749   3486086.47146  22382946.898    22382953.547
       227.000         180.000
  24049117.298     6329662.54349   4938160.42045  24049117.562    24049124.692
       217.000         157.000
  23020855.078   -12953361.92649 -10034701.56546  23020855.004    23020861.754
       222.000         167.000
  24041701.604    -2805402.54148  -1764208.40044  24041702.046    24041705.934
       194.000         120.000
  21151507.593     4193297.02349   3279006.63247  21151507.196    21151513.328
       240.000         205.000
  23815470.277    -7156198.49049  -5229094.15945  23815469.813    23815476.598
       220.000         161.000
  21585581.277    -8840296.63149  -6871335.35747  21585580.773    21585587.217
       238.000         201.000
 99  1  2  1 19 30.0000000  0  8G 4G 2G26G24G 8G 7G 5G 9
  20916129.595    -9247254.33249  -7154569.94147  20916130.034    20916135.567
       242.000         206.000
  22392755.184     4509846.57249   3526246.64146  22392754.788    22392761.420
       229.000         180.000
  24062896.426     6402072.40349   4994583.69245  24062896.563    24062904.340
       218.000         158.000
  23001153.767   -13056892.61549 -10115374.63846  23001153.663    23001160.866
       222.000         167.000
  24021632.175    -2910868.49249  -1846389.58644  24021629.442    24021638.161
       198.000         119.000
  21161467.655     4245637.72549   3319791.61647  21161467.111    21161473.431
       240.000         205.000
  23800130.706    -7236807.56049  -5291906.28945  23800129.913    23800137.151
       220.000         161.000
  21575735.939    -8892034.27049  -6911650.34747  21575735.619    21575741.478
       238.000         200.000
 99  1  2  1 20  0.0000000  0  8G 4G 2G26G24G 8G 7G 5G 9
  20906389.626    -9298438.13049  -7194453.37447  20906389.748    20906395.480
       242.000         206.000
  22402614.449     4561657.53949   3566618.83146  22402613.433    22402620.398
       228.000         180.000
  24076698.099     6474600.48149   5051099.06045  24076698.588    24076705.938
       215.000         158.000
  22981490.725   -13160221.42949 -10195890.42346  22981490.485    22981498.255
       224.000         168.000
  24001596.304    -3016158.60049  -1928433.71644  24001594.672    24001599.846
       199.000         121.000
  21171463.788     4298167.84149   3360724.18947  21171463.511    21171469.791
       240.000         205.000
  23784794.449    -7317400.65549  -5354705.97345  23784793.850    23784799.537
       220.000         162.000
  21565984.434    -8943278.21149  -6951580.64847  21565984.090    21565990.068
       238.000         201.000
 99  1  2  1 20 30.0000000  0  8G 4G 2G26G24G 8G 7G 5G 9
  20896749.110    -9349099.07749  -7233929.39247  20896749.351    20896754.720
       242.000         206.000
  22412521.327     4613718.79349   3607186.04446  22412520.915    22412527.819
       229.000         180.000
  24090518.714     6547229.11749   5107692.82745  24090519.231    24090527.709
       216.000         158.000
  22961862.464   -13263368.19749 -10276264.37346  22961861.904    22961870.122
       223.000         168.000
  23981590.656    -3121287.34549  -2010352.19544  23981588.772    23981595.366
       199.000         121.000
  21181489.397     4350852.76149   3401777.39347  21181488.930    21181495.197
       241.000         204.000
  23769460.332    -7397980.73049  -5417495.51445  23769459.586    23769466.365
       220.000         160.000
  21556322.129    -8994053.50449  -6991145.76147  21556321.899    21556327.695
       239.000         201.000
 99  1  2  1 21  0.0000000  0  8G 4G 2G26G24G 8G 7G 5G 9
  20887202.990    -9399263.87249  -7273018.79447  20887203.270    20887209.014
       242.000         206.000
  22422472.663     4666013.29549   3647935.02046  22422471.836    22422479.235
       227.000         180.000
  24104358.506     6619957.58149   5164364.32345  24104359.269    24104367.140
       217.000         158.000
  22942266.917   -13366343.00449 -10356504.32346  22942266.150    22942274.181
       222.000         168.000
  23961619.214    -3226236.39549  -2092130.62244  23961616.178    23961622.017
       198.000         119.000
  21191544.399     4403691.88049   3442950.74447  21191544.299    21191550.144
       241.000         205.000
  23754127.369    -7478555.41649  -5480280.87745  23754126.670    23754134.271
       218.000         160.000
  21546747.328    -9044369.34949  -7030352.86547  21546746.888    21546752.929
       239.000         201.000
 99  1  2  1 21 30.0000000  0  8G 4G 2G26G24G 8G 7G 5G 9
  20877746.130    -9448959.51449  -7311742.62547  20877746.587    20877752.244
       242.000         207.000
  22432466.419     4718531.62349   3688858.39546  22432466.017    22432472.445
       227.000         179.000
  24118214.245     6692770.09849   5221101.33945  24118215.467    24118222.859
       219.000         160.000
  22922699.591   -13469169.27749 -10436628.53446  22922698.906    22922707.042
       221.000         169.000
  23941682.816    -3331001.39849  -2173765.63644  23941681.239    23941686.445
       197.000         117.000
  21201628.524     4456683.81249   3484243.17447  21201628.388    21201634.030
       241.000         205.000
  23738789.243    -7559156.73549  -5543087.00545  23738789.258    23738795.564
       219.000         161.000
  21537256.484    -9094243.97349  -7069216.17047  21537256.448    21537261.860
       239.000         201.000
 99  1  2  1 22  0.0000000  0  8G 4G 2G26G24G 8G 7G 5G 9
  20868380.668    -9498175.52749  -7350092.71747  20868381.010    20868386.496
       243.000         207.000
  22442502.022     4771268.99049   3729952.45446  22442501.210    22442509.066
       228.000         180.000
  24132083.979     6765656.52449   5277895.95845  24132083.386    24132092.841
       213.000         158.000
  22903158.070   -13571859.71449 -10516646.90746  22903155.915    22903166.492
       222.000         169.000
  23921783.056    -3435574.91349  -2255251.39744  23921783.444    23921788.643
       200.000         121.000
  21211740.686     4509823.17349   3525650.48347  21211740.268    21211746.381
       240.000         204.000
  23723445.755    -7639786.56449  -5605915.33445  23723445.490    23723452.250
       219.000         162.000
  21527848.777    -9143681.77949  -7107739.09447  21527848.421    21527854.130
       239.000         202.000
 99  1  2  1 22 30.0000000  0  8G 4G 2G26G24G 8G 7G 5G 9
  20859107.551    -9546906.33249  -7388064.72647  20859107.740    20859113.449
       243.000         207.000
  22452577.714     4824216.40749   3771210.18746  22452576.994    22452583.122
       227.000         179.000
  24145965.612     6838605.67949   5334739.43645  24145966.056    24145974.704
       213.000         153.000
  22883641.893   -13674416.72049 -10596561.30146  22883639.726    22883648.546
       219.000         169.000
  23901922.017    -3539946.17049  -2336579.58244  23901923.393    23901927.951
       202.000         123.000
  21221879.969     4563105.99649   3567169.58547  21221879.279    21221885.641
       240.000         204.000
  23708093.131    -7720464.99049  -5668781.55846  23708093.089    23708098.329
       219.000         163.000
  21518522.359    -9192692.43249  -7145929.17247  21518522.357    21518527.819
       239.000         202.000
 99  1  2  1 23  0.0000000  0  8G 4G 2G26G24G 8G 7G 5G 9
  20849929.830    -9595135.10349  -7425645.53947  20849929.984    20849935.701
       242.000         207.000
  22462695.019     4877382.56849   3812638.38346  22462694.960    22462701.591
       229.000         180.000
  24159861.723     6911629.93249   5391641.42445  24159862.245    24159869.981
       215.000         155.000
  22864154.647   -13776820.81549 -10676356.55846  22864154.145    22864161.921
       221.000         169.000
  23882097.444    -3644124.48149  -2417757.40844  23882097.938    23882105.893
       203.000         125.000
  21232049.082     4616545.34449   3608810.65747  21232048.209    21232054.604
       240.000         204.000
  23692732.555    -7801185.19549  -5731680.32246  23692732.293    23692738.256
       220.000         163.000
  21509280.577    -9241258.49649  -7183772.82547  21509280.175    21509285.848
       239.000         201.000
 99  1  2  1 23 30.0000000  0  8G 4G 2G26G24G 8G 7G 5G 9
  20840853.857    -9642828.97249  -7462809.55047  20840854.157    20840859.703
       243.000         207.000
  22472856.943     4930783.88549   3854249.78946  22472856.545    22472862.596
       226.000         179.000
  24173772.687     6984732.64149   5448604.53645  24173772.915    24173780.473
       216.000         153.000
  22844701.201   -13879048.44749 -10756014.33246  22844701.542    22844709.066
       223.000         170.000
  23862307.412    -3748121.23349  -2498793.75944  23862306.509    23862315.269
       201.000         129.000
  21242247.064     4670136.33249   3650569.88147  21242246.819    21242252.844
       240.000         204.000
  23677368.170    -7881925.30349  -5794594.59046  23677367.300    23677374.080
       220.000         163.000
  21500127.337    -9289358.48649  -7221253.29047  21500127.212    21500133.146
       238.000         202.000
 99  1  2  1 24  0.0000000  0  8G 4G 2G26G24G 8G 7G 5G 9
  20831883.878    -9689966.65349  -7499540.16547  20831884.516    20831889.767
       243.000         208.000
  22483063.417     4984418.83749   3896043.27546  22483063.759    22483069.108
       229.000         179.000
  24187698.320     7057912.14149   5505627.53245  24187697.765    24187706.783
       215.000         150.000
  22825285.796   -13981076.76049 -10835516.78446  22825285.514    22825293.283
       222.000         170.000
  23842555.663    -3851914.98849  -2579671.89845  23842554.683    23842561.783
       203.000         132.000
  21252476.300     4723891.40149   3692456.97547  21252475.737    21252482.003
       240.000         203.000
  23662004.865    -7962659.66449  -5857504.38746  23662004.675    23662010.883
       221.000         164.000
  21491067.462    -9336968.18549  -7258351.71947  21491067.633    21491072.922
       240.000         203.000
 99  1  2  1 24 30.0000000  0  8G 4G 2G26G24G 8G 7G 5G 9
  20823022.452    -9736533.83049  -7535826.23247  20823022.981    20823028.175
       243.000         208.000
  22493316.371     5038297.73249   3938026.81946  22493315.672    22493322.484
       226.000         179.000
  24201639.519     7131173.33649   5562714.16045  24201639.913    24201647.332
       217.000         154.000
  22805913.303   -14082878.78749 -10914842.91346  22805913.555    22805921.546
       222.000         171.000
  23822845.289    -3955493.39349  -2660382.23045  23822845.247    23822852.083
       206.000         138.000
  21262739.380     4777824.16649   3734482.51847  21262738.772    21262745.090
       240.000         203.000
  23646645.076    -8043375.87149  -5920400.02946  23646644.898    23646651.017
       220.000         164.000
  21482104.337    -9384069.83149  -7295054.26747  21482104.019    21482109.418
       240.000         202.000
 99  1  2  1 25  0.0000000  0  8G 4G 2G26G24G 8G 7G 5G 9
  20814274.665    -9782503.55949  -7571646.75847  20814275.037    20814280.600
       243.000         208.000
  22503617.945     5092433.36349   3980210.43246  22503618.219    22503623.139
       228.000         178.000
  24215599.647     7204533.79949   5619878.14945  24215599.629    24215607.834
       215.000         154.000
  22786587.572   -14184435.12349 -10993977.58846  22786587.584    22786594.409
       222.000         172.000
  23803176.980    -4058851.46149  -2740920.83745  23803176.614    23803184.257
       211.000         143.000
  21273039.493     4831951.96749   3776660.04847  21273038.982    21273045.073
       239.000         203.000
  23631294.071    -8124044.84749  -5983258.86246  23631293.546    23631299.439
       220.000         165.000
  21473244.153    -9430629.85449  -7331334.75947  21473244.162    21473249.909
       241.000         203.000
 99  1  2  1 25 30.0000000  0  8G 4G 2G26G24G 8G 7G 5G 9
  20805641.943    -9827868.62049  -7606996.11547  20805642.154    20805647.748
       243.000         208.000
  22513968.726     5146827.33749   4022595.36946  22513967.834    22513975.211
       224.000         177.000
  24229576.749     7277984.19149   5677112.20145  24229576.553    24229584.257
       216.000         151.000
  22767307.562   -14285751.67249 -11072925.42346  22767307.271    22767314.311
       223.000         172.000
  23783554.614    -4161968.83349  -2821271.92145  23783554.328    23783561.797
       209.000         145.000
  21283379.468     4886289.14049   3819000.71547  21283379.213    21283385.141
       239.000         203.000
  23615952.096    -8204667.44549  -6046081.56746  23615951.487    23615957.667
       220.000         165.000
  21464484.933    -9476659.91849  -7367202.30847  21464484.946    21464490.314
       240.000         203.000
 99  1  2  1 26  0.0000000  0  8G 4G 2G26G24G 8G 7G 5G 9
  20797122.792    -9872636.90649  -7641880.45347  20797123.191    20797128.431
       243.000         208.000
  22524368.189     5201476.87849   4065179.42346  22524367.995    22524374.392
       226.000         178.000
  24243569.656     7351516.44949   5734410.07845  24243570.925    24243577.260
       216.000         150.000
  22748071.476   -14386838.24849 -11151694.04446  22748071.928    22748078.044
       224.000         172.000
  23763980.571    -4264830.75349  -2901423.98245  23763979.649    23763985.981
       213.000         146.000
  21293759.095     4940834.26849   3861503.42447  21293758.957    21293764.637
       239.000         203.000
  23600617.535    -8285250.03649  -6108873.08246  23600615.844    23600624.037
       219.000         164.000
  21455823.418    -9522176.74049  -7402669.92947  21455823.283    21455828.832
       240.000         203.000
 99  1  2  1 26 30.0000000  0  8G 4G 2G26G24G 8G 7G 5G 9
  20788715.494    -9916817.55749  -7676306.89747  20788715.812    20788721.213
       243.000         208.000
  22534814.940     5256374.93649   4107957.12846  22534814.832    22534820.391
       224.000         175.000
  24257575.869     7425119.35749   5791762.99745  24257576.299    24257584.184
       212.000         149.000
  22728875.831   -14487711.62749 -11230296.56046  22728875.587    22728883.340
       223.000         173.000
  23744451.050    -4367459.36049  -2981394.20545  23744450.239    23744456.518
       211.000         146.000
  21304172.777     4995558.47749   3904145.69047  21304172.308    21304178.698
       239.000         203.000
  23585284.486    -8365825.41649  -6171658.98046  23585284.128    23585290.826
       221.000         164.000
  21447255.568    -9567200.88549  -7437753.64647  21447255.214    21447260.978
       240.000         204.000
 99  1  2  1 27  0.0000000  0  8G 4G 2G26G24G 8G 7G 5G 9
  20780420.424    -9960408.74649  -7710274.01947  20780420.554    20780426.008
       244.000         209.000
  22545311.862     5311536.87449   4150940.46946  22545311.795    22545318.996
       226.000         176.000
  24271596.774     7498799.82249   5849176.30845  24271598.042    24271606.068
       207.000         146.000
  22709721.521   -14588367.62849 -11308729.69446  22709721.157    22709729.257
       223.000         173.000
  23724967.626    -4469845.16049  -3061175.24045  23724966.937    23724973.909
       213.000         148.000
  21314620.487     5050461.63849   3946927.39147  21314620.016    21314626.420
       240.000         203.000
  23569954.997    -8446381.68249  -6234430.00146  23569954.840    23569960.568
       222.000         166.000
  21438782.656    -9611726.25249  -7472448.70947  21438782.510    21438787.934
       241.000         204.000
 99  1  2  1 27 30.0000000  0  8G 4G 2G26G24G 8G 7G 5G 9
  20772230.354   -10003447.62249  -7743810.77047  20772230.554    20772235.949
       245.000         209.000
  22555857.329     5366953.88249   4194122.54746  22555856.515    22555863.381
       223.000         176.000
  24285626.658     7572526.80449   5906625.84845  24285627.610    24285634.574
       209.000         142.000
  22690603.970   -14688831.06649 -11387012.78646  22690604.411    22690611.288
       226.000         173.000
  23705529.209    -4571995.16349  -3140772.51645  23705529.054    23705535.199
       214.000         150.000
  21325096.088     5105511.07449   3989823.06747  21325095.454    21325101.672
       238.000         203.000
  23554625.544    -8526938.02049  -6297201.07246  23554625.552    23554631.858
       222.000         167.000
  21430398.457    -9655785.51149  -7506780.56747  21430398.664    21430403.884
       241.000         204.000
 99  1  2  1 28  0.0000000  0  8G 4G 2G26G24G 8G 7G 5G 9
  20764142.080   -10045951.58549  -7776930.70447  20764142.393    20764147.528
       245.000         209.000
  22566450.344     5422621.44149   4237499.86746  22566450.132    22566456.324
       226.000         175.000
  24299661.812     7646282.02349   5964097.43545  24299663.263    24299670.020
       206.000         138.000
  22671522.805   -14789104.20349 -11465147.59546  22671522.022    22671529.696
       225.000         174.000
  23686134.187    -4673916.52349  -3220191.64245  23686133.441    23686139.467
       212.000         150.000
  21335597.484     5160696.74449   4032824.90747  21335597.064    21335603.316
       239.000         203.000
  23539294.997    -8607499.90449  -6359976.46446  23539294.406    23539300.908
       221.000         167.000
  21422103.630    -9699375.40549  -7540746.68847  21422103.227    21422109.157
       241.000         204.000
 99  1  2  1 28 30.0000000  0  8G 4G 2G26G24G 8G 7G 5G 9
  20756153.779   -10087930.13649  -7809641.22747  20756154.243    20756159.253
       247.000         209.000
  22577090.269     5478534.48849   4281068.49146  22577090.575    22577096.466
       224.000         175.000
  24313701.693     7720063.29949   6021589.33745  24313700.565    24313710.624
       204.000         140.000
  22652479.545   -14889176.91149 -11543126.23546  22652479.115    22652487.025
       224.000         174.000
  23666780.996    -4775616.99749  -3299438.64345  23666780.249    23666786.790
       212.000         150.000
  21346124.590     5216016.66049   4075931.34447  21346124.366    21346130.146
       240.000         202.000
  23523964.828    -8688060.84849  -6422751.13246  23523964.129    23523970.656
       221.000         167.000
  21413897.965    -9742495.72349  -7574346.90447  21413897.847    21413903.122
       241.000         205.000
 99  1  2  1 29  0.0000000  0  8G 4G 2G26G24G 8G 7G 5G 9
  20748260.766   -10129408.41249  -7841961.92147  20748261.068    20748266.392
       246.000         209.000
  22587774.630     5534680.62949   4324818.72146  22587774.939    22587779.830
       226.000         175.000
  24327742.160     7793847.87949   6079083.76645  24327742.065    24327751.774
       202.000         140.000
  22633471.102   -14989065.69149 -11620961.52446  22633470.954    22633477.616
       224.000         174.000
  23647465.676    -4877119.95949  -3378531.73345  23647464.531    23647471.303
       213.000         148.000
  21356675.474     5271461.95149   4119135.48947  21356675.141    21356681.425
       239.000         202.000
  23508635.666    -8768614.83549  -6485520.35046  23508635.380    23508641.952
       220.000         167.000
  21405777.328    -9785169.89049  -7607599.47347  21405777.309    21405782.853
       241.000         205.000
 99  1  2  1 29 30.0000000  0  8G 4G 2G26G24G 8G 7G 5G 9
  20740461.404   -10170394.27049  -7873898.91647  20740461.757    20740467.139
       246.000         209.000
  22598499.406     5591038.98349   4368734.33146  22598498.455    22598505.401
       224.000         175.000
  24341779.001     7867612.11549   6136562.34045  24341779.067    24341787.719
       204.000         142.000
  22614493.288   -15088794.40349 -11698672.12346  22614492.952    22614500.452
       224.000         173.000
  23628185.771    -4978434.90049  -3457478.34645  23628185.118    23628191.591
       212.000         147.000
  21367250.064     5327031.68149   4162436.58347  21367249.511    21367255.418
       239.000         202.000
  23493304.681    -8849179.76349  -6548298.13346  23493304.114    23493309.976
       221.000         168.000
  21397740.196    -9827405.34549  -7640510.19247  21397740.173    21397745.578
       242.000         205.000
 99  1  2  1 30  0.0000000  0  8G 4G 2G26G24G 8G 7G 5G 9
  20732757.990   -10210875.97849  -7905443.06947  20732758.230    20732763.642
       246.000         210.000
  22609263.090     5647602.91549   4412810.10846  22609262.653    22609269.303
       224.000         174.000
  24355812.875     7941360.19749   6194028.31145  24355814.061    24355821.106
       206.000         143.000
  22595549.358   -15188345.19749 -11776244.07146  22595549.277    22595556.359
       224.000         174.000
  23608941.722    -5079562.20949  -3536278.75045  23608940.121    23608947.116
       211.000         147.000
  21377848.749     5382728.38649   4205836.63647  21377847.984    21377853.964
       238.000         201.000
  23477970.484    -8929761.03149  -6611088.63146  23477969.400    23477976.677
       219.000         167.000
  21389788.864    -9869189.70349  -7673069.40447  21389788.927    21389794.204
       241.000         205.000
 99  1  2  1 30 30.0000000  0  8G 4G 2G26G24G 8G 7G 5G 9
  20725164.754   -10250778.58049  -7936535.97247  20725165.147    20725170.492
       246.000         210.000
  22620076.271     5704426.52149   4457088.24946  22620075.957    22620082.097
       227.000         175.000
  24369856.067     8015157.23849   6251532.43345  24369856.399    24369864.797
       203.000         141.000
  22576652.184   -15287649.45949 -11853623.92446  22576652.219    22576659.025
       226.000         175.000
  23589744.002    -5180446.35049  -3614889.66745  23589743.780    23589750.234
       214.000         147.000
  21388479.493     5438593.74549   4249368.08947  21388479.224    21388485.300
       239.000         201.000
  23462643.582    -9010303.81649  -6673849.16146  23462642.630    23462649.201
       218.000         166.000
  21381936.659    -9910453.44549  -7705222.94347  21381936.343    21381941.887
       240.000         205.000
 99  1  2  1 31  0.0000000  0  8G 4G 2G26G24G 8G 7G 5G 9
  20717685.116   -10290084.40749  -7967163.85147  20717685.235    20717690.666
       245.000         210.000
  22630939.015     5761510.22249   4501569.04046  22630938.008    22630944.803
       226.000         174.000
  24383908.021     8089001.93849   6309073.72845  24383908.601    24383917.712
       210.000         142.000
  22557799.955   -15386718.31049 -11930820.34646  22557799.231    22557806.727
       225.000         175.000
  23570594.939    -5281074.81349  -3693301.34445  23570594.837    23570600.722
       212.000         147.000
  21399142.070     5494625.67249   4293029.34447  21399141.553    21399147.423
       238.000         200.000
  23447322.001    -9090818.70349  -6736587.94846  23447321.887    23447328.195
       219.000         166.000
  21374186.700    -9951179.24749  -7736957.30747  21374186.738    21374191.731
       242.000         205.000
 99  1  2  1 31 30.0000000  0  8G 4G 2G26G24G 8G 7G 5G 9
  20710323.848   -10328767.73949  -7997306.67247  20710324.011    20710329.451
       246.000         210.000
  22641853.665     5818866.45649   4546262.22046  22641853.961    22641859.686
       226.000         174.000
  24397975.011     8162922.87949   6366674.44445  24397976.422    24397983.239
       214.000         146.000
  22538999.756   -15485514.11749 -12007804.00646  22538999.755    22539006.924
       227.000         176.000
  23551504.313    -5381396.60549  -3771474.10145  23551503.993    23551511.097
       215.000         149.000
  21409837.039     5550828.30849   4336823.62547  21409836.768    21409842.769
       239.000         201.000
  23432007.276    -9171297.93449  -6799298.96846  23432007.049    23432013.804
       220.000         167.000
  21366546.511    -9991328.82649  -7768242.67447  21366545.958    21366551.720
       241.000         205.000
 99  1  2  1 32  0.0000000  0  8G 4G 2G26G24G 8G 7G 5G 9
  20703076.368   -10366853.02249  -8026983.48447  20703076.558    20703082.004
       245.000         210.000
  22652814.380     5876465.16649   4591144.31246  22652813.743    22652820.782
       224.000         174.000
  24412051.157     8236892.42849   6424313.01145  24412050.899    24412060.690
       213.000         149.000
  22520250.300   -15584043.47149 -12084580.04546  22520249.446    22520256.806
       227.000         176.000
  23532467.512    -5481436.33949  -3849427.07545  23532467.052    23532473.069
       218.000         151.000
  21420555.621     5607154.68149   4380714.31547  21420555.428    21420561.327
       239.000         200.000
  23416693.988    -9251769.42649  -6862003.95046  23416692.901    23416700.261
       218.000         167.000
  21359010.269   -10030931.48149  -7799101.85047  21359010.345    21359015.570
       241.000         205.000
 99  1  2  1 32 30.0000000  0  8G 4G 2G26G24G 8G 7G 5G 9
  20695948.427   -10404310.29249  -8056170.93347  20695948.693    20695954.175
       246.000         210.000
  22663825.857     5934330.31649   4636234.03746  22663825.270    22663831.115
       224.000         174.000
  24426139.959     8310929.70249   6482004.36145  24426141.264    24426148.832
       214.000         149.000
  22501551.828   -15682304.05249 -12161146.64546  22501551.420    22501557.904
       227.000         177.000
  23513491.171    -5581158.01549  -3927132.19545  23513490.489    23513496.252
       218.000         154.000
  21431302.620     5663630.00549   4424721.07547  21431302.118    21431307.739
       238.000         200.000
  23401388.563    -9332199.59649  -6924676.73946  23401388.106    23401394.729
       220.000         167.000
  21351582.510   -10069964.73849  -7829517.35447  21351582.717    21351587.484
       241.000         205.000
 99  1  2  1 33  0.0000000  0  8G 4G 2G26G24G 8G 7G 5G 9
  20688933.946   -10441171.63349  -8084894.02247  20688934.329    20688939.674
       246.000         211.000
  22674886.757     5992456.18149   4681526.93146  22674885.304    22674891.841
       224.000         172.000
  24440238.177     8385015.38649   6539733.48345  24440238.525    24440246.924
       216.000         147.000
  22482899.783   -15780320.94249 -12237523.36046  22482900.402    22482906.327
       227.000         178.000
  23494573.492    -5680571.40849  -4004597.09945  23494573.135    23494579.005
       220.000         157.000
  21442076.532     5720247.81149   4468838.85547  21442076.060    21442081.984
       238.000         200.000
  23386089.925    -9412594.11249  -6987321.73946  23386089.517    23386096.097
       218.000         167.000
  21344256.643   -10108462.57549  -7859515.64247  21344256.599    21344261.811
       242.000         205.000
 99  1  2  1 33 30.0000000  0  8G 4G 2G26G24G 8G 7G 5G 9
  20682027.576   -10477465.13449  -8113174.64147  20682027.890    20682033.090
       246.000         211.000
  22685994.371     6050826.98949   4727010.67246  22685993.663    22685999.646
       224.000         173.000
  24454338.399     8459112.28549   6597471.32645  24454339.413    24454346.429
       219.000         149.000
  22464294.044   -15878094.75049 -12313710.66646  22464293.813    22464299.907
       229.000         178.000
  23475707.673    -5779711.08349  -4081848.72545  23475707.556    23475712.546
       220.000         160.000
  21452876.448     5777001.91549   4513062.84847  21452875.753    21452881.397
       238.000         199.000
  23370797.087    -9492957.83049  -7049942.75546  23370796.444    23370802.733
       221.000         168.000
  21337028.383   -10146447.46249  -7889114.22947  21337028.333    21337033.787
       242.000         205.000
 99  1  2  1 34  0.0000000  0  8G 4G 2G26G24G 8G 7G 5G 9
  20675231.446   -10513178.87049  -8141003.49147  20675231.505    20675237.027
       246.000         211.000
  22697150.502     6109453.09849   4772693.34146  22697149.360    22697156.755
       222.000         173.000
  24468439.155     8533211.11449   6655210.65845  24468439.282    24468447.708
       214.000         150.000
  22445732.376   -15975637.15149 -12389717.65446  22445731.893    22445739.388
       228.000         178.000
  23456890.665    -5878594.58749  -4158900.74645  23456889.943    23456896.749
       220.000         161.000
  21463706.646     5833915.04549   4557410.74947  21463706.115    21463712.037
       238.000         199.000
  23355512.976    -9573275.77549  -7112528.11046  23355512.755    23355519.197
       221.000         168.000
  21329897.130   -10183921.99449  -7918315.13747  21329897.020    21329902.118
       242.000         205.000
 99  1  2  1 34 30.0000000  0  8G 4G 2G26G24G 8G 7G 5G 9
  20668545.406   -10548313.99649  -8168381.48147  20668545.774    20668550.843
       247.000         211.000
  22708354.905     6168333.99049   4818574.55846  22708354.433    22708361.353
       222.000         172.000
  24482541.227     8607318.28249   6712956.46245  24482541.789    24482550.261
       210.000         147.000
  22427215.132   -16072945.52049 -12465542.29246  22427214.223    22427222.040
       229.000         179.000
  23438122.738    -5977220.16749  -4235751.78146  23438122.306    23438129.291
       220.000         163.000
  21474569.009     5890997.11949   4601890.29047  21474568.556    21474574.607
       238.000         199.000
  23340238.974    -9653541.15949  -7175072.50846  23340237.610    23340245.725
       221.000         168.000
  21322863.545   -10220883.80649  -7947116.52947  21322863.499    21322868.953
       241.000         206.000
 99  1  2  1 35  0.0000000  0  8G 4G 2G26G24G 8G 7G 5G 9
  20661965.293   -10582892.44849  -8195325.69347  20661965.629    20661970.912
       246.000         211.000
  22719603.513     6227445.93049   4864635.80146  22719603.066    22719610.236
       222.000         172.000
  24496641.619     8681415.60549   6770694.58745  24496641.928    24496650.878
       212.000         146.000
  22408744.192   -16170010.60649 -12541177.34646  22408743.590    22408751.264
       229.000         180.000
  23419397.727    -6075620.55049  -4312427.34846  23419396.759    23419404.625
       219.000         164.000
  21485460.144     5948230.71249   4646487.90847  21485459.746    21485465.510
       237.000         199.000
  23324969.785    -9733781.69149  -7237597.55046  23324969.150    23324975.333
       221.000         166.000
  21315924.716   -10257347.38749  -7975529.68047  21315924.263    21315929.658
       241.000         206.000
 99  1  2  1 35 30.0000000  0  8G 4G 2G26G24G 8G 7G 5G 9
  20655497.593   -10616880.21749  -8221809.63847  20655497.786    20655502.963
       245.000         211.000
  22730899.739     6286807.96049   4910891.92646  22730899.576    22730906.113
       222.000         172.000
  24510745.385     8755531.31449   6828447.05245  24510743.925    24510752.980
       210.000         147.000
  22390325.740   -16266799.88349 -12616597.48146  22390325.540    22390332.519
       230.000         180.000
  23400721.981    -6173761.68449  -4388900.90546  23400721.128    23400727.496
       219.000         164.000
  21496382.973     6005630.72249   4691215.20047  21496382.414    21496388.608
       238.000         199.000
  23309708.292    -9813980.98749  -7300090.45446  23309707.615    23309714.373
       220.000         165.000
  21309087.691   -10293275.71049  -8003525.75447  21309087.376    21309092.701
       241.000         205.000
 99  1  2  1 36  0.0000000  0  8G 4G 2G26G24G 8G 7G 5G 9
  20649144.810   -10650264.33649  -8247823.20247  20649145.274    20649150.349
       245.000         211.000
  22742243.637     6346421.01849   4957343.67246  22742242.943    22742248.932
       222.000         171.000
  24524857.149     8829690.19349   6886233.18145  24524858.244    24524865.526
       216.000         150.000
  22371958.822   -16363318.21149 -12691806.50746  22371958.605    22371965.227
       230.000         180.000
  23382101.041    -6271615.04349  -4465150.23646  23382100.689    23382106.874
       221.000         164.000
  21507335.175     6063184.77549   4736062.52347  21507334.522    21507341.107
       238.000         198.000
  23294451.412    -9894155.77249  -7362564.26046  23294450.428    23294457.688
       219.000         164.000
  21302351.346   -10328675.29849  -8031109.82747  21302351.189    21302357.145
       241.000         206.000
 99  1  2  1 36 30.0000000  0  8G 4G 2G26G24G 8G 7G 5G 9
  20642903.433   -10683062.92549  -8273380.50947  20642903.655    20642908.694
       246.000         211.000
  22753632.920     6406272.60449   5003981.28246  22753632.478    22753640.029
       224.000         171.000
  24538974.339     8903876.06449   6944040.34245  24538974.302    24538982.841
       212.000         151.000
  22353643.624   -16459564.52449 -12766803.56246  22353642.845    22353649.491
       229.000         180.000
  23363535.043    -6369180.74049  -4541175.42746  23363535.021    23363540.731
       221.000         164.000
  21518309.598     6120856.10749   4781001.23647  21518308.815    21518315.203
       237.000         198.000
  23279192.859    -9974339.45349  -7425045.01646  23279192.311    23279198.377
       219.000         163.000
  21295711.587   -10363567.48249  -8058298.51247  21295711.805    21295717.133
       242.000         206.000
 99  1  2  1 37  0.0000000  0  8G 4G 2G26G24G 8G 7G 5G 9
  20636773.660   -10715274.63549  -8298480.51347  20636773.859    20636779.131
       244.000         211.000
  22765070.989     6466379.71549   5050817.98046  22765070.100    22765077.436
       220.000         171.000
  24553095.642     8978083.93149   7001864.59645  24553095.935    24553104.089
       207.000         149.000
  22335380.829   -16555536.02149 -12841586.47746  22335380.538    22335386.594
       231.000         181.000
  23345025.774    -6466447.51249  -4616967.66846  23345024.306    23345031.890
       219.000         164.000
  21529305.955     6178642.44149   4826029.55647  21529305.412    21529311.710
       237.000         198.000
  23263931.156   -10054539.78349  -7487538.73746  23263931.315    23263936.810
       221.000         164.000
  21289169.723   -10397945.32049  -8085086.41247  21289169.675    21289175.337
       242.000         207.000
 99  1  2  1 37 30.0000000  0  8G 4G 2G26G24G 8G 7G 5G 9
  20630752.817   -10746914.21649  -8323134.70447  20630753.157    20630758.247
       245.000         211.000
  22776557.434     6526741.78949   5097853.36546  22776557.098    22776564.395
       221.000         170.000
  24567217.399     9052294.20549   7059690.72545  24567217.599    24567225.236
       206.000         146.000
  22317166.642   -16651251.59149 -12916169.97146  22317166.347    22317173.021
       230.000         180.000
  23326573.777    -6563412.29649  -4692524.58046  23326573.879    23326580.638
       218.000         163.000
  21540320.041     6236521.93049   4871130.46347  21540319.337    21540325.601
       237.000         197.000
  23248665.138   -10134763.69249  -7550050.82646  23248664.774    23248671.397
       220.000         166.000
  21282721.922   -10431828.63449  -8111488.97247  21282721.798    21282727.063
       242.000         206.000
 99  1  2  1 38  0.0000000  0  8G 4G 2G26G24G 8G 7G 5G 9
  20624840.275   -10777984.91449  -8347345.60447  20624840.650    20624845.626
       245.000         211.000
  22788091.112     6587351.60949   5145081.80246  22788091.043    22788097.031
       222.000         171.000
  24581336.276     9126490.67249   7117506.14845  24581335.785    24581344.535
       208.000         146.000
  22299002.425   -16746704.40149 -12990548.72546  22299002.642    22299008.532
       231.000         181.000
  23308178.634    -6660078.79249  -4767849.07545  23308179.183    23308184.413
       219.000         161.000
  21551352.281     6294496.91549   4916305.79047  21551352.119    21551358.098
       237.000         197.000
  23233395.346   -10215007.16849  -7612578.15646  23233394.606    23233401.863
       221.000         166.000
  21276368.118   -10465218.27149  -8137506.85047  21276368.057    21276373.165
       242.000         206.000
 99  1  2  1 38 30.0000000  0  8G 4G 2G26G24G 8G 7G 5G 9
  20619031.398   -10808510.66649  -8371131.86747  20619031.452    20619036.963
       244.000         211.000
  22799670.218     6648199.72449   5192495.90646  22799670.047    22799676.120
       222.000         171.000
  24595446.983     9200642.86049   7175287.05245  24595449.205    24595455.230
       212.000         146.000
  22280886.321   -16841904.38149 -13064730.46646  22280886.094    22280892.907
       229.000         181.000
  23289835.991    -6756469.83549  -4842958.94845  23289835.962    23289841.683
       222.000         162.000
  21562402.407     6352565.42949   4961553.99347  21562402.110    21562407.735
       238.000         197.000
  23218123.191   -10295262.95949  -7675115.09946  23218122.398    23218129.514
       223.000         167.000
  21270108.749   -10498111.36049  -8163137.79947  21270108.480    21270114.160
       241.000         206.000
 99  1  2  1 39  0.0000000  0  8G 4G 2G26G24G 8G 7G 5G 9
  20613329.344   -10838474.52449  -8394480.30047  20613329.699    20613334.532
       244.000         211.000
  22811297.989     6709303.89449   5240109.55246  22811297.707    22811304.692
       221.000         170.000
  24609552.350     9274765.96749   7233045.32945  24609553.061    24609561.305
       204.000         143.000
  22262819.982   -16936842.52549 -13138708.18146  22262819.851    22262826.574
       230.000         181.000
  23271547.574    -6852575.74949  -4917846.62546  23271547.393    23271553.885
       221.000         163.000
  21573477.366     6410764.16449   5006903.66747  21573477.103    21573482.437
       237.000         197.000
  23202856.841   -10375488.32649  -7737628.33246  23202855.707    23202862.796
       221.000         167.000
  21263949.039   -10530480.12849  -8188360.19047  21263948.944    21263954.212
       241.000         206.000
 99  1  2  1 39 30.0000000  0  8G 4G 2G26G24G 8G 7G 5G 9
  20607732.032   -10867888.32249  -8417400.11647  20607732.394    20607737.422
       245.000         211.000
  22822969.827     6770640.21149   5287904.07946  22822969.707    22822975.842
       223.000         171.000
  24623647.723     9348839.46549   7290764.90845  24623648.823    24623655.076
       199.000         137.000
  22244800.904   -17031533.11549 -13212492.99646  22244801.215    22244807.962
       230.000         181.000
  23253309.420    -6948417.57949  -4992528.52546  23253309.609    23253314.889
       222.000         163.000
  21584575.310     6469084.75049   5052348.28847  21584575.000    21584581.138
       238.000         197.000
  23187596.919   -10455678.77949  -7800114.34346  23187596.301    23187602.762
       221.000         167.000
  21257885.912   -10562341.96949  -8213187.57547  21257885.672    21257891.090
       241.000         206.000
 99  1  2  1 40  0.0000000  0  8G 4G 2G26G24G 8G 7G 5G 9
  20602246.793   -10896713.33049  -8439861.13447  20602247.331    20602252.066
       245.000         211.000
  22834687.908     6832219.01649   5335887.56046  22834687.785    22834693.861
       220.000         169.000
  24637737.972     9422882.80549   7348460.94545  24637737.899    24637746.997
       203.000         136.000
  22226833.039   -17125955.15449 -13286068.54646  22226833.453    22226839.601
       230.000         181.000
  23235123.640    -7043984.45049  -5066996.16845  23235123.898    23235129.755
       219.000         161.000
  21595701.709     6527554.07149   5097908.80647  21595701.047    21595707.277
       237.000         197.000
  23172347.362   -10535815.35249  -7862558.36746  23172346.668    23172353.440
       221.000         167.000
  21251925.847   -10593662.23749  -8237592.95647  21251926.158    21251931.060
       243.000         206.000
 99  1  2  1 40 30.0000000  0  8G 4G 2G26G24G 8G 7G 5G 9
  20596880.775   -10924912.02549  -8461834.10947  20596880.866    20596886.014
       245.000         211.000
  22846457.376     6894069.01949   5384082.37246  22846456.917    22846463.771
       223.000         170.000
  24651825.356     9496911.42549   7406145.55145  24651825.716    24651832.490
       204.000         138.000
  22208918.974   -17220093.82049 -13359423.29446  22208919.235    22208925.745
       230.000         182.000
  23216992.660    -7139263.04249  -5141239.14945  23216991.221    23216998.292
       217.000         159.000
  21606859.563     6586189.11449   5143598.45047  21606859.233    21606864.735
       236.000         196.000
  23157113.479   -10615869.17349  -7924937.91546  23157113.854    23157120.177
       223.000         169.000
  21246072.806   -10624420.53149  -8261560.44147  21246072.320    21246077.567
       241.000         206.000
 99  1  2  1 41  0.0000000  0  8G 4G 2G26G24G 8G 7G 5G 9
  20591633.982   -10952483.78049  -8483318.56347  20591634.228    20591639.422
       244.000         211.000
  22858277.144     6956181.03949   5432481.34346  22858276.894    22858283.942
       220.000         171.000
  24665909.367     9570924.10349   7463817.73945  24665908.677    24665919.521
       200.000         137.000
  22191061.014   -17313938.25649 -13432548.76446  22191060.688    22191068.120
       230.000         182.000
  23198916.960    -7234251.53349  -5215256.08445  23198916.734    23198921.449
       218.000         158.000
  21618045.001     6644968.82449   5189400.83247  21618044.729    21618050.221
       237.000         196.000
  23141894.369   -10695846.33349  -7987257.73146  23141893.990    23141900.765
       223.000         170.000
  21240326.011   -10654619.69449  -8285092.22747  21240325.868    21240331.396
       242.000         206.000
 99  1  2  1 41 30.0000000  0  8G 4G 2G26G24G 8G 7G 5G 9
  20586508.256   -10979419.27949  -8504307.23947  20586508.587    20586513.707
       244.000         211.000
  22870146.029     7018553.99849   5481083.64146  22870145.887    22870153.372
       221.000         170.000
  24679993.567     9644937.56549   7521490.55245  24679993.196    24680000.898
       201.000         138.000
  22173264.214   -17407460.67749 -13505423.31446  22173264.049    22173270.859
       228.000         182.000
  23180901.334    -7328924.01849  -5289026.77445  23180900.766    23180905.583
       217.000         158.000
  21629257.565     6703891.15449   5235314.33847  21629257.117    21629263.057
       237.000         196.000
  23126689.022   -10775751.29449  -8049521.28846  23126688.187    23126695.347
       223.000         171.000
  21234687.950   -10684247.74549  -8308178.99647  21234687.792    21234693.561
       241.000         207.000
 99  1  2  1 42  0.0000000  0  8G 4G 2G26G24G 8G 7G 5G 9
  20581501.425   -11005730.08949  -8524809.14147  20581501.753    20581506.959
       245.000         211.000
  22882064.958     7081187.97949   5529889.34746  22882065.546    22882071.646
       222.000         170.000
  24694075.917     9718941.36149   7579155.77145  24694075.797    24694083.322
       197.000         138.000
  22155527.837   -17500665.47949 -13578050.36946  22155527.727    22155534.379
       231.000         182.000
  23162947.633    -7423269.83649  -5362542.91045  23162948.145    23162952.812
       217.000         156.000
  21640494.477     6762941.36949   5281327.50347  21640493.938    21640499.560
       236.000         196.000
  23111495.229   -10855594.64949  -8111736.83446  23111495.335    23111501.558
       223.000         171.000
  21229159.600   -10713299.23849  -8330816.49647  21229159.709    21229164.694
       242.000         208.000
 99  1  2  1 42 30.0000000  0  8G 4G 2G26G24G 8G 7G 5G 9
  20576608.303   -11031443.56549  -8544845.59147  20576608.690    20576613.659
       245.000         211.000
  22894034.799     7144089.72949   5578903.68546  22894033.950    22894041.796
       220.000         169.000
  24708156.620     9792936.17449   7636813.97445  24708158.338    24708166.129
       205.000         139.000
  22137851.527   -17593555.26149 -13650431.96046  22137851.574    22137858.288
       230.000         183.000
  23145060.154    -7517269.09849  -5435789.00645  23145059.469    23145065.274
       217.000         156.000
  21651754.521     6822113.53049   5327435.69247  21651753.843    21651759.903
       236.000         195.000
  23096313.231   -10935376.72149  -8173904.62646  23096312.226    23096318.124
       222.000         171.000
  21223739.229   -10741783.77149  -8353012.22747  21223739.311    21223744.541
       243.000         208.000
 99  1  2  1 43  0.0000000  0  8G 4G 2G26G24G 8G 7G 5G 9
  20571819.368   -11056609.41949  -8564455.32047  20571819.835    20571824.828
       244.000         211.000
  22906050.355     7207231.35549   5628104.92646  22906049.962    22906056.328
       222.000         169.000
  24722231.055     9866897.38249   7694446.07745  24722230.416    24722239.302
       203.000         141.000
  22120230.763   -17686152.44349 -13722585.54246  22120230.943    22120237.658
       229.000         184.000
  23127235.905    -7610936.42649  -5508776.42745  23127236.118    23127240.927
       218.000         159.000
  21663031.815     6881376.47049   5373614.61047  21663031.136    21663037.545
       235.000         195.000
  23081134.378   -11015141.73449  -8236059.12346  23081133.884    23081140.294
       221.000         171.000
  21218421.638   -10769727.94949  -8374786.88547  21218421.862    21218426.847
       242.000         208.000
 99  1  2  1 43 30.0000000  0  8G 4G 2G26G24G 8G 7G 5G 9
  20567135.124   -11081225.38549  -8583636.56847  20567135.578    20567140.609
       245.000         212.000
  22918112.644     7270619.03449   5677497.94146  22918111.841    22918118.698
       220.000         169.000
  24736295.847     9940808.25649   7752038.95945  24736295.959    24736305.063
       210.000         144.000
  22102662.147   -17778475.79249 -13794525.75646  22102662.025    22102668.627
       231.000         184.000
  23109474.953    -7704270.27949  -5581504.00545  23109474.614    23109480.255
       219.000         161.000
  21674326.878     6940732.92149   5419866.40547  21674326.386    21674333.068
       236.000         195.000
  23065956.311   -11094902.85249  -8298210.59146  23065955.811    23065961.601
       224.000         172.000
  21213204.118   -10797146.40549  -8396151.89847  21213203.795    21213208.708
       242.000         208.000
 99  1  2  1 44  0.0000000  0  7G 4G 2G24G 8G 7G 5G 9
  20562559.887   -11105268.43249  -8602371.38247  20562559.996    20562565.241
       245.000         212.000
  22930226.419     7334277.43849   5727101.86746  22930227.054    22930233.605
       223.000         169.000
  22085144.328   -17870532.89849 -13866258.50346  22085144.822    22085150.649
       232.000         185.000
  23091776.769    -7797274.82049  -5653974.97045  23091776.396    23091782.013
       221.000         161.000
  21685641.757     7000192.79149   5466198.77747  21685641.063    21685647.937
       235.000         195.000
  23050780.646   -11174651.16849  -8360352.06046  23050780.527    23050786.587
       223.000         173.000
  21208086.972   -10824036.88349  -8417105.49247  21208086.787    21208092.480
       242.000         208.000
 99  1  2  1 44 30.0000000  0  7G 4G 2G24G 8G 7G 5G 9
  20558094.785   -11128732.59349  -8620655.12247  20558095.307    20558100.232
       245.000         212.000
  22942388.040     7398186.39449   5776901.06346  22942388.165    22942393.839
       222.000         170.000
  22067675.967   -17962330.14649 -13937788.76746  22067676.006    22067682.271
       231.000         185.000
  23074136.376    -7889975.71649  -5726209.34345  23074135.528    23074141.924
       219.000         161.000
  21696973.517     7059741.77049   5512600.58847  21696973.128    21696979.602
       235.000         195.000
  23035602.950   -11254410.61349  -8422502.20546  23035602.664    23035609.061
       222.000         173.000
  21203064.396   -10850430.81849  -8437672.18247  21203064.394    21203069.540
       242.000         208.000
 99  1  2  1 45  0.0000000  0  7G 4G 2G24G 8G 7G 5G 9
  20553751.389   -11151557.25449  -8638440.54647  20553751.764    20553756.701
       245.000         212.000
  22954601.021     7462366.82149   5826911.77346  22954600.421    22954607.672
       222.000         168.000
  22050267.354   -18053813.08849 -14009074.10846  22050266.968    22050273.886
       232.000         186.000
  23056560.395    -7982337.13649  -5798179.19445  23056560.405    23056564.991
       220.000         161.000
  21708329.594     7119418.28649   5559101.77447  21708329.296    21708335.476
       235.000         195.000
  23020431.112   -11334138.80949  -8484628.00746  23020430.108    23020437.586
       221.000         173.000
  21198143.845   -10876288.64749  -8457821.12047  21198143.571    21198149.193
       242.000         208.000
 99  1  2  1 45 30.0000000  0  7G 4G 2G24G 8G 7G 5G 9
  20549530.050   -11173740.55049  -8655726.20647  20549530.446    20549535.306
       245.000         212.000
  22966860.430     7526790.62749   5877112.13446  22966858.635    22966868.099
       217.000         167.000
  22032916.143   -18144994.25249 -14080124.31346  22032916.090    22032922.386
       232.000         186.000
  23039045.720    -8074377.82249  -5869899.11645  23039045.301    23039050.962
       221.000         161.000
  21719708.538     7179214.73149   5605696.41247  21719708.339    21719714.208
       236.000         195.000
  23005265.617   -11413833.40449  -8546727.61946  23005265.496    23005272.166
       223.000         173.000
  21193323.341   -10901620.14549  -8477559.93447  21193323.268    21193328.447
       242.000         208.000
 99  1  2  1 46  0.0000000  0  7G 4G 2G24G 8G 7G 5G 9
  20545426.869   -11195302.86749  -8672527.98547  20545427.367    20545432.457
       246.000         212.000
  22979159.805     7591424.88549   5927476.47246  22979159.629    22979166.891
       221.000         168.000
  22015619.494   -18235888.43149 -14150950.88646  22015619.294    22015625.781
       232.000         186.000
  23021587.528    -8166120.95149  -5941387.18046  23021586.857    23021592.975
       222.000         163.000
  21731106.681     7239111.56549   5652369.27247  21731105.998    21731111.796
       235.000         194.000
  22990106.105   -11493497.25749  -8608803.27746  22990105.321    22990112.055
       220.000         172.000
  21188601.032   -10926435.85649  -8496896.83547  21188600.967    21188606.439
       243.000         208.000
 99  1  2  1 46 30.0000000  0  7G 4G 2G24G 8G 7G 5G 9
  20541449.227   -11216205.83949  -8688815.99348  20541449.540    20541454.654
       245.000         213.000
  22991506.757     7656307.84349   5978034.60646  22991506.701    22991512.414
       221.000         167.000
  21998391.729   -18326420.94749 -14221495.64346  21998391.480    21998398.043
       232.000         187.000
  23004198.708    -8257499.29449  -6012590.99446  23004198.445    23004203.933
       222.000         165.000
  21742532.702     7299155.63449   5699156.86247  21742531.569    21742537.569
       234.000         193.000
  22974964.264   -11573067.37249  -8670805.88846  22974963.824    22974969.858
       224.000         172.000
  21183989.500   -10950669.45349  -8515780.14047  21183989.589    21183994.532
       243.000         208.000
 99  1  2  1 47  0.0000000  0  7G 4G 2G24G 8G 7G 5G 9
  20537599.536   -11236435.73149  -8704579.52448  20537599.995    20537604.952
       245.000         213.000
  23003907.876     7721475.19849   6028814.36646  23003907.736    23003913.921
       220.000         167.000
  21981239.365   -18416556.58349 -14291731.15546  21981239.245    21981245.400
       232.000         187.000
  22986888.018    -8348467.26849  -6083475.03346  22986887.589    22986893.372
       222.000         165.000
  21753994.360     7359387.89049   5746091.09547  21753993.744    21753999.570
       233.000         193.000
  22959849.653   -11652496.13349  -8732698.35946  22959848.887    22959855.426
       221.000         173.000
  21179500.247   -10974260.68949  -8534162.90547  21179500.257    21179505.717
       242.000         208.000
 99  1  2  1 47 30.0000000  0  7G 4G 2G24G 8G 7G 5G 9
  20533867.845   -11256046.01849  -8719860.23848  20533868.119    20533873.228
       245.000         213.000
  23016362.756     7786926.44149   6079815.32546  23016362.434    23016369.596
       220.000         167.000
  21964155.932   -18506330.12749 -14361684.50946  21964155.781    21964161.999
       232.000         187.000
  22969649.262    -8439057.17149  -6154064.48846  22969648.533    22969654.512
       222.000         165.000
  21765483.721     7419765.78949   5793138.80947  21765482.930    21765488.986
       234.000         192.000
  22944754.686   -11731819.70249  -8794508.85346  22944754.877    22944759.838
       225.000         174.000
  21175127.540   -10997239.37649  -8552068.35447  21175127.484    21175132.626
       243.000         208.000
 99  1  2  1 48  0.0000000  0  7G 4G 2G24G 8G 7G 5G 9
  20530243.616   -11275091.27649  -8734700.67648  20530244.138    20530249.186
       246.000         213.000
  23028865.453     7852628.50249   6131011.73746  23028864.529    23028871.781
       220.000         168.000
  21947134.696   -18595777.82649 -14431383.96147  21947134.675    21947140.773
       232.000         188.000
  22952475.621    -8529304.17249  -6224386.75846  22952475.462    22952480.982
       225.000         166.000
  21776988.159     7480222.14149   5840247.66647  21776986.806    21776993.469
       233.000         191.000
  22929667.671   -11811103.32549  -8856288.25446  22929667.342    22929672.948
       226.000         175.000
  21170860.357   -11019663.52249  -8569541.69847  21170860.388    21170865.361
       243.000         208.000
 99  1  2  1 48 30.0000000  0  7G 4G 2G24G 8G 7G 5G 9
  20526722.301   -11293596.28749  -8749120.14248  20526722.656    20526727.790
       245.000         213.000
  23041412.418     7918563.50849   6182389.65046  23041412.042    23041419.078
       220.000         166.000
  21930173.077   -18684911.11849 -14500838.41547  21930173.017    21930179.548
       232.000         188.000
  22935364.098    -8619226.49749  -6294456.01846  22935363.338    22935370.086
       224.000         168.000
  21788501.547     7540726.36849   5887393.82747  21788500.815    21788507.585
       234.000         191.000
  22914581.036   -11890383.76049  -8918065.14846  22914580.886    22914586.509
       226.000         175.000
  21166694.206   -11041556.94949  -8586601.49147  21166694.113    21166699.471
       243.000         208.000
 99  1  2  1 49  0.0000000  0  7G 4G 2G24G 8G 7G 5G 9
  20523303.987   -11311559.61249  -8763117.51648  20523304.302    20523309.412
       246.000         213.000
  23054006.105     7984742.46349   6233957.66146  23054005.874    23054012.809
       220.000         167.000
  21913269.517   -18773740.27049 -14570055.88847  21913269.849    21913275.892
       233.000         188.000
  22918313.448    -8708827.58449  -6364274.99046  22918312.492    22918318.190
       223.000         169.000
  21800023.949     7601277.09749   5934576.21847  21800023.848    21800029.765
       234.000         191.000
  22899493.935   -11969667.10049  -8979844.31846  22899493.680    22899498.909
       227.000         176.000
  21162626.261   -11062934.01149  -8603258.93347  21162625.899    21162631.197
       242.000         207.000
 99  1  2  1 49 30.0000000  0  7G 4G 2G24G 8G 7G 5G 9
  20519990.809   -11328970.35649  -8776684.30948  20519991.026    20519996.278
       245.000         213.000
  23066644.010     8051155.82449   6285708.31346  23066643.325    23066651.023
       219.000         167.000
  21896421.219   -18862278.81049 -14639046.90347  21896421.153    21896427.340
       233.000         189.000
  22901322.610    -8798114.60749  -6433849.20846  22901322.384    22901328.446
       222.000         168.000
  21811550.971     7661851.51649   5981777.06847  21811551.137    21811556.702
       234.000         191.000
  22884405.171   -12048959.32449  -9041630.40446  22884404.766    22884409.561
       226.000         175.000
  21158649.813   -11083829.80149  -8619541.35347  21158649.782    21158654.947
       243.000         208.000
 99  1  2  1 50  0.0000000  0  7G 4G 2G24G 8G 7G 5G 9
  20516791.757   -11345781.63549  -8789783.98448  20516791.970    20516797.273
       245.000         214.000
  23079326.101     8117801.61249   6337640.08946  23079325.386    23079332.664
       219.000         166.000
  21879631.819   -18950507.54249 -14707796.51147  21879631.306    21879638.188
       232.000         189.000
  22884396.659    -8887061.02949  -6503158.04946  22884395.563    22884401.685
       222.000         169.000
  21823093.020     7722504.66149   6029039.26347  21823092.787    21823098.324
       234.000         192.000
  22869322.191   -12128220.59849  -9103392.39246  22869321.698    22869327.277
       227.000         174.000
  21154771.238   -11104212.15449  -8635423.69147  21154771.307    21154776.520
       242.000         208.000
 99  1  2  1 50 30.0000000  0  7G 4G 2G24G 8G 7G 5G 9
  20513707.127   -11361991.36449  -8802414.92248  20513707.316    20513712.443
       245.000         213.000
  23092052.311     8184678.20849   6389751.73446  23092053.194    23092058.966
       222.000         167.000
  21862901.251   -19038425.76049 -14776304.16347  21862900.849    21862907.120
       232.000         189.000
  22867537.139    -8975657.63949  -6572194.30846  22867536.404    22867542.515
       221.000         169.000
  21834654.007     7783257.80249   6076379.38047  21834654.044    21834659.425
       235.000         192.000
  22854250.380   -12207423.16749  -9165108.64246  22854249.992    22854255.786
       228.000         174.000
  21150993.668   -11124063.08849  -8650891.93847  21150993.352    21150998.741
       243.000         208.000
 99  1  2  1 51  0.0000000  0  7G 4G 2G24G 8G 7G 5G 9
  20510736.109   -11377604.12349  -8814580.69348  20510736.403    20510741.526
       245.000         214.000
  23104820.692     8251775.41749   6442035.24646  23104820.066    23104827.051
       219.000         167.000
  21846228.614   -19126040.28449 -14844575.17647  21846228.221    21846235.076
       232.000         189.000
  22850746.429    -9063893.03949  -6640949.09546  22850746.617    22850752.632
       222.000         169.000
  21846234.709     7844114.10549   6123799.88747  21846234.217    21846240.128
       234.000         192.000
  22839189.521   -12286568.36649  -9226780.18346  22839189.018    22839194.276
       226.000         174.000
  21147314.901   -11143394.74049  -8665955.54747  21147314.509    21147319.885
       243.000         208.000
 99  1  2  1 51 30.0000000  0  7G 4G 2G24G 8G 7G 5G 9
  20507884.044   -11392591.65549  -8826259.26748  20507884.147    20507889.497
       245.000         214.000
  23117634.170     8319111.13949   6494504.63246  23117633.885    23117640.696
       220.000         165.000
  21829617.558   -19213331.45149 -14912594.21947  21829617.710    21829624.294
       233.000         190.000
  22834030.211    -9151737.81449  -6709399.52746  22834030.340    22834035.727
       222.000         168.000
  21857840.112     7905100.83449   6171322.01647  21857839.603    21857845.344
       235.000         192.000
  22824144.347   -12365630.52349  -9288386.99646  22824143.604    22824149.758
       226.000         175.000
  21143741.837   -11162171.26949  -8680586.59847  21143741.912    21143747.058
       243.000         208.000
 99  1  2  1 52  0.0000000  0  7G 4G 2G24G 8G 7G 5G 9
  20505152.890   -11406943.72349  -8837442.68148  20505153.308    20505158.292
       245.000         214.000
  23130497.916     8386710.19149   6547179.21346  23130498.099    23130503.603
       221.000         166.000
  21813074.574   -19300265.52449 -14980335.00647  21813073.933    21813080.842
       233.000         190.000
  22817393.235    -9239165.65649  -6777525.07146  22817392.458    22817398.443
       223.000         168.000
  21869474.903     7966241.72049   6218964.26747  21869474.458    21869480.253
       234.000         192.000
  22809116.752   -12444600.76049  -9349922.20346  22809116.267    22809122.054
       227.000         175.000
  21140281.902   -11180353.38449  -8694754.47247  21140281.977    21140287.262
       243.000         208.000
 99  1  2  1 52 30.0000000  0  7G 4G 2G24G 8G 7G 5G 9
  20502539.309   -11420678.02749  -8848144.71948  20502539.597    20502544.770
       246.000         214.000
  23143411.943     8454573.86849   6600059.98846  23143411.030    23143418.633
       218.000         165.000
  21796599.453   -19386842.47249 -15047797.52047  21796599.618    21796605.524
       234.000         191.000
  22800831.997    -9326194.97949  -6845340.07646  22800831.773    22800837.202
       222.000         168.000
  21881131.375     8027497.31749   6266695.90947  21881130.479    21881136.952
       233.000         192.000
  22794102.064   -12523503.50449  -9411404.81646  22794101.162    22794106.685
       226.000         175.000
  21136930.067   -11197967.44549  -8708479.70847  21136930.208    21136935.185
       243.000         208.000
 99  1  2  1 53  0.0000000  0  7G 4G 2G24G 8G 7G 5G 9
  20500041.334   -11433804.99149  -8858373.50348  20500041.427    20500046.626
       245.000         214.000
  23156374.738     8522694.08249   6653140.66746  23156374.535    23156382.098
       220.000         166.000
  21780189.686   -19473076.30149 -15114992.67147  21780189.848    21780196.339
       233.000         191.000
  22784341.057    -9412855.43049  -6912867.64646  22784340.100    22784346.816
       222.000         168.000
  21892805.248     8088844.32349   6314498.78647  21892804.877    21892811.091
       233.000         192.000
  22779094.122   -12602369.89349  -9472859.09546  22779093.372    22779099.867
       227.000         175.000
  21133683.266   -11215029.41149  -8721774.73347  21133683.186    21133688.771
       244.000         209.000
 99  1  2  1 53 30.0000000  0  7G 4G 2G24G 8G 7G 5G 9
  20497659.737   -11446319.78949  -8868125.28048  20497659.815    20497665.076
       244.000         214.000
  23169389.444     8591086.76649   6706433.67746  23169389.276    23169397.225
       218.000         166.000
  21763847.452   -19558954.49649 -15181910.70547  21763847.412    21763853.672
       233.000         191.000
  22767918.844    -9499154.24349  -6980113.43546  22767917.559    22767924.242
       222.000         168.000
  21904496.822     8150284.11549   6362373.95347  21904496.453    21904501.943
       234.000         192.000
  22764097.225   -12681179.11049  -9534268.82046  22764096.224    22764103.367
       226.000         177.000
  21130546.203   -11231514.98649  -8734620.62647  21130546.127    21130551.606
       243.000         209.000
 99  1  2  1 54  0.0000000  0  7G 4G 2G24G 8G 7G 5G 9
  20495393.275   -11458229.59349  -8877405.63248  20495393.654    20495398.667
       245.000         214.000
  23182454.411     8659743.67649   6759932.54446  23182453.991    23182461.473
       216.000         165.000
  21747574.321   -19644470.85749 -15248546.78647  21747574.078    21747581.055
       234.000         192.000
  22751562.722    -9585104.76849  -7047087.81346  22751561.302    22751568.340
       218.000         167.000
  21916205.047     8211810.73149   6410316.77647  21916204.697    21916210.369
       234.000         191.000
  22749110.802   -12759932.94649  -9595635.39246  22749110.109    22749116.061
       228.000         178.000
  21127515.726   -11247439.98549  -8747029.70947  21127515.585    21127520.982
       243.000         209.000
 99  1  2  1 54 30.0000000  0  7G 4G 2G24G 8G 7G 5G 9
  20493243.346   -11469527.75749  -8886209.38448  20493243.843    20493248.655
       245.000         214.000
  23195568.703     8728661.12649   6813634.44746  23195567.633    23195575.536
       215.000         164.000
  21731371.152   -19729619.13449 -15314896.05347  21731371.165    21731377.447
       234.000         192.000
  22735273.981    -9670701.12749  -7113786.21146  22735273.787    22735279.215
       219.000         166.000
  21927931.994     8273436.05749   6458336.52447  21927931.259    21927937.148
       233.000         191.000
  22734138.949   -12838610.22849  -9656942.32446  22734138.234    22734144.485
       227.000         180.000
  21124593.620   -11262795.75249  -8758995.22847  21124593.628    21124598.654
       243.000         209.000
 99  1  2  1 55  0.0000000  0  7G 4G 2G24G 8G 7G 5G 9
  20491210.230   -11480212.20349  -8894534.91048  20491210.470    20491215.298
       246.000         214.000
  23208730.500     8797827.93949   6867530.65746  23208729.751    23208737.844
       217.000         164.000
  21715234.999   -19814415.29149 -15380970.94747  21715234.656    21715241.507
       234.000         192.000
  22719056.055    -9755926.56849  -7180195.60846  22719056.005    22719061.359
       220.000         165.000
  21939678.343     8335163.95649   6506436.19047  21939677.637    21939683.775
       232.000         190.000
  22719183.078   -12917203.76849  -9718183.99746  22719182.997    22719187.806
       229.000         181.000
  21121782.687   -11277567.42549  -8770505.61747  21121782.624    21121787.744
       243.000         209.000
 99  1  2  1 55 30.0000000  0  7G 4G 2G24G 8G 7G 5G 9
  20489295.544   -11490273.66249  -8902374.99448  20489295.786    20489300.886
       245.000         214.000
  23221938.726     8867237.29949   6921615.86446  23221938.636    23221946.054
       218.000         164.000
  21699167.396   -19898850.25849 -15446764.38847  21699166.949    21699173.839
       234.000         193.000
  22702912.607    -9840760.86149  -7246300.21446  22702912.900    22702918.777
       220.000         165.000
  21951445.066     8396999.08449   6554619.41447  21951444.821    21951450.492
       234.000         190.000
  22704245.953   -12995699.18049  -9779349.21146  22704245.508    22704251.511
       228.000         181.000
  21119081.061   -11291764.17349  -8781568.01047  21119081.104    21119086.267
       243.000         209.000
 99  1  2  1 56  0.0000000  0  7G 4G 2G24G 8G 7G 5G 9
  20487503.282   -11499691.90149  -8909713.86848  20487503.716    20487508.797
       246.000         214.000
  23235194.128     8936894.37949   6975894.11146  23235193.420    23235201.071
       218.000         163.000
  21683171.121   -19982910.82649 -15512266.09347  21683171.223    21683177.509
       234.000         193.000
  22686847.673    -9925182.98049  -7312083.63746  22686847.322    22686853.073
       221.000         167.000
  21963234.613     8458953.58049   6602895.65347  21963233.950    21963240.121
       233.000         190.000
  22689326.727   -13074099.98349  -9840440.70746  22689326.876    22689332.209
       230.000         182.000
  21116488.336   -11305389.23049  -8792184.92747  21116488.439    21116493.860
       243.000         209.000
 99  1  2  1 56 30.0000000  0  7G 4G 2G24G 8G 7G 5G 9
  20485833.261   -11508468.30049  -8916552.60248  20485833.692    20485838.582
       246.000         214.000
  23248496.767     9006799.48349   7030365.61746  23248496.351    23248503.762
       218.000         163.000
  21667246.075   -20066597.60149 -15577476.53347  21667245.978    21667252.373
       235.000         193.000
  22670863.825   -10009178.98149  -7377535.02746  22670863.348    22670868.901
       223.000         169.000
  21975044.240     8521013.75949   6651254.23847  21975043.674    21975049.497
       232.000         189.000
  22674424.052   -13152414.47849  -9901464.95246  22674423.623    22674428.620
       231.000         182.000
  21114005.470   -11318436.86749  -8802351.89847  21114005.468    21114010.782
       243.000         209.000
 99  1  2  1 57  0.0000000  0  7G 4G 2G24G 8G 7G 5G 9
  20484286.074   -11516598.67249  -8922887.94048  20484286.344    20484291.232
       246.000         214.000
  23261850.535     9076973.49449   7085046.66546  23261850.036    23261857.268
       217.000         163.000
  21651394.626   -20149897.39649 -15642385.43347  21651394.721    21651401.420
       235.000         194.000
  22654962.053   -10092743.26649  -7442650.01446  22654961.876    22654967.315
       223.000         170.000
  21986872.980     8583174.37349   6699691.08447  21986872.075    21986878.148
       233.000         189.000
  22659537.082   -13230646.55049  -9962424.97546  22659536.619    22659541.631
       231.000         182.000
  21111631.071   -11330914.71149  -8812074.88547  21111631.172    21111635.971
       242.000         210.000
 99  1  2  1 57 30.0000000  0  7G 4G 2G24G 8G 7G 5G 9
  20482853.921   -11524124.61349  -8928752.29448  20482854.175    20482859.049
       246.000         214.000
  23275253.495     9147407.22749   7139930.06645  23275253.098    23275259.816
       217.000         162.000
  21635616.103   -20232814.05149 -15706995.77647  21635615.715    21635622.561
       235.000         194.000
  22639135.747   -10175911.34349  -7507456.26046  22639135.143    22639141.537
       223.000         172.000
  21998715.403     8645406.61849   6748183.75647  21998714.567    21998720.525
       232.000         189.000
  22644660.238   -13308824.66949 -10023342.94646  22644659.898    22644665.345
       230.000         182.000
  21109357.374   -11342863.07249  -8821385.28847  21109357.516    21109362.635
       242.000         210.000
 99  1  2  1 58  0.0000000  0  7G 4G 2G24G 8G 7G 5G 9
  20481532.379   -11531069.46749  -8934163.85248  20481532.750    20481537.580
       246.000         215.000
  23288704.188     9218091.10749   7195008.42045  23288704.276    23288711.182
       217.000         162.000
  21619907.584   -20315362.70349 -15771319.37147  21619907.489    21619914.281
       235.000         194.000
  22623382.246   -10258696.45349  -7571964.11246  22623381.649    22623387.940
       222.000         172.000
  22010566.624     8707685.12749   6796712.47147  22010566.142    22010571.806
       233.000         189.000
  22629790.476   -13386965.39249 -10084231.80646  22629790.102    22629795.434
       230.000         182.000
  21107185.142   -11354278.02349  -8830280.04547  21107184.740    21107190.447
       242.000         209.000
 99  1  2  1 58 30.0000000  0  7G 4G 2G24G 8G 7G 5G 9
  20480317.430   -11537454.31149  -8939139.03748  20480317.691    20480322.737
       246.000         215.000
  23302200.688     9289015.91549   7250274.49645  23302200.752    23302207.061
       217.000         161.000
  21604265.546   -20397561.98949 -15835370.73447  21604265.728    21604271.746
       235.000         194.000
  22607699.848   -10341108.51349  -7636181.26846  22607699.116    22607704.658
       223.000         171.000
  22022423.345     8769992.26849   6845263.49247  22022423.084    22022428.767
       234.000         189.000
  22614927.581   -13465070.27749 -10145092.72946  22614926.182    22614932.823
       227.000         180.000
  21105113.598   -11365163.72249  -8838762.39747  21105113.384    21105118.788
       242.000         209.000
 99  1  2  1 59  0.0000000  0  7G 4G 2G24G 8G 7G 5G 9
  20479208.703   -11543280.68349  -8943679.04948  20479208.879    20479213.883
       246.000         215.000
  23315742.819     9360180.36849   7305727.30445  23315743.097    23315749.623
       218.000         161.000
  21588689.154   -20479416.67849 -15899153.56847  21588689.261    21588695.408
       236.000         195.000
  22592088.121   -10423148.25349  -7700108.32146  22592087.903    22592093.896
       223.000         171.000
  22034286.302     8832332.07449   6893839.97047  22034285.482    22034291.179
       231.000         189.000
  22600073.522   -13543127.79749 -10205916.74746  22600072.575    22600078.324
       228.000         180.000
  21103141.592   -11375526.64049  -8846837.38247  21103141.409    21103146.784
       242.000         209.000
 99  1  2  1 59 30.0000000  0  7G 4G 2G24G 8G 7G 5G 9
  20478208.069   -11548539.03749  -8947776.44848  20478208.231    20478213.300
       246.000         215.000
  23329328.829     9431575.32049   7361359.72945  23329329.002    23329335.729
       218.000         162.000
  21573177.131   -20560932.69849 -15962672.51747  21573177.190    21573183.425
       236.000         195.000
  22576550.337   -10504800.03549  -7763733.04446  22576549.690    22576555.994
       223.000         171.000
  22046157.902     8894718.35849   6942452.66547  22046157.233    22046163.586
       231.000         188.000
  22585231.940   -13621120.92249 -10266690.58246  22585231.200    22585236.749
       228.000         180.000
  21101273.902   -11385341.33149  -8854485.18247  21101273.732    21101279.214
       242.000         210.000
 99  1  2  2  0  0.0000000  0  7G 4G 2G24G 8G 7G 5G 9
  20477321.386   -11553198.13749  -8951406.89848  20477321.685    20477326.698
       246.000         215.000
  23342957.542     9503194.44349   7417166.83545  23342956.967    23342964.360
       216.000         160.000
  21557731.421   -20642100.80549 -16025920.36247  21557731.133    21557737.387
       236.000         195.000
  22561091.607   -10586036.01949  -7827033.77046  22561091.491    22561096.707
       223.000         171.000
  22058043.292     8957176.89449   6991121.66747  22058043.045    22058048.979
       232.000         188.000
  22570406.054   -13699031.07149 -10327399.76346  22570405.923    22570411.722
       229.000         182.000
  21099517.304   -11394572.49549  -8861678.28447  21099517.398    21099522.499
       242.000         210.000
 99  1  2  2  0 30.0000000  0  7G 4G 2G24G 8G 7G 5G 9
  20476554.013   -11557230.65849  -8954549.10348  20476554.306    20476559.220
       246.000         215.000
  23356632.564     9575056.80949   7473163.48045  23356633.049    23356639.141
       219.000         159.000
  21542356.817   -20722894.28449 -16088876.28947  21542356.457    21542363.646
       236.000         195.000
  22545716.397   -10666833.62349  -7889992.89846  22545715.496    22545721.793
       222.000         171.000
  22069950.330     9019748.54749   7039878.80347  22069950.201    22069956.192
       232.000         188.000
  22555600.835   -13776832.64649 -10388024.33546  22555600.283    22555606.190
       229.000         182.000
  21097874.111   -11403207.77149  -8868407.05647  21097873.966    21097879.222
       242.000         210.000
 99  1  2  2  1  0.0000000  0  7G 4G 2G24G 8G 7G 5G 9
  20475910.656   -11560611.73049  -8957183.68548  20475910.892    20475915.521
       246.000         215.000
  23370356.336     9647173.35549   7529358.16645  23370355.809    23370362.572
       219.000         161.000
  21527059.067   -20803284.39249 -16151517.89547  21527059.187    21527065.460
       237.000         196.000
  22530427.527   -10747176.68649  -7952597.87546  22530427.280    22530432.303
       223.000         171.000
  22081882.742     9082453.23549   7088739.59946  22081882.331    22081887.954
       232.000         187.000
  22540817.286   -13854520.62949 -10448560.40346  22540816.947    22540822.274
       229.000         182.000
  21096346.258   -11411236.50249  -8874663.20247  21096346.373    21096351.309
       242.000         209.000
 99  1  2  2  1 30.0000000  0  7G 4G 2G24G 8G 7G 5G 9
  20475391.668   -11563338.68949  -8959308.57048  20475391.771    20475396.786
       246.000         214.000
  23384126.887     9719538.21349   7585746.36345  23384125.757    23384132.989
       216.000         160.000
  21511838.347   -20883269.97549 -16213844.30447  21511838.454    21511844.833
       237.000         196.000
  22515225.582   -10827063.33649  -8014847.18146  22515224.774    22515231.032
       225.000         172.000
  22093841.965     9145299.60449   7137710.80346  22093841.772    22093847.452
       230.000         186.000
  22526051.633   -13932114.45549 -10509023.08646  22526051.449    22526057.296
       229.000         182.000
  21094933.886   -11418658.53949  -8880446.59647  21094933.571    21094938.876
       242.000         209.000
 99  1  2  2  2  0.0000000  0  7G 4G 2G24G 8G 7G 5G 9
  20475002.349   -11565384.37349  -8960902.58948  20475002.641    20475007.604
       246.000         214.000
  23397950.972     9792184.47849   7642353.81545  23397951.135    23397957.141
       219.000         160.000
  21496700.983   -20962817.46849 -16275829.32847  21496700.824    21496707.047
       237.000         196.000
  22500114.143   -10906474.70949  -8076726.14946  22500114.275    22500119.017
       224.000         173.000
  22105828.938     9208292.28449   7186796.01146  22105829.093    22105834.293
       230.000         186.000
  22511306.333   -14009601.72849 -10569402.73846  22511305.288    22511312.082
       229.000         183.000
  21093637.746   -11425469.80949  -8885754.06947  21093637.599    21093642.721
       242.000         209.000
 99  1  2  2  2 30.0000000  0  7G 4G 2G24G 8G 7G 5G 9
  20474736.792   -11566779.52649  -8961989.70548  20474737.054    20474742.111
       245.000         214.000
  23411827.290     9865103.83249   7699174.09045  23411827.089    23411833.441
       219.000         160.000
  21481642.995   -21041947.09149 -16337488.74747  21481642.938    21481649.418
       238.000         196.000
  22485088.030   -10985436.93449  -8138255.12046  22485087.118    22485093.577
       224.000         173.000
  22117835.350     9271386.24549   7235960.13546  22117834.582    22117840.242
       232.000         186.000
  22496575.970   -14087009.95349 -10629720.80146  22496575.585    22496581.704
       230.000         183.000
  21092449.136   -11431715.95649  -8890621.18647  21092449.341    21092454.329
       243.000         209.000
 99  1  2  2  3  0.0000000  0  7G 4G 2G24G 8G 7G 5G 9
  20474592.152   -11567539.36949  -8962581.77548  20474592.405    20474597.569
       245.000         214.000
  23425755.362     9938297.34149   7756207.98645  23425755.207    23425761.972
       216.000         159.000
  21466663.558   -21120664.40549 -16398826.88347  21466663.448    21466669.762
       238.000         197.000
  22470146.931   -11063952.80749  -8199436.28846  22470146.691    22470152.279
       224.000         174.000
  22129857.293     9334560.86849   7285187.12046  22129857.069    22129862.749
       231.000         185.000
  22481860.148   -14164342.03849 -10689979.53246  22481859.672    22481865.397
       229.000         182.000
  21091368.242   -11437396.24649  -8895047.37147  21091368.110    21091373.370
       242.000         209.000
 99  1  2  2  3 30.0000000  0  7G 4G 2G24G 8G 7G 5G 9
  20474561.825   -11567698.69449  -8962705.90648  20474562.186    20474567.231
       246.000         214.000
  23439734.723    10011759.16649   7813450.93945  23439733.900    23439739.810
       217.000         158.000
  21451760.671   -21198979.54849 -16459851.63747  21451761.155    21451766.842
       239.000         197.000
  22455287.945   -11142037.41949  -8260281.41046  22455287.178    22455293.573
       224.000         173.000
  22141888.723     9397786.48749   7334453.83746  22141887.920    22141894.369
       230.000         185.000
  22467159.417   -14241594.72149 -10750176.39546  22467158.900    22467164.940
       229.000         182.000
  21090393.484   -11442518.54549  -8899038.76747  21090393.155    21090398.425
       242.000         209.000
 99  1  2  2  4  0.0000000  0  7G 4G 2G24G 8G 7G 5G 9
  20474635.798   -11567310.29549  -8962403.24348  20474636.024    20474641.033
       246.000         214.000
  23453758.110    10085452.19349   7870874.08145  23453758.251    23453763.276
       219.000         157.000
  21436928.964   -21276921.01249 -16520585.21347  21436928.983    21436934.856
       238.000         197.000
  22440504.054   -11219727.02849  -8320818.74646  22440504.742    22440508.736
       224.000         172.000
  22153918.953     9461006.10349   7383715.87246  22153918.172    22153924.393
       231.000         185.000
  22452470.505   -14318785.68949 -10810325.16246  22452470.748    22452476.208
       229.000         183.000
  21089519.344   -11447111.46949  -8902617.65847  21089519.170    21089524.475
       242.000         209.000
 99  1  2  2  4 30.0000000  0  7G 4G 2G24G 8G 7G 5G 9
  20474812.248   -11566382.88949  -8961680.57148  20474812.452    20474817.276
       246.000         214.000
  23467825.585    10159377.01349   7928477.82345  23467824.993    23467832.286
       218.000         159.000
  21422170.496   -21354476.97649 -16581018.40947  21422170.140    21422176.882
       238.000         197.000
  22425798.476   -11297004.99549  -8381035.33546  22425797.583    22425803.245
       223.000         172.000
  22165952.104     9524240.75249   7432989.62546  22165951.271    22165957.110
       229.000         184.000
  22437797.451   -14395892.94449 -10870408.69046  22437796.896    22437802.910
       228.000         182.000
  21088749.057   -11451159.36949  -8905771.85847  21088749.003    21088754.065
       242.000         209.000
 99  1  2  2  5  0.0000000  0  7G 4G 2G24G 8G 7G 5G 9
  20475086.376   -11564942.48249  -8960558.16348  20475086.822    20475091.639
       246.000         215.000
  23481929.109    10233491.42449   7986229.29245  23481929.149    23481935.991
       217.000         159.000
  21407480.232   -21431674.61249 -16641172.38147  21407480.460    21407486.607
       239.000         198.000
  22411167.011   -11373893.55149  -8440948.43846  22411165.973    22411173.258
       223.000         172.000
  22177983.508     9587466.54949   7482256.48346  22177982.662    22177988.565
       230.000         184.000
  22423134.863   -14472944.81949 -10930449.07946  22423134.017    22423139.668
       228.000         181.000
  21088080.540   -11454672.43849  -8908509.31247  21088080.616    21088085.565
       242.000         208.000
 99  1  2  2  5 30.0000000  0  7G 4G 2G24G 8G 7G 5G 9
  20475461.820   -11562969.43349  -8959020.70548  20475462.192    20475467.162
       246.000         215.000
  23496070.161    10307802.87249   8044134.30845  23496070.329    23496075.830
       219.000         159.000
  21392861.013   -21508499.06949 -16701035.57047  21392861.050    21392867.223
       239.000         198.000
  22396613.772   -11450370.49749  -8500540.84546  22396613.897    22396619.400
       223.000         173.000
  22190015.113     9650693.24249   7531524.03346  22190014.712    22190020.686
       230.000         183.000
  22408486.398   -14549922.88249 -10990431.94546  22408485.768    22408491.624
       229.000         182.000
  21087516.850   -11457634.42549  -8910817.34647  21087516.556    21087522.167
       242.000         209.000
 99  1  2  2  6  0.0000000  0  7G 4G 2G24G 8G 7G 5G 9
  20475942.910   -11560441.04349  -8957050.51948  20475943.389    20475948.104
       246.000         215.000
  23510249.972    10382317.31949   8102197.50845  23510249.283    23510256.222
       215.000         158.000
  21378314.337   -21584942.41949 -16760601.78947  21378314.491    21378320.248
       238.000         198.000
  22382140.917   -11526426.38149  -8559805.14846  22382140.876    22382145.105
       224.000         173.000
  22202052.245     9713948.28149   7580813.67746  22202051.230    22202057.265
       229.000         184.000
  22393853.903   -14626816.67649 -11050349.14446  22393853.708    22393858.552
       230.000         183.000
  21087059.046   -11460039.95349  -8912691.77847  21087059.163    21087064.331
       242.000         209.000
 99  1  2  2  6 30.0000000  0  7G 4G 2G24G 8G 7G 5G 9
  20476538.088   -11557313.65149  -8954613.57648  20476538.507    20476543.193
       246.000         215.000
  23524471.503    10457053.63649   8160433.58145  23524471.197    23524478.611
       216.000         157.000
  21363843.801   -21660985.69149 -16819856.25347  21363843.869    21363849.886
       239.000         198.000
  22367751.148   -11602045.13349  -8618728.80946  22367750.748    22367756.466
       224.000         173.000
  22214101.623     9777268.80449   7630154.34646  22214101.448    22214107.127
       229.000         183.000
  22379240.153   -14703612.15349 -11110189.73846  22379239.335    22379244.744
       231.000         184.000
  21086711.010   -11461868.95549  -8914116.96647  21086710.834    21086716.501
       242.000         209.000
 99  1  2  2  7  0.0000000  0  7G 4G 2G24G 8G 7G 5G 9
  20477252.705   -11553558.34949  -8951687.35148  20477253.243    20477257.641
       246.000         215.000
  23538738.677    10532028.18249   8218855.28845  23538738.440    23538745.578
       218.000         157.000
  21349451.223   -21736618.92649 -16878791.22347  21349451.013    21349457.341
       237.000         199.000
  22353446.703   -11677214.61549  -8677302.39546  22353446.031    22353452.017
       224.000         174.000
  22226167.467     9840675.59049   7679562.24046  22226167.015    22226173.113
       228.000         183.000
  22364646.350   -14780302.91949 -11169948.73646  22364646.008    22364651.104
       232.000         185.000
  21086474.748   -11463110.38449  -8915084.31547  21086474.777    21086480.112
       242.000         209.000
 99  1  2  2  7 30.0000000  0  7G 4G 2G24G 8G 7G 5G 9
  20478090.724   -11549154.56649  -8948255.81648  20478091.103    20478095.941
       246.000         215.000
  23553056.719    10607269.37849   8277484.78545  23553056.948    23553062.797
       220.000         156.000
  21335141.870   -21811814.66449 -16937385.27747  21335141.859    21335147.978
       238.000         199.000
  22339229.709   -11751925.48449  -8735518.62746  22339229.363    22339235.101
       227.000         176.000
  22238257.391     9904208.95749   7729068.76146  22238256.775    22238262.990
       228.000         183.000
  22350078.779   -14856856.14349 -11229600.56646  22350078.403    22350083.842
       231.000         186.000
  21086350.896   -11463761.27449  -8915591.50147  21086351.083    21086356.031
       242.000         209.000
 99  1  2  2  8  0.0000000  0  7G 4G 2G24G 8G 7G 5G 9
  20479054.402   -11544090.50049  -8944309.78048  20479054.486    20479059.519
       246.000         215.000
  23567424.865    10682772.10349   8336318.07445  23567424.921    23567431.285
       213.000         154.000
  21320915.336   -21886575.86049 -16995640.73147  21320915.148    21320921.291
       238.000         199.000
  22325098.470   -11826185.49049  -8793383.53746  22325098.286    22325103.997
       226.000         177.000
  22250372.848     9967876.66349   7778679.96546  22250372.378    22250378.475
       229.000         183.000
  22335532.323   -14933298.07949 -11289165.67146  22335531.753    22335537.983
       230.000         186.000
  21086336.921   -11463835.08949  -8915649.01647  21086337.203    21086342.041
       242.000         209.000
 99  1  2  2  8 30.0000000  0  7G 4G 2G24G 8G 7G 5G 9
  20480146.664   -11538350.30249  -8939836.88748  20480147.049    20480152.056
       246.000         215.000
  23581845.355    10758553.31549   8395368.33845  23581845.478    23581851.892
       216.000         155.000
  21306775.092   -21960883.08849 -17053542.44247  21306775.346    21306781.439
       238.000         199.000
  22311059.045   -11899963.02849  -8850872.47946  22311059.665    22311064.480
       227.000         178.000
  22262515.943    10031688.98249   7828403.85846  22262515.921    22262521.475
       229.000         182.000
  22321008.629   -15009620.25949 -11348637.44846  22321008.218    22321013.873
       231.000         186.000
  21086436.048   -11463314.10149  -8915243.04747  21086435.744    21086441.173
       241.000         209.000
 99  1  2  2  9  0.0000000  0  7G 4G 2G24G 8G 7G 5G 9
  20481360.584   -11531970.94249  -8934865.94848  20481360.999    20481366.050
       245.000         215.000
  23596317.271    10834603.11649   8454627.90445  23596317.659    23596323.237
       216.000         156.000
  21292718.474   -22034750.77449 -17111101.65447  21292718.438    21292724.411
       238.000         199.000
  22297110.820   -11973261.89749  -8907988.44846  22297110.412    22297115.616
       227.000         179.000
  22274682.427    10095623.59649   7878223.03846  22274681.799    22274687.938
       229.000         182.000
  22306505.444   -15085834.59049 -11408025.19546  22306504.828    22306511.131
       231.000         186.000
  21086643.490   -11462223.72949  -8914393.40747  21086643.530    21086648.917
       242.000         209.000
 99  1  2  2  9 30.0000000  0  7G 4G 2G24G 8G 7G 5G 9
  20482695.898   -11524953.84249  -8929398.06348  20482696.274    20482701.180
       246.000         215.000
  23610841.316    10910927.76249   8514101.62945  23610839.996    23610847.532
       215.000         155.000
  21278746.693   -22108172.76249 -17168313.56347  21278746.280    21278752.771
       238.000         199.000
  22283253.756   -12046081.34449  -8964730.84046  22283253.704    22283258.197
       227.000         179.000
  22286868.844    10159663.82049   7928124.52046  22286867.852    22286874.244
       227.000         182.000
  22292022.154   -15161944.80749 -11467331.81346  22292022.124    22292027.655
       233.000         187.000
  21086961.960   -11460550.39449  -8913089.50647  21086961.940    21086967.307
       242.000         209.000
 99  1  2  2 10  0.0000000  0  7G 4G 2G24G 8G 7G 5G 9
  20484150.465   -11517310.04949  -8923441.85348  20484150.688    20484155.735
       246.000         215.000
  23625415.965    10987518.67349   8573782.85245  23625415.275    23625421.326
       213.000         153.000
  21264855.764   -22181169.96649 -17225194.48047  21264855.667    21264862.007
       238.000         200.000
  22269490.791   -12118406.38149  -9021087.96746  22269490.592    22269496.364
       227.000         180.000
  22299069.592    10223779.64949   7978084.90546  22299069.016    22299075.287
       229.000         182.000
  22277555.572   -15237967.67549 -11526570.38046  22277555.249    22277560.999
       231.000         187.000
  21087392.475   -11458288.11249  -8911326.69547  21087392.562    21087397.575
       242.000         209.000
 99  1  2  2 10 30.0000000  0  7G 4G 2G24G 8G 7G 5G 9
  20485717.065   -11509077.53449  -8917026.89648  20485717.223    20485722.070
       245.000         215.000
  23640037.417    11064354.84349   8633655.16645  23640037.353    23640044.124
       215.000         152.000
  21251044.159   -22253750.39149 -17281750.63447  21251044.258    21251050.711
       238.000         200.000
  22255820.651   -12190243.62649  -9077064.99846  22255820.236    22255825.158
       229.000         180.000
  22311279.502    10287943.22549   8028082.51046  22311278.933    22311285.385
       228.000         182.000
  22263106.315   -15313898.55849 -11585737.27446  22263105.883    22263111.421
       232.000         186.000
  21087931.927   -11455453.41549  -8909117.83847  21087931.978    21087937.413
       242.000         209.000
 99  1  2  2 11  0.0000000  0  7G 4G 2G24G 8G 7G 5G 9
  20487393.796   -11500265.72049  -8910160.53148  20487393.992    20487399.066
       245.000         215.000
  23654701.979    11141416.91149   8693703.51645  23654701.941    23654708.155
       218.000         154.000
  21237311.040   -22325918.53949 -17337985.52947  21237310.976    21237317.532
       238.000         200.000
  22242241.223   -12261604.11249  -9132670.53746  22242240.237    22242246.231
       230.000         180.000
  22323495.963    10352140.97049   8078106.72646  22323495.536    22323501.255
       228.000         181.000
  22248673.345   -15389744.43049 -11644837.91846  22248672.644    22248678.602
       230.000         185.000
  21088579.274   -11452051.39949  -8906466.91247  21088579.380    21088584.689
       241.000         209.000
 99  1  2  2 11 30.0000000  0  7G 4G 2G24G 8G 7G 5G 9
  20489184.632   -11490854.52549  -8902827.12348  20489185.132    20489190.121
       245.000         215.000
  23669410.356    11218708.39249   8753930.62745  23669409.459    23669416.143
       217.000         155.000
  21223661.031   -22397649.50249 -17393879.75947  21223660.645    21223667.011
       238.000         200.000
  22228753.717   -12332481.17249  -9187899.38846  22228753.474    22228758.812
       228.000         179.000
  22335719.212    10416374.79149   8128159.05446  22335718.644    22335724.268
       228.000         181.000
  22234260.140   -15465486.06349 -11703857.34946  22234260.062    22234265.392
       232.000         187.000
  21089336.808   -11448070.48949  -8903364.89947  21089336.776    21089342.028
       242.000         209.000
 99  1  2  2 12  0.0000000  0  7G 4G 2G24G 8G 7G 5G 9
  20491086.696   -11480859.14049  -8895038.49948  20491087.255    20491092.036
       246.000         215.000
  23684159.675    11296216.96049   8814326.89545  23684158.498    23684165.793
       212.000         153.000
  21210096.140   -22468933.26549 -17449425.53047  21210096.236    21210102.480
       238.000         201.000
  22215359.262   -12402869.19949  -9242747.16146  22215358.867    22215364.170
       226.000         178.000
  22347949.234    10480643.49649   8178238.58046  22347948.737    22347954.958
       229.000         182.000
  22219869.644   -15541108.23049 -11762783.67447  22219869.275    22219874.678
       231.000         188.000
  21090200.712   -11443530.76649  -8899827.45547  21090200.628    21090205.522
       243.000         209.000
 99  1  2  2 12 30.0000000  0  7G 4G 2G24G 8G 7G 5G 9
  20493097.877   -11470290.47449  -8886803.16248  20493098.383    20493103.196
       246.000         215.000
  23698948.187    11373933.38849   8874885.14345  23698946.451    23698952.731
       212.000         151.000
  21196618.900   -22539756.79049 -17504612.66447  21196618.976    21196625.083
       239.000         201.000
  22202053.067   -12472793.02449  -9297233.22346  22202052.879    22202057.924
       227.000         178.000
  22360185.628    10544946.86349   8228345.10246  22360185.006    22360191.659
       227.000         181.000
  22205503.394   -15616603.61249 -11821611.22247  22205503.220    22205508.237
       233.000         189.000
  21091168.582   -11438444.46949  -8895864.10247  21091168.478    21091173.882
       242.000         209.000
 99  1  2  2 13  0.0000000  0  7G 4G 2G24G 8G 7G 5G 9
  20495219.277   -11459142.65049  -8878116.52848  20495219.625    20495224.462
       246.000         215.000
  23713777.502    11451862.49149   8935609.12445  23713776.374    23713784.583
       214.000         151.000
  21183226.834   -22610132.33649 -17559450.72847  21183226.617    21183233.214
       238.000         202.000
  22188832.391   -12542268.01949  -9351369.54846  22188832.331    22188837.373
       228.000         179.000
  22372426.904    10609274.66049   8278470.65746  22372427.391    22372432.354
       228.000         181.000
  22191161.491   -15691970.43949 -11880338.58747  22191160.729    22191166.497
       232.000         189.000
  21092239.146   -11432818.72349  -8891480.40147  21092239.067    21092244.092
       242.000         209.000
 99  1  2  2 13 30.0000000  0  7G 4G 2G24G 8G 7G 5G 9
  20497453.076   -11447403.79449  -8868969.35748  20497453.318    20497458.483
       245.000         215.000
  23728650.590    11530021.23149   8996512.01945  23728650.247    23728657.173
       213.000         151.000
  21169918.728   -22680066.72849 -17613945.03847  21169919.130    21169924.876
       240.000         202.000
  22175698.161   -12611289.05149  -9405152.13546  22175697.404    22175703.438
       228.000         179.000
  22384672.650    10673625.85549   8328614.45546  22384672.264    22384679.125
       227.000         181.000
  22176846.760   -15767194.74149 -11938954.90347  22176846.449    22176852.310
       233.000         189.000
  21093411.176   -11426659.69149  -8886681.15547  21093411.165    21093416.078
       242.000         209.000
 99  1  2  2 14  0.0000000  0  7G 4G 2G24G 8G 7G 5G 9
  20499799.126   -11435074.94849  -8859362.45248  20499799.374    20499804.428
       245.000         215.000
  23743568.087    11608414.18249   9057597.42145  23743567.021    23743574.245
       211.000         151.000
  21156690.778   -22749580.25449 -17668111.39847  21156690.788    21156696.710
       240.000         202.000
  22162652.186   -12679845.94149  -9458573.05446  22162652.475    22162657.823
       229.000         180.000
  22396925.164    10738013.58949   8378786.71846  22396924.512    22396931.239
       227.000         180.000
  22162558.225   -15842281.66249 -11997464.16847  22162558.040    22162562.668
       234.000         189.000
  21094684.424   -11419968.67549  -8881467.38047  21094684.324    21094689.689
       242.000         209.000
 99  1  2  2 14 30.0000000  0  7G 4G 2G24G 8G 7G 5G 9
  20502260.998   -11422137.31049  -8849281.16748  20502261.600    20502266.512
       246.000         215.000
  23758532.438    11687053.16349   9118874.49845  23758532.870    23758538.546
       212.000         149.000
  21143540.362   -22818686.51549 -17721960.41247  21143540.422    21143546.357
       240.000         203.000
  22149696.657   -12747927.87949  -9511623.87946  22149696.194    22149702.065
       229.000         182.000
  22409187.634    10802453.82549   8428999.89046  22409187.822    22409192.994
       227.000         180.000
  22148294.690   -15917237.03649 -12055870.94647  22148294.305    22148299.940
       234.000         190.000
  21096061.782   -11412730.41649  -8875827.17947  21096061.840    21096066.994
       242.000         209.000
 99  1  2  2 15  0.0000000  0  7G 4G 2G24G 8G 7G 5G 9
  20504844.133   -11408563.03949  -8838703.79848  20504844.611    20504849.391
       246.000         215.000
  23773548.732    11765963.66749   9180363.20145  23773548.875    23773554.698
       215.000         150.000
  21130470.109   -22887371.50649 -17775481.16647  21130470.370    21130476.385
       240.000         203.000
  22136838.285   -12815498.57649  -9564276.32946  22136837.406    22136843.576
       229.000         182.000
  22421464.127    10866967.00149   8479269.90546  22421463.304    22421469.552
       228.000         180.000
  22134058.657   -15992047.93049 -12114165.13147  22134058.030    22134063.807
       232.000         190.000
  21097548.874   -11404915.79049  -8869737.86047  21097548.961    21097553.912
       243.000         209.000
 99  1  2  2 15 30.0000000  0  7G 4G 2G24G 8G 7G 5G 9
  20507545.563   -11394367.48249  -8827642.31048  20507546.191    20507550.902
       246.000         215.000
  23788616.804    11845147.65749   9242065.00845  23788616.444    23788623.769
       213.000         150.000
  21117482.073   -22955624.03749 -17828664.93647  21117482.131    21117488.350
       240.000         203.000
  22124079.524   -12882546.32849  -9616521.30846  22124078.689    22124084.535
       228.000         181.000
  22433757.482    10931568.66549   8529608.86846  22433757.073    22433762.993
       227.000         180.000
  22119847.386   -16066728.38749 -12172357.67047  22119846.819    22119852.864
       232.000         190.000
  21099148.724   -11396508.65849  -8863186.84447  21099148.174    21099153.770
       242.000         209.000
 99  1  2  2 16  0.0000000  0  7G 4G 2G24G 8G 7G 5G 9
  20510359.573   -11379579.84149  -8816119.45848  20510359.743    20510364.864
       245.000         215.000
  23803733.385    11924586.37049   9303965.27845  23803732.339    23803740.236
       210.000         149.000
  21104576.808   -23023441.69749 -17881509.83947  21104576.426    21104582.725
       240.000         204.000
  22111416.310   -12949091.08349  -9668374.32846  22111415.516    22111421.409
       227.000         180.000
  22446065.327    10996247.09549   8580007.64546  22446064.603    22446070.709
       227.000         180.000
  22105655.775   -16141305.73549 -12230469.86947  22105655.093    22105661.088
       233.000         190.000
  21100859.912   -11387515.94349  -8856179.53847  21100860.049    21100865.377
       242.000         209.000
 99  1  2  2 16 30.0000000  0  7G 4G 2G24G 8G 7G 5G 9
  20513282.791   -11364218.01249  -8804149.19348  20513283.110    20513287.916
       246.000         215.000
  23818895.395    12004264.35749   9366052.01345  23818894.163    23818902.517
       211.000         147.000
  21091756.289   -23090813.89149 -17934007.62847  21091755.951    21091762.338
       240.000         204.000
  22098846.384   -13015146.17649  -9719845.80046  22098846.027    22098850.915
       227.000         180.000
  22458382.070    11060972.03249   8630442.67046  22458381.336    22458387.458
       228.000         179.000
  22091483.588   -16215780.96949 -12288502.50447  22091483.544    22091488.947
       234.000         191.000
  21102682.010   -11377940.90049  -8848718.46947  21102682.157    21102686.978
       242.000         209.000
 99  1  2  2 17  0.0000000  0  7G 4G 2G24G 8G 7G 5G 9
  20516313.784   -11348289.88849  -8791737.65948  20516314.251    20516318.991
       246.000         215.000
  23834100.492    12084167.51749   9428314.17945  23834100.386    23834106.818
       212.000         148.000
  21079023.426   -23157725.07849 -17986146.19547  21079023.256    21079029.226
       240.000         204.000
  22086368.726   -13080716.42349  -9770939.47446  22086368.575    22086373.209
       228.000         179.000
  22470704.318    11125725.68349   8680900.05546  22470703.795    22470709.901
       226.000         179.000
  22077331.230   -16290152.47149 -12346454.30947  22077330.582    22077336.513
       233.000         191.000
  21104613.561   -11367790.85649  -8840809.35047  21104613.600    21104618.610
       242.000         209.000
 99  1  2  2 17 30.0000000  0  7G 4G 2G24G 8G 7G 5G 9
  20519452.912   -11331793.69849  -8778883.47348  20519453.138    20519458.020
       246.000         214.000
  23849346.670    12164285.40849   9490743.67245  23849345.821    23849353.571
       211.000         148.000
  21066380.094   -23224165.95349 -18037918.28447  21066380.318    21066386.140
       241.000         204.000
  22073984.895   -13145793.48549  -9821648.83446  22073985.078    22073990.369
       229.000         180.000
  22483031.352    11190504.42249   8731377.00246  22483030.482    22483036.670
       224.000         178.000
  22063198.444   -16364420.29849 -12404325.32847  22063197.706    22063203.756
       233.000         191.000
  21106653.838   -11357068.99649  -8832454.65747  21106653.538    21106659.040
       242.000         209.000
 99  1  2  2 18  0.0000000  0  7G 4G 2G24G 8G 7G 5G 9
  20522703.654   -11314710.73349  -8765572.06248  20522704.148    20522708.775
       246.000         214.000
  23864633.601    12244618.49549   9553340.88345  23864633.558    23864639.877
       211.000         148.000
  21053828.143   -23290127.34049 -18089316.74247  21053828.188    21053834.197
       241.000         205.000
  22061699.630   -13210353.04649  -9871954.96646  22061699.703    22061704.417
       229.000         181.000
  22495364.077    11255313.91049   8781877.90746  22495363.224    22495369.553
       226.000         178.000
  22049090.815   -16438555.66949 -12462093.13247  22049090.942    22049095.909
       234.000         191.000
  21108802.396   -11345777.83149  -8823656.34247  21108802.300    21108807.822
       242.000         209.000
 99  1  2  2 18 30.0000000  0  7G 4G 2G24G 8G 7G 5G 9
  20526066.807   -11297037.55049  -8751800.73948  20526067.069    20526072.028
       246.000         215.000
  23879958.521    12325151.24449   9616093.64145  23879957.539    23879964.668
       211.000         148.000
  21041364.073   -23355626.42949 -18140354.96847  21041363.867    21041370.050
       241.000         205.000
  22049514.110   -13274388.20049  -9921852.47246  22049513.380    22049519.380
       228.000         181.000
  22507704.685    11320164.38449   8832410.74546  22507704.750    22507709.577
       227.000         178.000
  22035009.795   -16512552.34249 -12519752.87747  22035009.900    22035015.105
       235.000         192.000
  21111059.649   -11333915.88949  -8814413.26747  21111059.408    21111064.567
       241.000         209.000
 99  1  2  2 19  0.0000000  0  7G 4G 2G24G 8G 7G 5G 9
  20529547.399   -11278746.68349  -8737548.10748  20529547.630    20529552.528
       246.000         214.000
  23895325.676    12405906.78849   9679020.03245  23895324.691    23895331.908
       210.000         148.000
  21028990.942   -23420647.47949 -18191020.69947  21028990.773    21028996.858
       240.000         205.000
  22037431.953   -13337880.48149  -9971326.96446  22037431.893    22037437.026
       230.000         181.000
  22520061.284    11385097.91349   8883008.29546  22520060.606    22520066.775
       226.000         178.000
  22020955.994   -16586405.60949 -12577300.85847  22020955.510    22020961.333
       235.000         192.000
  21113428.614   -11321466.57949  -8804712.50847  21113428.697    21113433.869
       243.000         209.000
 99  1  2  2 19 30.0000000  0  8G 4G 2G24G 8G 7G 5G 9G16
  20533131.913   -11259909.81049  -8722870.01248  20533132.128    20533137.203
       245.000         214.000
  23910727.964    12486846.45349   9742089.88145  23910727.278    23910735.169
       209.000         146.000
  21016696.517   -23485254.48349 -18241363.79847  21016696.344    21016702.569
       240.000         205.000
  22025442.227   -13400886.96349 -10020422.89946  22025442.024    22025447.438
       230.000         182.000
  22532423.836    11450064.67349   8933631.75846  22532423.418    22532429.094
       225.000         176.000
  22006919.852   -16660166.29549 -12634776.70647  22006919.377    22006925.079
       235.000         193.000
  21115896.040   -11308500.42049  -8794609.00747  21115896.019    21115901.149
       242.000         209.000
  24587639.888   -10198291.10749  -7673817.63545  24587637.123    24587647.907
       206.000         143.000
 99  1  2  2 20  0.0000000  0  8G 4G 2G24G 8G 7G 5G 9G16
  20536823.609   -11240509.61549  -8707752.96948  20536823.653    20536828.775
       246.000         214.000
  23926173.105    12568011.03749   9805334.97045  23926172.106    23926179.577
       207.000         145.000
  21004485.405   -23549424.54849 -18291366.42347  21004485.317    21004491.340
       241.000         205.000
  22013547.258   -13463395.37749 -10069130.75346  22013546.799    22013551.990
       229.000         182.000
  22544800.524    11515104.27549   8984311.96046  22544800.589    22544806.006
       227.000         177.000
  21992910.993   -16733783.43749 -12692140.70547  21992910.735    21992916.161
       235.000         194.000
  21118465.867   -11294995.71349  -8784085.86747  21118465.990    21118470.951
       242.000         209.000
  24584497.495   -10214802.85949  -7686683.92445  24584497.906    24584502.661
       207.000         141.000
 99  1  2  2 20 30.0000000  0  8G 4G 2G24G 8G 7G 5G 9G16
  20540627.668   -11220518.99049  -8692175.85248  20540627.929    20540632.651
       246.000         214.000
  23941668.443    12649440.56049   9868786.53545  23941666.939    23941675.675
       211.000         145.000
  20992364.147   -23613122.12549 -18341000.88247  20992364.079    20992370.268
       241.000         206.000
  22001751.120   -13525384.43849 -10117433.90446  22001751.285    22001755.648
       230.000         181.000
  22557195.808    11580241.29149   9035068.08546  22557195.479    22557201.529
       225.000         177.000
  21978933.174   -16807236.98649 -12749377.22147  21978932.851    21978938.795
       236.000         194.000
  21121142.896   -11280927.70649  -8773123.78847  21121142.927    21121148.276
       241.000         209.000
  24581443.801   -10230850.97449  -7699188.87345  24581442.451    24581449.803
       205.000         141.000
 99  1  2  2 21  0.0000000  0  8G 4G 2G24G 8G 7G 5G 9G16
  20544539.160   -11199963.87649  -8676158.87348  20544539.471    20544544.336
       245.000         214.000
  23957213.597    12731129.58849   9932440.28945  23957213.546    23957219.067
       209.000         143.000
  20980330.717   -23676358.30949 -18390275.80947  20980330.589    20980336.950
       241.000         206.000
  21990051.020   -13586869.25849 -10165344.14746  21990050.445    21990055.898
       230.000         182.000
  22569599.858    11645425.47149   9085860.96246  22569599.361    22569605.706
       226.000         177.000
  21964982.726   -16880547.22449 -12806502.07547  21964982.219    21964987.813
       234.000         194.000
  21123920.622   -11266330.80149  -8761749.57247  21123920.774    21123925.819
       242.000         209.000
  24578475.802   -10246445.81249  -7711340.68945  24578476.695    24578483.032
       210.000         141.000
 99  1  2  2 21 30.0000000  0  8G 4G 2G24G 8G 7G 5G 9G16
  20548552.647   -11178873.01749  -8659724.42448  20548552.943    20548557.913
       245.000         214.000
  23972803.057    12813053.27449   9996276.91645  23972801.945    23972811.426
       206.000         144.000
  20968378.966   -23739164.96749 -18439216.04347  20968378.943    20968385.219
       242.000         206.000
  21978443.509   -13647866.42549 -10212874.37946  21978442.871    21978448.494
       230.000         183.000
  22582006.721    11710623.55149   9136664.66346  22582006.902    22582012.138
       226.000         176.000
  21951057.749   -16953722.66649 -12863521.88447  21951057.549    21951062.710
       236.000         193.000
  21126796.387   -11251218.74849  -8749973.94447  21126796.563    21126801.720
       242.000         209.000
  24575596.229   -10261578.29649  -7723132.14945  24575594.280    24575601.335
       204.000         140.000
 99  1  2  2 22  0.0000000  0  8G 4G 2G24G 8G 7G 5G 9G16
  20552672.265   -11157224.27749  -8642855.26348  20552672.661    20552677.335
       246.000         215.000
  23988433.585    12895192.33449  10060281.34345  23988433.633    23988441.446
       209.000         145.000
  20956509.063   -23801541.84749 -18487821.38847  20956509.320    20956515.339
       241.000         206.000
  21966931.007   -13708364.90549 -10260016.03746  21966930.630    21966935.479
       231.000         183.000
  22594416.455    11775836.97949   9187480.32746  22594415.851    22594420.874
       226.000         176.000
  21937156.467   -17026774.45449 -12920445.35047  21937156.563    21937161.990
       237.000         193.000
  21129773.698   -11235572.79149  -8737782.29147  21129774.162    21129778.532
       242.000         209.000
  24572809.905   -10276218.46949  -7734540.09445  24572811.187    24572817.409
       210.000         139.000
 99  1  2  2 22 30.0000000  0  8G 4G 2G24G 8G 7G 5G 9G16
  20556902.610   -11134993.48849  -8625532.56248  20556902.972    20556907.830
       246.000         215.000
  24004105.600    12977547.99449  10124454.55245  24004105.643    24004111.811
       206.000         144.000
  20944724.042   -23863472.46549 -18536078.99047  20944723.879    20944730.048
       241.000         206.000
  21955517.979   -13768340.78649 -10306750.48746  21955518.101    21955522.735
       231.000         183.000
  22606827.275    11841056.96649   9238301.09546  22606826.120    22606832.432
       225.000         176.000
  21923276.124   -17099716.75949 -12977283.49647  21923275.872    21923281.221
       236.000         194.000
  21132855.764   -11219376.84249  -8725162.07547  21132855.968    21132860.917
       243.000         209.000
  24570116.904   -10290371.72549  -7745568.52445  24570115.693    24570122.895
       201.000         138.000
 99  1  2  2 23  0.0000000  0  8G 4G 2G24G 8G 7G 5G 9G16
  20561250.608   -11112144.71749  -8607728.31548  20561250.952    20561255.915
       246.000         215.000
  24019821.958    13060140.28349  10188812.17745  24019821.963    24019829.856
       209.000         143.000
  20933029.833   -23924925.45849 -18583964.42547  20933029.755    20933035.819
       241.000         206.000
  21944210.293   -13827762.84449 -10353053.37746  21944209.960    21944215.818
       230.000         184.000
  22619245.592    11906315.28149   9289151.74146  22619245.682    22619251.591
       226.000         176.000
  21909423.938   -17172510.35149 -13034005.75447  21909423.871    21909429.168
       237.000         195.000
  21136051.697   -11202582.46549  -8712075.55347  21136051.696    21136056.746
       242.000         209.000
  24567518.312   -10304025.48449  -7756207.79345  24567520.599    24567525.268
       211.000         138.000
 99  1  2  2 23 30.0000000  0  8G 4G 2G24G 8G 7G 5G 9G16
  20565717.525   -11088670.87349  -8589437.00148  20565717.830    20565722.710
       246.000         215.000
  24035583.569    13142968.76849  10253353.78745  24035583.072    24035591.406
       206.000         142.000
  20921428.322   -23985891.51549 -18631470.41847  20921428.117    20921434.302
       241.000         206.000
  21933008.651   -13886627.78449 -10398922.15846  21933008.394    21933014.054
       231.000         184.000
  22631677.379    11971643.95849   9340057.20846  22631677.356    22631682.665
       226.000         177.000
  21895602.011   -17245145.21949 -13090604.33347  21895601.371    21895607.439
       236.000         195.000
  21139363.234   -11185180.36149  -8698515.47147  21139363.263    21139368.384
       243.000         209.000
  24565014.592   -10317186.17349  -7766462.81545  24565011.067    24565020.858
       205.000         138.000
 99  1  2  2 24  0.0000000  0  8G 4G 2G24G 8G 7G 5G 9G16
  20570305.483   -11064560.94849  -8570650.03448  20570305.794    20570310.554
       246.000         214.000
  24051392.961    13226046.64649  10318089.77345  24051393.737    24051399.626
       208.000         142.000
  20909925.517   -24046338.64449 -18678572.05147  20909925.470    20909931.646
       241.000         206.000
  21921914.242   -13944929.59849 -10444352.14046  21921913.825    21921919.001
       232.000         184.000
  22644124.350    12037052.89749   9391025.22346  22644123.300    22644129.702
       224.000         176.000
  21881814.509   -17317598.77849 -13147061.62747  21881814.095    21881819.588
       237.000         195.000
  21142789.858   -11167173.51149  -8684484.15847  21142790.071    21142794.945
       243.000         209.000
  24562601.158   -10329868.94749  -7776345.47245  24562602.474    24562606.037
       213.000         141.000
 99  1  2  2 24 30.0000000  0  8G 4G 2G24G 8G 7G 5G 9G16
  20575011.223   -11039832.20149  -8551380.86948  20575011.306    20575016.453
       246.000         214.000
  24067250.664    13309379.83649  10383024.71445  24067250.269    24067258.705
       208.000         142.000
  20898523.395   -24106257.20949 -18725261.81447  20898523.673    20898529.666
       242.000         207.000
  21910924.051   -14002683.10149 -10489354.86146  21910924.153    21910928.914
       231.000         184.000
  22656585.031    12102535.20449   9442050.40146  22656584.683    22656590.212
       225.000         176.000
  21868063.280   -17389861.76849 -13203370.43147  21868063.245    21868068.408
       238.000         196.000
  21146330.705   -11148566.29749  -8669985.02847  21146330.620    21146335.994
       242.000         209.000
  24560275.743   -10342087.01749  -7785866.00645  24560273.506    24560283.307
       204.000         140.000
 99  1  2  2 25  0.0000000  0  8G 4G 2G24G 8G 7G 5G 9G16
  20579828.779   -11014515.54449  -8531653.58948  20579829.181    20579833.556
       246.000         214.000
  24083154.412    13392953.60449  10448147.10045  24083153.929    24083161.631
       204.000         140.000
  20887218.050   -24165667.50749 -18771555.52747  20887217.900    20887224.175
       242.000         207.000
  21900035.880   -14059900.45249 -10533939.81746  21900036.290    21900041.372
       231.000         185.000
  22669059.980    12168091.17849   9493132.98746  22669059.647    22669065.020
       226.000         176.000
  21854348.423   -17461933.60049 -13259530.27147  21854347.680    21854353.593
       238.000         196.000
  21149982.322   -11129376.60949  -8655032.02447  21149982.092    21149987.266
       242.000         209.000
  24558041.420   -10353829.76249  -7795016.16645  24558041.971    24558046.326
       210.000         142.000
 99  1  2  2 25 30.0000000  0  8G 4G 2G24G 8G 7G 5G 9G16
  20584754.740   -10988629.49749  -8511482.63348  20584754.921    20584759.919
       245.000         214.000
  24099101.227    13476755.08049  10513446.90145  24099101.089    24099108.347
       209.000         141.000
  20876007.532   -24224579.18749 -18817460.71147  20876007.341    20876013.603
       241.000         207.000
  21889247.391   -14116594.52749 -10578117.00846  21889247.299    21889252.517
       232.000         185.000
  22681547.345    12233712.29049   9544266.32946  22681546.842    22681552.446
       224.000         175.000
  21840666.963   -17533829.97049 -13315553.40047  21840666.711    21840671.967
       237.000         196.000
  21153738.990   -11109635.22849  -8639649.13547  21153738.941    21153744.154
       242.000         209.000
  24555899.070   -10365084.94049  -7803786.40445  24555899.055    24555905.542
       207.000         140.000
 99  1  2  2 26  0.0000000  0  8G 4G 2G24G 8G 7G 5G 9G16
  20589786.810   -10962185.60949  -8490876.98948  20589786.997    20589791.978
       245.000         214.000
  24115087.598    13560762.20349  10578906.97245  24115086.203    24115095.284
       205.000         141.000
  20864892.457   -24282988.90949 -18862974.75847  20864892.356    20864898.555
       242.000         207.000
  21878557.182   -14172771.93649 -10621891.59946  21878556.910    21878562.416
       231.000         186.000
  22694041.213    12299369.17549   9595427.54546  22694041.352    22694047.066
       226.000         175.000
  21827017.449   -17605558.70149 -13371445.88847  21827017.400    21827022.493
       238.000         196.000
  21157599.541   -11089347.89949  -8623840.83047  21157599.758    21157604.859
       242.000         209.000
  24553851.625   -10375847.05249  -7812172.38045  24553850.933    24553857.240
       206.000         142.000
 99  1  2  2 26 30.0000000  0  8G 4G 2G24G 8G 7G 5G 9G16
  20594922.869   -10935195.11449  -8469845.42848  20594923.281    20594927.989
       245.000         214.000
  24131111.591    13644969.73249  10644523.17445  24131111.609    24131119.285
       205.000         141.000
  20853869.552   -24340914.59049 -18908111.63447  20853869.527    20853875.452
       241.000         207.000
  21867966.759   -14228425.05149 -10665257.66446  21867966.832    21867972.223
       233.000         186.000
  22706540.490    12365052.19049   9646609.10946  22706540.719    22706546.368
       225.000         175.000
  21813396.167   -17677139.22449 -13427222.89747  21813395.730    21813400.924
       238.000         196.000
  21161562.835   -11068521.02749  -8607612.10047  21161562.565    21161568.182
       242.000         209.000
  24551898.759   -10386106.60749  -7820166.85945  24551899.194    24551905.974
       211.000         143.000
 99  1  2  2 27  0.0000000  0  8G 4G 2G24G 8G 7G 5G 9G16
  20600160.925   -10907668.74249  -8448396.29448  20600161.015    20600166.179
       245.000         214.000
  24147172.342    13729369.08549  10710288.87545  24147172.181    24147179.918
       205.000         142.000
  20842937.673   -24398361.65449 -18952875.55747  20842937.595    20842943.631
       242.000         207.000
  21857478.920   -14283539.84449 -10708204.25446  21857478.802    21857484.570
       232.000         187.000
  22719043.691    12430756.86249   9697807.56746  22719043.473    22719048.658
       225.000         175.000
  21799802.320   -17748575.17349 -13482887.24347  21799802.121    21799807.196
       237.000         196.000
  21165626.194   -11047167.80749  -8590973.22647  21165626.222    21165631.136
       242.000         209.000
  24550044.394   -10395855.27149  -7827763.11745  24550044.258    24550049.597
       208.000         143.000
 99  1  2  2 27 30.0000000  0  8G 4G 2G24G 8G 7G 5G 9G16
  20605502.629   -10879597.74549  -8426522.78248  20605502.957    20605507.706
       246.000         214.000
  24163269.437    13813960.17449  10776203.95045  24163269.956    24163277.131
       207.000         141.000
  20832098.901   -24455319.60349 -18997258.35547  20832098.988    20832104.867
       242.000         207.000
  21847094.240   -14338111.73849 -10750727.78746  21847093.482    21847099.515
       232.000         187.000
  22731549.531    12496475.68749   9749017.04246  22731549.196    22731554.153
       225.000         174.000
  21786236.557   -17819864.05149 -13538436.99147  21786236.183    21786241.790
       237.000         197.000
  21169788.834   -11025292.72049  -8573927.70947  21169788.750    21169794.020
       241.000         208.000
  24548284.854   -10405099.52049  -7834966.45245  24548284.057    24548291.625
       210.000         142.000
 99  1  2  2 28  0.0000000  0  8G 4G 2G24G 8G 7G 5G 9G16
  20610948.775   -10850978.21849  -8404221.84148  20610949.317    20610953.759
       246.000         214.000
  24179406.333    13898757.70349  10842279.90545  24179404.577    24179414.904
       204.000         140.000
  20821352.200   -24511793.97949 -19041264.34347  20821352.328    20821358.205
       242.000         207.000
  21836815.412   -14392127.14949 -10792817.71446  21836815.277    21836820.067
       232.000         186.000
  22744057.130    12562204.02849   9800233.93546  22744057.047    22744062.257
       224.000         174.000
  21772699.431   -17891001.84949 -13593869.00747  21772698.814    21772704.715
       236.000         197.000
  21174052.630   -11002886.04149  -8556467.96847  21174052.399    21174057.703
       241.000         208.000
  24546621.616   -10413841.46549  -7841778.28345  24546619.669    24546626.589
       207.000         141.000
 99  1  2  2 28 30.0000000  0  8G 4G 2G24G 8G 7G 5G 9G16
  20616499.067   -10821811.67649  -8381494.65248  20616499.344    20616504.138
       246.000         214.000
  24195583.972    13983771.67049  10908524.46145  24195584.405    24195590.997
       204.000         140.000
  20810692.578   -24567810.47549 -19084913.54547  20810692.367    20810698.438
       242.000         208.000
  21826642.583   -14445585.72149 -10834473.73246  21826642.510    21826647.499
       233.000         186.000
  22756568.333    12627951.22549   9851465.52346  22756568.855    22756574.132
       225.000         174.000
  21759188.293   -17962002.76449 -13649194.36447  21759187.798    21759193.321
       237.000         198.000
  21178414.718   -10979962.98249  -8538605.84347  21178414.529    21178420.211
       241.000         208.000
  24545051.408   -10422089.57849  -7848205.38545  24545050.105    24545057.575
       207.000         139.000
 99  1  2  2 29  0.0000000  0  8G 4G 2G24G 8G 7G 5G 9G16
  20622154.536   -10792092.15149  -8358336.56648  20622154.929    20622159.367
       248.000         214.000
  24211801.125    14068993.43349  10974930.99445  24211801.409    24211808.563
       208.000         139.000
  20800121.390   -24623362.68349 -19128200.96247  20800121.446    20800127.391
       242.000         208.000
  21816575.647   -14498488.05949 -10875696.32746  21816575.329    21816581.084
       232.000         187.000
  22769085.214    12693727.23349   9902719.55446  22769085.340    22769090.323
       223.000         173.000
  21745703.923   -18032863.77149 -13704410.71247  21745703.313    21745708.880
       238.000         198.000
  21182875.870   -10956519.47049  -8520338.17247  21182875.860    21182880.921
       242.000         208.000
  24543573.950   -10429854.94049  -7854256.24945  24543573.238    24543579.543
       208.000         139.000
 99  1  2  2 29 30.0000000  0  8G 4G 2G24G 8G 7G 5G 9G16
  20627920.920   -10761789.36349  -8334723.99548  20627921.377    20627926.183
       248.000         214.000
  24228062.294    14154445.24649  11041516.80745  24228063.321    24228068.865
       206.000         139.000
  20789639.857   -24678443.47149 -19171121.03547  20789639.712    20789645.659
       242.000         208.000
  21806616.259   -14550825.06949 -10916478.40646  21806615.744    21806620.675
       231.000         187.000
  22781611.331    12759552.62249   9954012.06446  22781611.509    22781616.612
       224.000         172.000
  21732251.334   -18103557.43449 -13759496.65247  21732251.176    21732256.276
       238.000         198.000
  21187440.828   -10932530.75449  -8501645.67147  21187440.620    21187446.345
       242.000         208.000
  24542188.479   -10437134.49549  -7859928.57745  24542188.436    24542194.415
       206.000         138.000
 99  1  2  2 30  0.0000000  0  8G 4G 2G24G 8G 7G 5G 9G16
  20633797.970   -10730905.14849  -8310658.36248  20633798.179    20633803.171
       248.000         214.000
  24244369.320    14240140.05649  11108291.91845  24244368.583    24244377.519
       202.000         138.000
  20779250.443   -24733039.97949 -19213663.74747  20779250.224    20779256.219
       243.000         208.000
  21796765.525   -14602590.62649 -10956815.19346  21796765.014    21796771.161
       231.000         187.000
  22794150.234    12825444.69249  10005356.54346  22794149.219    22794154.973
       223.000         172.000
  21718833.188   -18174070.16349 -13814441.61547  21718832.825    21718838.349
       238.000         198.000
  21192114.933   -10907968.51849  -8482506.27247  21192115.344    21192119.720
       243.000         208.000
  24540896.439   -10443923.09049  -7865218.33845  24540897.710    24540903.006
       207.000         140.000
 99  1  2  2 30 30.0000000  0  8G 4G 2G24G 8G 7G 5G 9G16
  20639779.256   -10699473.35249  -8286166.04248  20639779.818    20639784.673
       248.000         214.000
  24260717.931    14326051.67349  11175235.96645  24260717.375    24260726.605
       202.000         138.000
  20768951.688   -24787160.15349 -19255835.29447  20768951.754    20768957.775
       243.000         208.000
  21787020.264   -14653801.81249 -10996719.99846  21787019.780    21787025.553
       231.000         187.000
  22806698.979    12891389.51249  10056742.13046  22806697.992    22806703.855
       222.000         171.000
  21705448.188   -18244408.90649 -13869251.00247  21705447.691    21705453.414
       237.000         198.000
  21196894.761   -10882850.36249  -8462933.68847  21196894.875    21196899.742
       242.000         208.000
  24539693.114   -10450245.03049  -7870144.50545  24539692.155    24539700.450
       206.000         141.000
 99  1  2  2 31  0.0000000  0  8G 4G 2G24G 8G 7G 5G 9G16
  20645862.306   -10667506.88949  -8261257.10148  20645862.667    20645867.409
       247.000         213.000
  24277105.681    14412169.76749  11242340.87145  24277106.279    24277112.318
       202.000         137.000
  20758746.041   -24840790.85949 -19297625.43447  20758746.069    20758751.742
       242.000         208.000
  21777379.440   -14704464.47649 -11036197.36946  21777378.964    21777384.478
       230.000         187.000
  22819256.304    12957378.19349  10108161.87746  22819256.178    22819262.255
       224.000         171.000
  21692097.704   -18314565.88249 -13923918.74747  21692097.723    21692102.988
       239.000         199.000
  21201780.310   -10857176.62749  -8442928.17647  21201780.323    21201785.275
       241.000         208.000
  24538580.592   -10456093.18349  -7874701.44945  24538581.034    24538586.356
       207.000         143.000
 99  1  2  2 31 30.0000000  0  8G 4G 2G24G 8G 7G 5G 9G16
  20652041.707   -10635033.87849  -8235953.44548  20652041.809    20652046.873
       247.000         213.000
  24293529.945    14498480.30649  11309595.79845  24293530.439    24293537.947
       204.000         138.000
  20748630.443   -24893948.86949 -19339047.24547  20748630.652    20748636.610
       242.000         208.000
  21767837.834   -14754605.64649 -11075268.40747  21767837.889    21767842.721
       232.000         188.000
  22831814.875    13023373.55149  10159586.82046  22831813.974    22831819.938
       221.000         171.000
  21678778.657   -18384558.48549 -13978458.42447  21678778.034    21678783.614
       238.000         199.000
  21206767.203   -10830970.12449  -8422507.53447  21206766.981    21206772.405
       241.000         208.000
  24537556.901   -10461470.21949  -7878891.35345  24537557.992    24537565.078
       209.000         141.000
 99  1  2  2 32  0.0000000  0  8G 4G 2G24G 8G 7G 5G 9G16
  20658317.878   -10602052.11449  -8210253.35648  20658318.204    20658322.735
       247.000         213.000
  24309991.858    14584987.73949  11377004.17645  24309992.522    24309998.871
       208.000         139.000
  20738609.241   -24946610.64849 -19380082.37547  20738609.190    20738615.207
       242.000         208.000
  21758398.427   -14804210.29449 -11113921.35647  21758398.024    21758404.201
       233.000         189.000
  22844373.689    13089371.87149  10211014.09446  22844373.000    22844379.074
       222.000         170.000
  21665489.462   -18454393.06849 -14032874.96047  21665489.044    21665494.492
       239.000         199.000
  21211853.284   -10804242.05549  -8401680.46747  21211853.020    21211858.248
       241.000         207.000
  24536625.219   -10466370.12749  -7882709.40145  24536624.888    24536629.814
       209.000         140.000
 99  1  2  2 32 30.0000000  0  7G 4G24G 8G 7G 5G 9G16
  20664690.336   -10568564.55649  -8184159.15148  20664690.562    20664695.327
       246.000         213.000
  20728676.546   -24998807.26749 -19420755.05047  20728676.676    20728682.606
       242.000         208.000
  21749057.531   -14853297.22949 -11152170.89547  21749057.841    21749063.108
       234.000         190.000
  22856926.437    13155336.71649  10262415.25946  22856926.539    22856932.485
       222.000         170.000
  21652224.666   -18524100.15549 -14087192.15847  21652224.217    21652229.350
       238.000         199.000
  21217029.894   -10777038.90249  -8380483.21347  21217029.806    21217034.880
       242.000         207.000
  24535780.321   -10470809.04749  -7886168.30145  24535779.263    24535787.217
       208.000         138.000
 99  1  2  2 33  0.0000000  0  7G 4G24G 8G 7G 5G 9G16
  20671163.449   -10534547.93749  -8157652.67748  20671163.651    20671168.619
       246.000         213.000
  20718831.909   -25050541.20549 -19461067.18847  20718831.641    20718837.566
       242.000         208.000
  21739813.533   -14901875.51349 -11190024.08847  21739813.290    21739818.452
       234.000         190.000
  22869471.032    13221258.72049  10313783.04646  22869470.065    22869476.046
       221.000         169.000
  21638983.888   -18593680.81049 -14141410.83047  21638983.404    21638988.987
       239.000         199.000
  21222296.616   -10749362.30049  -8358917.03147  21222296.620    21222301.506
       242.000         207.000
  24535024.156   -10474783.23349  -7889265.00745  24535023.277    24535030.047
       204.000         139.000
 99  1  2  2 33 30.0000000  0  7G 4G24G 8G 7G 5G 9G16
  20677769.774   -10499831.11049  -8130600.60248  20677770.327    20677774.877
       247.000         213.000
  20709105.507   -25101653.28349 -19500894.76747  20709105.595    20709111.553
       244.000         208.000
  21730699.274   -14949771.06349 -11227345.28647  21730699.270    21730704.044
       233.000         190.000
  22882040.741    13287314.03549  10365254.72646  22882039.614    22882046.389
       222.000         169.000
  21625800.719   -18662959.01649 -14195393.83647  21625800.390    21625805.651
       239.000         200.000
  21227687.226   -10721034.50949  -8336843.43747  21227686.948    21227692.367
       241.000         207.000
  24534385.008   -10478140.43849  -7891881.00345  24534386.308    24534391.812
       209.000         140.000
 99  1  2  2 34  0.0000000  0  7G 4G24G 8G 7G 5G 9G16
  20684502.817   -10464448.83349  -8103029.98747  20684502.947    20684507.830
       247.000         212.000
  20699488.534   -25152191.11249 -19540274.87847  20699488.342    20699494.568
       244.000         209.000
  21721708.457   -14997018.18349 -11264161.19747  21721707.925    21721714.254
       233.000         190.000
  22894631.975    13353481.06449  10416813.45346  22894631.377    22894637.248
       222.000         169.000
  21612668.955   -18731966.36749 -14249165.78647  21612668.371    21612673.873
       239.000         200.000
  21233196.410   -10692083.23549  -8314284.00047  21233196.354    21233201.925
       241.000         207.000
  24533856.766   -10480917.98849  -7894045.29645  24533856.155    24533862.622
       208.000         141.000
 99  1  2  2 34 30.0000000  0  7G 4G24G 8G 7G 5G 9G16
  20691354.881   -10428440.52749  -8074971.55747  20691355.003    20691360.004
       246.000         212.000
  20689975.081   -25202184.48249 -19579230.73647  20689974.998    20689981.268
       244.000         209.000
  21712834.880   -15043648.69649 -11300496.63547  21712834.697    21712839.191
       233.000         189.000
  22907242.684    13419749.87449  10468451.47246  22907241.427    22907247.931
       222.000         170.000
  21599587.304   -18800710.71449 -14302732.80247  21599587.017    21599591.995
       239.000         200.000
  21238823.300   -10662513.73549  -8291242.84047  21238823.399    21238828.284
       241.000         207.000
  24533439.102   -10483113.65249  -7895756.17545  24533439.563    24533445.206
       210.000         141.000
 99  1  2  2 35  0.0000000  0  7G 4G24G 8G 7G 5G 9G16
  20698309.914   -10391891.16649  -8046491.53347  20698310.458    20698315.284
       247.000         212.000
  20680556.440   -25251679.69749 -19617798.41847  20680556.449    20680562.415
       244.000         209.000
  21704067.405   -15089721.88649 -11336397.81647  21704067.027    21704071.835
       232.000         188.000
  22919864.554    13486078.63949  10520136.22946  22919864.248    22919870.555
       220.000         169.000
  21586544.405   -18869251.43649 -14356141.14847  21586544.126    21586549.077
       239.000         200.000
  21244558.521   -10632374.80449  -8267757.96547  21244558.818    21244563.747
       241.000         206.000
  24533119.867   -10484791.21249  -7897063.32945  24533118.066    24533125.668
       206.000         142.000
 99  1  2  2 35 30.0000000  0  7G 4G24G 8G 7G 5G 9G16
  20705357.768   -10354854.65149  -8017631.90147  20705358.009    20705362.909
       246.000         212.000
  20671227.055   -25300706.02049 -19656000.72847  20671227.147    20671232.946
       245.000         209.000
  21695399.917   -15135269.61649 -11371889.53047  21695399.637    21695405.342
       234.000         189.000
  22932490.634    13552430.08349  10571838.64646  22932490.517    22932496.422
       221.000         169.000
  21573534.053   -18937621.41349 -14409416.44247  21573533.793    21573538.911
       239.000         200.000
  21250394.290   -10601707.46849  -8243861.34447  21250393.828    21250399.308
       240.000         206.000
  24532892.178   -10485988.48849  -7897996.24445  24532893.851    24532897.848
       211.000         141.000
 99  1  2  2 36  0.0000000  0  7G 4G24G 8G 7G 5G 9G16
  20712495.549   -10317345.36349  -7988403.87447  20712496.037    20712500.823
       247.000         212.000
  20661986.833   -25349263.83449 -19693837.96647  20661986.914    20661992.662
       244.000         209.000
  21686831.593   -15180296.79449 -11406975.62647  21686830.939    21686836.214
       234.000         190.000
  22945115.328    13618772.76849  10623534.25046  22945115.347    22945121.090
       222.000         169.000
  21560553.295   -19005835.49749 -14462570.25847  21560552.870    21560558.401
       239.000         200.000
  21256325.988   -10570536.19449  -8219572.04047  21256325.762    21256331.653
       240.000         206.000
  24532755.981   -10486704.77649  -7898554.32545  24532752.499    24532762.613
       199.000         139.000
 99  1  2  2 36 30.0000000  0  7G 4G24G 8G 7G 5G 9G16
  20719721.324   -10279373.82249  -7958815.65647  20719721.815    20719726.506
       247.000         212.000
  20652837.034   -25397346.55249 -19731305.00047  20652836.919    20652842.874
       244.000         209.000
  21678361.271   -15224808.30549 -11441659.91247  21678360.993    21678365.809
       234.000         190.000
  22957735.845    13685093.33949  10675212.60646  22957735.231    22957741.366
       219.000         169.000
  21547599.006   -19073910.80649 -14515615.94447  21547598.508    21547603.778
       238.000         200.000
  21262347.212   -10538894.70849  -8194916.34347  21262347.123    21262352.253
       240.000         207.000
  24532706.394   -10486963.32049  -7898755.78345  24532707.380    24532710.474
       208.000         140.000
 99  1  2  2 37  0.0000000  0  7G 4G24G 8G 7G 5G 9G16
  20727043.881   -10240893.84549  -7928831.24847  20727044.066    20727049.176
       247.000         212.000
  20643784.990   -25444915.24549 -19768371.50147  20643784.985    20643790.764
       245.000         209.000
  21669997.181   -15268761.88549 -11475909.44147  21669997.113    21670002.330
       234.000         191.000
  22970357.333    13751421.30949  10726896.74646  22970356.703    22970363.378
       221.000         168.000
  21534678.565   -19141807.86149 -14568522.72147  21534677.993    21534683.325
       238.000         200.000
  21268462.227   -10506759.98849  -8169876.30247  21268462.470    21268467.745
       241.000         206.000
  24532745.350   -10486756.71749  -7898594.77345  24532745.484    24532752.711
       209.000         141.000
 99  1  2  2 37 30.0000000  0  7G 4G24G 8G 7G 5G 9G16
  20734471.868   -10201859.72649  -7898415.04247  20734472.294    20734476.891
       247.000         212.000
  20634836.393   -25491940.60749 -19805014.62147  20634836.240    20634842.166
       244.000         210.000
  21661749.845   -15312101.96749 -11509680.91147  21661749.673    21661755.443
       234.000         192.000
  22982984.787    13817779.30749  10778604.25546  22982984.051    22982990.463
       221.000         168.000
  21521802.078   -19209474.17049 -14621249.70047  21521801.907    21521807.043
       239.000         201.000
  21274677.552   -10474098.68149  -8144425.94347  21274677.617    21274682.149
       240.000         206.000
  24532884.090   -10486030.34549  -7898028.72845  24532882.159    24532889.154
       202.000         141.000
 99  1  2  2 38  0.0000000  0  7G 4G24G 8G 7G 5G 9G16
  20742004.252   -10162276.53949  -7867570.99647  20742004.489    20742009.333
       246.000         212.000
  20625987.822   -25538439.72849 -19841247.68747  20625987.776    20625993.475
       245.000         210.000
  21653621.354   -15354817.19849 -11542965.50047  21653620.950    21653626.146
       233.000         191.000
  22995621.098    13884182.70749  10830347.17446  22995620.903    22995627.554
       220.000         167.000
  21508966.036   -19276927.76849 -14673810.93047  21508965.693    21508971.013
       239.000         201.000
  21280991.432   -10440918.71749  -8118571.43147  21280991.516    21280996.767
       241.000         206.000
  24533120.826   -10484783.85949  -7897057.41545  24533122.473    24533126.215
       209.000         142.000
 99  1  2  2 38 30.0000000  0  7G 4G24G 8G 7G 5G 9G16
  20749638.614   -10122157.55149  -7836309.43947  20749638.824    20749643.644
       246.000         212.000
  20617237.304   -25584423.94149 -19877079.52447  20617237.344    20617243.054
       245.000         210.000
  21645609.307   -15396920.36049 -11575773.15147  21645609.147    21645614.874
       233.000         191.000
  23008267.373    13950639.24949  10882131.48646  23008266.569    23008271.730
       219.000         167.000
  21496168.330   -19344180.05249 -14726215.29847  21496168.242    21496173.369
       240.000         201.000
  21287402.444   -10407228.82649  -8092319.57347  21287402.338    21287407.586
       240.000         206.000
  24533453.810   -10483034.16249  -7895693.96045  24533451.465    24533460.936
       203.000         140.000
 99  1  2  2 39  0.0000000  0  7G 4G24G 8G 7G 5G 9G16
  20757371.448   -10081521.17249  -7804644.72147  20757371.791    20757376.408
       246.000         212.000
  20608581.467   -25629910.40749 -19912523.50647  20608581.436    20608587.310
       244.000         210.000
  21637714.792   -15438406.28449 -11608099.82347  21637714.262    21637719.875
       233.000         191.000
  23020920.063    14017130.00849  10933942.47546  23020919.429    23020926.108
       218.000         166.000
  21483408.895   -19411231.45049 -14778463.13347  21483408.985    21483414.026
       240.000         202.000
  21293910.848   -10373026.83449  -8065668.67047  21293910.862    21293916.223
       241.000         206.000
  24533883.128   -10480778.91749  -7893936.59845  24533884.065    24533887.699
       208.000         142.000
 99  1  2  2 39 30.0000000  0  7G 4G24G 8G 7G 5G 9G16
  20765198.038   -10040391.79849  -7772595.85547  20765198.682    20765203.059
       246.000         212.000
  20600015.250   -25674925.97149 -19947600.55147  20600015.136    20600021.031
       245.000         210.000
  21629934.685   -15479290.89049 -11639957.95647  21629934.738    21629939.718
       234.000         191.000
  23033574.843    14083631.42349  10985761.75546  23033574.358    23033579.597
       219.000         166.000
  21470681.202   -19478115.83649 -14830580.81247  21470680.817    21470686.350
       239.000         202.000
  21300512.743   -10338333.77049  -8038635.11847  21300512.442    21300517.662
       240.000         206.000
  24534405.687   -10478031.97949  -7891796.11745  24534404.385    24534412.114
       207.000         141.000
 99  1  2  2 40  0.0000000  0  7G 4G24G 8G 7G 5G 9G16
  20773117.912    -9998772.92849  -7740165.55247  20773118.030    20773123.192
       246.000         211.000
  20591539.758   -25719464.75649 -19982306.08147  20591539.944    20591545.631
       245.000         210.000
  21622262.512   -15519608.92849 -11671374.60447  21622262.029    21622267.599
       233.000         190.000
  23046232.269    14150146.27749  11037591.50046  23046231.926    23046237.499
       219.000         166.000
  21457984.106   -19544839.49349 -14882573.25647  21457984.127    21457988.902
       240.000         203.000
  21307206.216   -10303159.18949  -8011226.35747  21307206.208    21307211.525
       241.000         206.000
  24535018.504   -10474813.12949  -7889287.87745  24535018.600    24535022.550
       204.000         141.000
 99  1  2  2 40 30.0000000  0  7G 4G24G 8G 7G 5G 9G16
  20781135.053    -9956642.09849  -7707336.33347  20781135.559    20781140.304
       246.000         211.000
  20583162.478   -25763487.88649 -20016609.80147  20583162.603    20583168.540
       245.000         211.000
  21614698.293   -15559358.87949 -11702348.58947  21614698.206    21614703.271
       234.000         190.000
  23058892.843    14216678.17149  11089434.53646  23058892.251    23058898.300
       218.000         165.000
  21445326.448   -19611355.97349 -14934404.26547  21445326.080    21445331.286
       240.000         202.000
  21313997.142   -10267472.96049  -7983418.90747  21313996.987    21314002.264
       240.000         206.000
  24535725.492   -10471095.07849  -7886390.66445  24535726.200    24535732.040
       206.000         142.000
 99  1  2  2 41  0.0000000  0  7G 4G24G 8G 7G 5G 9G16
  20789252.428    -9913985.04849  -7674097.06447  20789252.830    20789257.475
       246.000         211.000
  20574885.711   -25806982.29949 -20050501.53447  20574885.693    20574891.505
       243.000         211.000
  21607245.012   -15598526.42649 -11732868.75247  21607244.436    21607250.047
       233.000         190.000
  23071557.488    14283231.50849  11141294.27446  23071556.744    23071562.436
       220.000         164.000
  21432711.870   -19677645.52749 -14986058.44047  21432711.323    21432716.871
       239.000         202.000
  21320889.302   -10231254.30249  -7955196.57847  21320889.216    21320894.619
       241.000         206.000
  24536532.049   -10466858.51549  -7883089.40845  24536530.363    24536537.447
       207.000         143.000
 99  1  2  2 41 30.0000000  0  7G 4G24G 8G 7G 5G 9G16
  20797475.432    -9870773.09449  -7640425.40347  20797475.747    20797480.664
       246.000         211.000
  20566714.371   -25849922.91549 -20083961.74047  20566714.370    20566720.261
       243.000         211.000
  21599904.161   -15637102.39349 -11762927.94347  21599903.868    21599909.264
       233.000         190.000
  23084230.772    14349829.89549  11193189.12646  23084230.290    23084236.805
       219.000         164.000
  21420143.937   -19743690.38349 -15037521.94447  21420143.573    21420148.985
       240.000         202.000
  21327887.564   -10194478.03849  -7926539.75047  21327887.631    21327892.918
       241.000         206.000
  24537441.903   -10462077.18449  -7879363.66745  24537441.613    24537447.543
       210.000         144.000
 99  1  2  2 42  0.0000000  0  7G 4G24G 8G 7G 5G 9G16
  20805801.412    -9827019.43849  -7606331.63447  20805801.913    20805806.628
       245.000         211.000
  20558648.243   -25892310.78349 -20116991.22647  20558648.124    20558654.277
       243.000         211.000
  21592674.878   -15675092.24349 -11792530.40847  21592675.422    21592680.182
       235.000         192.000
  23096910.376    14416461.22049  11245109.64946  23096909.982    23096915.726
       218.000         163.000
  21407622.676   -19809490.49949 -15088794.74047  21407622.411    21407627.670
       240.000         203.000
  21334990.842   -10157150.26849  -7897453.17347  21334990.943    21334996.256
       240.000         206.000
  24538455.872   -10456748.90149  -7875211.73045  24538453.982    24538462.037
       205.000         143.000
 99  1  2  2 42 30.0000000  0  7G 4G24G 8G 7G 5G 9G16
  20814223.756    -9782759.66249  -7571843.48947  20814223.773    20814228.799
       245.000         211.000
  20550681.804   -25934174.82749 -20149612.54547  20550681.769    20550687.895
       244.000         211.000
  21585558.724   -15712488.42649 -11821670.28647  21585558.379    21585563.818
       235.000         192.000
  23109590.080    14483093.05749  11297030.54146  23109590.154    23109595.889
       219.000         164.000
  21395142.372   -19875074.83649 -15139899.39347  21395141.692    21395147.317
       240.000         204.000
  21342194.031   -10119297.65949  -7867957.63647  21342193.847    21342199.220
       241.000         207.000
  24539571.607   -10450886.31849  -7870643.47245  24539572.837    24539577.209
       210.000         144.000
 99  1  2  2 43  0.0000000  0  7G 4G24G 8G 7G 5G 9G16
  20822741.933    -9737995.91249  -7536962.63947  20822742.435    20822747.126
       245.000         210.000
  20542813.347   -25975523.81849 -20181832.52347  20542813.416    20542819.307
       243.000         212.000
  21578557.295   -15749281.39049 -11850340.12647  21578557.416    21578562.440
       235.000         193.000
  23122270.193    14549726.90449  11348953.01246  23122269.216    23122274.846
       218.000         164.000
  21382700.327   -19940458.13449 -15190847.39747  21382699.945    21382705.462
       241.000         204.000
  21349494.176   -10080934.68549  -7838064.41547  21349494.153    21349499.357
       240.000         206.000
  24540786.231   -10444501.42949  -7865668.20045  24540783.669    24540792.715
       205.000         142.000
 99  1  2  2 43 30.0000000  0  7G 4G24G 8G 7G 5G 9G16
  20831354.449    -9692737.01349  -7501695.95647  20831354.963    20831359.531
       246.000         210.000
  20535041.385   -26016366.01449 -20213657.59147  20535041.297    20535047.350
       243.000         212.000
  21571669.104   -15785479.10749 -11878546.13247  21571668.635    21571674.042
       235.000         192.000
  23134950.154    14616361.42749  11400876.02446  23134948.908    23134956.702
       219.000         164.000
  21370297.276   -20005636.72849 -15241635.89247  21370296.931    21370301.931
       242.000         205.000
  21356888.200   -10042078.70949  -7807787.03447  21356888.114    21356893.555
       241.000         206.000
  24542099.166   -10437603.48849  -7860293.14445  24542099.668    24542105.672
       209.000         146.000
 99  1  2  2 44  0.0000000  0  7G 4G24G 8G 7G 5G 9G16
  20840060.655    -9646986.08149  -7466045.86347  20840060.906    20840065.761
       246.000         210.000
  20527365.630   -26056702.09449 -20245088.28847  20527365.471    20527371.315
       243.000         212.000
  21564896.053   -15821071.70849 -11906280.62447  21564895.843    21564901.287
       236.000         192.000
  23147632.809    14683008.67649  11452808.93446  23147631.388    23147637.328
       217.000         163.000
  21357934.765   -20070602.13949 -15292258.27147  21357934.480    21357939.688
       241.000         205.000
  21364374.474   -10002738.17749  -7777132.07047  21364374.501    21364379.658
       240.000         206.000
  24543507.852   -10430198.93549  -7854523.36645  24543507.343    24543513.212
       210.000         144.000
 99  1  2  2 44 30.0000000  0  7G 4G24G 8G 7G 5G 9G16
  20848864.978    -9600719.04649  -7429993.62447  20848865.601    20848869.893
       246.000         210.000
  20519790.844   -26096507.62349 -20276105.56847  20519790.884    20519796.726
       243.000         212.000
  21558239.407   -15856052.16949 -11933538.12847  21558238.772    21558244.002
       234.000         191.000
  23160322.703    14749695.48549  11504772.70446  23160322.352    23160329.258
       218.000         164.000
  21345614.665   -20135344.51349 -15342706.85147  21345614.509    21345619.526
       241.000         205.000
  21371957.741    -9962888.45049  -7746080.33847  21371957.811    21371962.965
       241.000         207.000
  24545014.242   -10422284.03049  -7848355.84345  24545012.961    24545020.913
       208.000         145.000
 99  1  2  2 45  0.0000000  0  7G 4G24G 8G 7G 5G 9G16
  20857767.152    -9553938.29949  -7393541.07947  20857767.338    20857772.271
       246.000         210.000
  20512315.999   -26135788.02649 -20306713.65147  20512315.979    20512321.902
       243.000         212.000
  21551696.594   -15890434.82949 -11960329.81147  21551696.461    21551701.800
       235.000         191.000
  23173021.558    14816427.83849  11556771.91246  23173021.291    23173026.252
       220.000         164.000
  21333337.795   -20199859.77549 -15392978.46647  21333337.708    21333342.766
       242.000         206.000
  21379638.843    -9922523.79649  -7714627.35847  21379638.614    21379644.039
       240.000         206.000
  24546613.618   -10413876.67749  -7841804.67945  24546614.722    24546618.763
       210.000         142.000
 99  1  2  2 45 30.0000000  0  7G 4G24G 8G 7G 5G 9G16
  20866768.756    -9506634.63549  -7356681.07747  20866769.146    20866773.578
       246.000         210.000
  20504942.239   -26174537.01949 -20336907.66347  20504942.224    20504948.130
       243.000         212.000
  21545270.182   -15924205.97749 -11986644.97747  21545270.380    21545275.183
       236.000         192.000
  23185730.768    14883214.47849  11608813.47146  23185730.123    23185736.657
       217.000         164.000
  21321106.806   -20264134.17949 -15443062.40447  21321106.415    21321111.861
       241.000         206.000
  21387420.703    -9881629.89949  -7682761.99247  21387420.627    21387426.287
       240.000         206.000
  24548311.147   -10404956.09049  -7834853.50345  24548308.550    24548317.127
       205.000         144.000
 99  1  2  2 46  0.0000000  0  7G 4G24G 8G 7G 5G 9G16
  20875862.575    -9458846.14849  -7319443.28147  20875862.781    20875867.551
       246.000         210.000
  20497665.729   -26212775.28949 -20366703.69647  20497665.721    20497671.802
       243.000         212.000
  21538953.012   -15957403.47349 -12012513.14947  21538952.673    21538957.519
       236.000         193.000
  23198444.125    14950024.48749  11660873.19546  23198444.771    23198449.031
       219.000         164.000
  21308913.778   -20328208.59049 -15492990.49247  21308913.316    21308918.806
       241.000         205.000
  21395297.585    -9840236.54649  -7650507.42947  21395297.704    21395302.727
       241.000         206.000
  24550101.369   -10395548.87549  -7827523.21645  24550102.867    24550106.534
       211.000         148.000
 99  1  2  2 46 30.0000000  0  7G 4G24G 8G 7G 5G 9G16
  20885050.530    -9410562.80649  -7281819.88847  20885050.550    20885055.620
       245.000         210.000
  20490489.471   -26250486.85249 -20396089.31047  20490489.649    20490495.284
       243.000         212.000
  21532744.816   -15990027.83649 -12037934.71047  21532744.631    21532749.862
       236.000         194.000
  23211163.437    15016863.12249  11712955.25346  23211162.836    23211169.076
       218.000         164.000
  21296763.710   -20392057.32549 -15542742.73547  21296763.597    21296768.756
       242.000         206.000
  21403272.324    -9798329.18749  -7617852.34247  21403272.213    21403277.410
       241.000         206.000
  24551985.908   -10385645.66949  -7819806.37745  24551984.185    24551990.829
       206.000         144.000
 99  1  2  2 47  0.0000000  0  7G 4G24G 8G 7G 5G 9G16
  20894335.869    -9361768.03549  -7243797.98147  20894336.082    20894340.888
       245.000         210.000
  20483416.155   -26287657.65049 -20425053.55047  20483416.136    20483422.167
       243.000         212.000
  21526652.004   -16022045.65249 -12062883.64147  21526651.859    21526657.257
       235.000         195.000
  23223891.279    15083748.04449  11765073.35546  23223890.645    23223896.920
       218.000         164.000
  21284664.785   -20455637.83249 -15592285.97447  21284664.453    21284669.717
       242.000         206.000
  21411342.741    -9755918.72549  -7584805.23147  21411342.626    21411347.951
       241.000         206.000
  24553971.532   -10375211.30249  -7811675.67445  24553971.539    24553977.329
       209.000         146.000
 99  1  2  2 47 30.0000000  0  7G 4G24G 8G 7G 5G 9G16
  20903721.098    -9312448.12149  -7205366.87047  20903721.625    20903726.035
       245.000         210.000
  20476449.711   -26324266.44949 -20453579.87347  20476449.739    20476455.705
       244.000         212.000
  21520674.940   -16053455.12849 -12087358.55347  21520674.267    21520680.051
       235.000         194.000
  23236629.319    15150688.40549  11817234.69145  23236628.227    23236634.825
       217.000         162.000
  21272618.380   -20518942.12249 -15641613.97347  21272618.373    21272623.388
       242.000         206.000
  21419507.399    -9713013.27149  -7551372.41047  21419507.204    21419512.371
       240.000         206.000
  24556063.601   -10364216.53649  -7803108.31445  24556063.761    24556069.413
       211.000         146.000
 99  1  2  2 48  0.0000000  0  7G 4G24G 8G 7G 5G 9G16
  20913206.041    -9262604.74849  -7166527.87247  20913206.129    20913211.135
       245.000         210.000
  20469592.288   -26360302.10849 -20481659.59347  20469592.376    20469598.169
       243.000         212.000
  21514815.325   -16084247.08849 -12111352.28447  21514814.704    21514819.919
       235.000         193.000
  23249379.704    15217692.14049  11869445.37946  23249379.839    23249385.788
       218.000         163.000
  21260625.883   -20581963.07749 -15690721.20147  21260625.805    21260630.893
       243.000         207.000
  21427766.559    -9669611.19249  -7517552.60847  21427766.276    21427771.375
       240.000         205.000
  24558261.871   -10352664.55149  -7794106.73145  24558259.021    24558268.135
       205.000         147.000
 99  1  2  2 48 30.0000000  0  7G 4G24G 8G 7G 5G 9G16
  20922791.068    -9212234.69649  -7127278.47147  20922791.693    20922796.116
       245.000         210.000
  20462841.690   -26395776.53049 -20509301.98247  20462841.500    20462847.452
       243.000         212.000
  21509078.223   -16114395.92249 -12134844.86947  21509077.456    21509083.054
       235.000         193.000
  23262140.930    15284752.83849  11921700.47145  23262140.235    23262146.061
       216.000         162.000
  21248687.692   -20644698.83849 -15739606.19547  21248687.410    21248692.681
       242.000         207.000
  21436119.658    -9625715.00049  -7483347.79447  21436119.423    21436124.739
       240.000         205.000
  24560566.727   -10340551.71849  -7784668.14245  24560568.832    24560572.033
       213.000         148.000
 99  1  2  2 49  0.0000000  0  7G 4G24G 8G 7G 5G 9G16
  20932472.292    -9161359.48649  -7087635.44147  20932472.681    20932477.251
       245.000         210.000
  20456195.055   -26430704.52849 -20536518.59047  20456195.221    20456200.907
       244.000         212.000
  21503465.021   -16143893.47649 -12157829.96447  21503464.831    21503469.560
       236.000         193.000
  23274910.882    15351860.16149  11973991.89045  23274910.615    23274916.373
       216.000         162.000
  21236798.750   -20707175.41249 -15788289.22447  21236798.660    21236803.528
       243.000         208.000
  21444565.509    -9581331.19849  -7448763.01047  21444565.296    21444570.952
       239.000         204.000
  24562980.914   -10327866.74449  -7774783.70545  24562979.523    24562987.501
       210.000         148.000
 99  1  2  2 49 30.0000000  0  8G 4G24G 8G 7G 5G10G 9G16
  20942239.212    -9110034.07749  -7047641.60947  20942239.619    20942244.324
       245.000         210.000
  20449642.423   -26465138.97749 -20563350.61247  20449642.417    20449648.428
       243.000         212.000
  21497967.393   -16172784.00649 -12180342.06747  21497966.997    21497971.658
       235.000         192.000
  23287680.555    15418963.93249  12026280.51645  23287680.994    23287685.278
       219.000         162.000
  21224949.598   -20769443.17349 -15836809.54447  21224948.914    21224954.482
       242.000         208.000
  24612292.711    -4829339.66549  -3395944.72545  24612291.515    24612299.614
       208.000         134.000
  21453102.574    -9536468.71349  -7413805.23147  21453102.606    21453107.711
       240.000         205.000
  24565494.418   -10314658.78749  -7764491.75545  24565493.613    24565499.760
       214.000         150.000
 99  1  2  2 50  0.0000000  0  8G 4G24G 8G 7G 5G10G 9G16
  20952073.462    -9058354.74949  -7007371.99347  20952073.891    20952078.557
       245.000         210.000
  20443165.855   -26499173.42049 -20589870.94547  20443166.061    20443171.812
       244.000         212.000
  21492573.269   -16201130.15249 -12202429.95647  21492572.742    21492577.818
       234.000         192.000
  23300432.695    15485976.04349  12078497.75146  23300431.797    23300437.719
       216.000         163.000
  21213125.399   -20831578.91849 -15885226.98947  21213125.099    21213130.203
       242.000         207.000
  24594584.517    -4922398.56949  -3468458.14345  24594584.154    24594590.400
       208.000         138.000
  21461718.448    -9491192.01549  -7378524.69647  21461718.521    21461723.332
       240.000         204.000
  24568088.458   -10301024.11049  -7753867.34145  24568088.706    24568094.922
       212.000         148.000
 99  1  2  2 50 30.0000000  0  8G 4G24G 8G 7G 5G10G 9G16
  20961991.100    -9006237.29449  -6966760.98647  20961991.265    20961996.005
       245.000         209.000
  20436783.087   -26532715.39049 -20616007.52647  20436782.970    20436788.951
       243.000         212.000
  21487298.428   -16228849.18849 -12224029.19747  21487297.713    21487302.869
       234.000         192.000
  23313184.554    15552989.11349  12130715.72145  23313183.679    23313189.838
       217.000         162.000
  21201345.764   -20893481.71049 -15933462.92147  21201345.474    21201350.683
       244.000         208.000
  24576857.728    -5015552.50449  -3541045.55145  24576857.905    24576864.410
       209.000         143.000
  21470429.218    -9445416.65749  -7342855.58447  21470429.231    21470434.424
       240.000         204.000
  24570783.141   -10286865.34349  -7742834.45745  24570781.592    24570788.221
       211.000         148.000
 99  1  2  2 51  0.0000000  0  8G 4G24G 8G 7G 5G10G 9G16
  20971988.319    -8953701.61949  -6925824.08747  20971988.894    20971993.334
       245.000         209.000
  20430494.399   -26565762.31549 -20641758.36547  20430494.343    20430500.353
       244.000         212.000
  21482136.794   -16255973.52749 -12245165.04147  21482136.576    21482141.785
       234.000         193.000
  23325935.164    15619993.08649  12182926.60945  23325935.261    23325940.471
       218.000         162.000
  21189609.735   -20955155.60349 -15981520.48347  21189609.469    21189614.505
       243.000         208.000
  24559113.542    -5108799.64149  -3613705.59145  24559113.310    24559119.761
       208.000         144.000
  21479231.900    -9399158.51249  -7306810.27747  21479231.917    21479237.164
       239.000         204.000
  24573571.772   -10272209.39549  -7731414.23845  24573573.499    24573578.102
       216.000         148.000
 99  1  2  2 51 30.0000000  0  8G 4G24G 8G 7G 5G10G 9G16
  20982066.534    -8900740.18549  -6884555.43247  20982066.807    20982071.556
       245.000         209.000
  20424301.203   -26598307.90649 -20667118.54747  20424301.171    20424307.099
       243.000         212.000
  21477085.042   -16282520.66049 -12265851.09947  21477084.774    21477090.304
       235.000         193.000
  23338682.642    15686982.33949  12235126.03045  23338681.987    23338687.795
       213.000         160.000
  21177916.361   -21016604.64149 -16029402.83247  21177915.884    21177921.170
       243.000         208.000
  24541351.176    -5202142.70149  -3686440.38645  24541350.217    24541356.824
       209.000         140.000
  21488121.503    -9352443.49949  -7270408.96947  21488121.213    21488126.617
       239.000         204.000
  24576449.994   -10257084.76049  -7719628.76345  24576448.329    24576456.615
       210.000         148.000
 99  1  2  2 52  0.0000000  0  8G 4G24G 8G 7G 5G10G 9G16
  20992231.931    -8847320.31549  -6842929.55447  20992231.870    20992236.928
       244.000         208.000
  20418212.499   -26630304.31649 -20692050.80647  20418212.416    20418218.211
       243.000         212.000
  21472146.528   -16308473.08349 -12286073.75747  21472146.292    21472151.309
       235.000         193.000
  23351431.279    15753979.20049  12287331.40745  23351430.511    23351437.035
       214.000         160.000
  21166270.175   -21077805.44649 -16077091.75747  21166269.666    21166275.094
       243.000         208.000
  24523578.604    -5295539.51349  -3759217.10345  24523578.430    24523583.864
       208.000         140.000
  21497097.860    -9305271.97149  -7233651.94447  21497097.689    21497102.928
       239.000         204.000
  24579422.930   -10241461.67149  -7707454.90245  24579423.199    24579428.157
       214.000         147.000
 99  1  2  2 52 30.0000000  0  8G 4G24G 8G 7G 5G10G 9G16
  21002492.814    -8793398.89849  -6800912.86147  21002493.286    21002497.861
       244.000         209.000
  20412234.943   -26661716.40249 -20716527.73948  20412234.944    20412240.779
       243.000         213.000
  21467323.938   -16333815.80949 -12305821.33347  21467323.831    21467328.658
       235.000         193.000
  23364186.269    15821006.21149  12339560.22145  23364186.560    23364192.359
       217.000         160.000
  21154677.543   -21138725.10149 -16124561.60447  21154677.382    21154682.323
       243.000         208.000
  24505799.871    -5388967.07049  -3832017.76945  24505798.699    24505805.215
       210.000         142.000
  21506163.810    -9257630.00249  -7196528.32747  21506163.473    21506169.029
       239.000         203.000
  24582496.844   -10225308.69749  -7694868.16145  24582496.522    24582502.979
       212.000         146.000
 99  1  2  2 53  0.0000000  0  8G 4G24G 8G 7G 5G10G 9G16
  21012857.531    -8738931.69949  -6758470.88347  21012857.801    21012862.617
       244.000         208.000
  20406373.486   -26692518.23749 -20740529.15048  20406373.552    20406379.667
       244.000         213.000
  21462622.523   -16358521.98849 -12325072.89047  21462622.246    21462627.935
       234.000         193.000
  23376950.791    15888082.42649  12391827.40645  23376949.535    23376955.966
       215.000         162.000
  21143143.219   -21199338.82849 -16171793.06947  21143143.047    21143147.896
       244.000         209.000
  24488018.385    -5482409.11349  -3904829.72645  24488016.659    24488024.693
       212.000         144.000
  21515325.649    -9209484.20549  -7159012.13347  21515325.880    21515330.973
       239.000         203.000
  24585675.150   -10208605.65849  -7681852.76745  24585674.891    24585679.690
       213.000         147.000
 99  1  2  2 53 30.0000000  0  8G 4G24G 8G 7G 5G10G 9G16
  21023329.423    -8683901.62649  -6715590.29947  21023329.942    21023334.381
       245.000         208.000
  20400627.639   -26722712.59549 -20764057.20948  20400627.819    20400633.427
       244.000         213.000
  21458044.925   -16382577.05649 -12343817.09747  21458044.445    21458049.594
       233.000         192.000
  23389725.560    15955215.45549  12444138.85445  23389725.430    23389730.750
       215.000         161.000
  21131669.387   -21259634.25549 -16218776.49847  21131668.970    21131673.908
       245.000         209.000
  24470234.283    -5575864.54649  -3977652.13045  24470232.700    24470240.535
       205.000         142.000
  21524587.502    -9160813.00749  -7121086.52647  21524587.248    21524592.525
       238.000         203.000
  24588962.367   -10191331.57649  -7668392.42145  24588961.876    24588967.494
       211.000         147.000
 99  1  2  2 54  0.0000000  0  8G 4G24G 8G 7G 5G10G 9G16
  21033904.573    -8628329.08349  -6672287.00947  21033905.061    21033909.456
       245.000         208.000
  20394993.212   -26752321.88049 -20787129.36448  20394993.190    20394999.071
       244.000         213.000
  21453591.406   -16405979.96949 -12362053.12147  21453590.848    21453596.443
       233.000         192.000
  23402509.233    16022394.01349  12496485.78645  23402508.041    23402515.093
       214.000         160.000
  21120257.161   -21319605.93949 -16265507.66247  21120256.800    21120261.866
       244.000         209.000
  24452444.246    -5669349.76649  -4050497.66345  24452443.466    24452450.204
       207.000         141.000
  21533950.683    -9111608.50549  -7082745.36647  21533950.816    21533955.721
       240.000         202.000
  24592358.574   -10173485.10949  -7654486.05045  24592357.325    24592364.362
       209.000         145.000
 99  1  2  2 54 30.0000000  0  8G 4G24G 8G 7G 5G10G 9G16
  21044575.146    -8572254.93049  -6628592.85547  21044575.514    21044580.238
       244.000         207.000
  20389461.691   -26781390.40649 -20809780.14648  20389461.869    20389467.676
       244.000         213.000
  21449259.973   -16428741.73549 -12379789.54547  21449259.836    21449265.196
       234.000         192.000
  23415299.520    16089608.15349  12548860.43745  23415299.166    23415305.249
       215.000         159.000
  21108902.041   -21379277.25249 -16312004.76747  21108901.771    21108906.885
       245.000         210.000
  24434642.650    -5762897.16649  -4123391.68645  24434641.969    24434648.951
       214.000         146.000
  21543410.174    -9061898.58849  -7044010.36747  21543410.407    21543415.703
       239.000         202.000
  24595857.279   -10155097.58649  -7640158.11845  24595858.691    24595863.320
       216.000         146.000
 99  1  2  2 55  0.0000000  0  8G 4G24G 8G 7G 5G10G 9G16
  21055334.356    -8515715.14649  -6584535.87147  21055334.375    21055339.268
       244.000         207.000
  20384028.999   -26809939.54449 -20832026.21248  20384028.940    20384034.492
       244.000         213.000
  21445048.391   -16450873.97749 -12397035.44547  21445047.722    21445052.969
       235.000         193.000
  23428096.575    16156857.29849  12601262.38545  23428097.066    23428102.662
       216.000         159.000
  21097598.063   -21438680.21149 -16358292.77547  21097597.587    21097602.651
       245.000         210.000
  24416825.847    -5856526.41349  -4196349.53945  24416825.304    24416831.502
       208.000         147.000
  21552963.014    -9011698.45449  -7004893.39447  21552963.564    21552968.132
       239.000         203.000
  24599455.632   -10136189.26249  -7625424.32545  24599454.492    24599461.005
       209.000         146.000
 99  1  2  2 55 30.0000000  0  8G 4G24G 8G 7G 5G10G 9G16
  21066172.945    -8458757.30449  -6540153.13747  21066173.312    21066178.001
       244.000         207.000
  20378690.185   -26837995.05049 -20853887.63048  20378690.176    20378696.119
       244.000         213.000
  21440953.932   -16472390.30749 -12413801.40947  21440953.457    21440958.921
       235.000         193.000
  23440898.986    16224133.38749  12653685.30745  23440898.983    23440904.512
       216.000         160.000
  21086338.677   -21497848.54349 -16404397.95247  21086338.102    21086343.132
       245.000         210.000
  24398989.456    -5950256.45749  -4269385.89645  24398987.442    24398994.845
       204.000         144.000
  21562603.093    -8961039.82949  -6965419.14747  21562603.031    21562608.361
       238.000         202.000
  24603149.207   -10116779.99049  -7610300.18045  24603149.494    24603153.972
       211.000         146.000
 99  1  2  2 56  0.0000000  0  8G 4G24G 8G 7G 5G10G 9G16
  21077089.314    -8401391.44249  -6495452.45047  21077089.385    21077094.122
       243.000         206.000
  20373446.949   -26865548.38349 -20875357.74548  20373447.076    20373452.736
       244.000         213.000
  21436977.683   -16493285.66749 -12430083.50147  21436977.759    21436982.547
       235.000         194.000
  23453709.552    16291453.21149  12706142.31945  23453708.635    23453714.587
       215.000         160.000
  21075122.712   -21556788.72949 -16450325.34947  21075122.057    21075127.476
       245.000         210.000
  24381134.230    -6044082.61449  -4342497.10045  24381133.632    24381141.342
       209.000         145.000
  21572326.360    -8909942.95549  -6925603.41447  21572326.529    21572331.936
       239.000         202.000
  24606936.523   -10096876.90949  -7594791.27545  24606935.753    24606941.223
       212.000         145.000
 99  1  2  2 56 30.0000000  0  7G 4G24G 8G 7G 5G10G 9
  21088105.131    -8343502.50249  -6450344.17847  21088105.708    21088110.079
       244.000         206.000
  20368321.523   -26892482.73349 -20896345.53548  20368321.434    20368327.219
       244.000         213.000
  21433137.232   -16513467.06049 -12445809.25547  21433136.698    21433142.543
       234.000         194.000
  23466548.258    16358921.47949  12758714.99045  23466548.147    23466553.450
       216.000         160.000
  21063969.681   -21615398.25749 -16495995.09747  21063969.477    21063974.299
       245.000         210.000
  24363282.272    -6137895.94149  -4415598.38945  24363282.940    24363289.070
       211.000         146.000
  21582152.588    -8858306.13149  -6885366.94347  21582152.287    21582157.564
       238.000         202.000
 99  1  2  2 57  0.0000000  0  7G 4G24G 8G 7G 5G10G 9
  21099191.494    -8285243.40949  -6404947.47347  21099191.734    21099196.807
       243.000         206.000
  20363284.736   -26918951.06149 -20916970.18748  20363284.621    20363290.411
       244.000         213.000
  21429397.676   -16533118.31649 -12461121.91447  21429397.657    21429402.715
       235.000         195.000
  23479380.090    16426353.08949  12811259.08845  23479379.804    23479385.836
       213.000         160.000
  21052849.175   -21673836.54249 -16541531.40447  21052848.826    21052853.870
       245.000         211.000
  24345401.804    -6231859.51549  -4488816.73045  24345401.130    24345408.421
       212.000         148.000
  21592050.428    -8806292.33049  -6844836.71447  21592050.564    21592055.787
       238.000         202.000
 99  1  2  2 57 30.0000000  0  7G 4G24G 8G 7G 5G10G 9
  21110360.113    -8226551.92849  -6359213.84747  21110360.262    21110365.238
       243.000         206.000
  20358347.326   -26944897.49549 -20937188.17348  20358347.160    20358352.978
       244.000         214.000
  21425770.544   -16552179.38149 -12475974.67647  21425770.378    21425775.726
       235.000         194.000
  23492213.152    16493792.37049  12863809.18345  23492213.499    23492218.684
       217.000         160.000
  21041777.680   -21732017.33149 -16586867.07147  21041777.251    21041782.489
       245.000         211.000
  24327508.473    -6325889.32049  -4562086.65345  24327507.897    24327514.939
       210.000         150.000
  21602029.946    -8753849.85749  -6803972.46247  21602029.936    21602035.116
       238.000         201.000
 99  1  2  2 58  0.0000000  0  7G 4G24G 8G 7G 5G10G 9
  21121614.067    -8167412.16249  -6313130.90347  21121614.351    21121618.789
       244.000         205.000
  20353511.338   -26970310.82949 -20956990.75948  20353511.357    20353517.043
       244.000         214.000
  21422258.812   -16570633.29449 -12490354.34147  21422258.399    21422263.831
       236.000         194.000
  23505046.053    16561228.53949  12916356.83745  23505046.175    23505051.914
       215.000         160.000
  21030760.171   -21789914.70449 -16631981.89247  21030759.728    21030764.911
       246.000         211.000
  24309609.022    -6419951.54249  -4635381.83245  24309608.488    24309614.857
       212.000         149.000
  21612092.777    -8700969.02149  -6762766.62647  21612092.770    21612097.997
       238.000         201.000
 99  1  2  2 58 30.0000000  0  7G 4G24G 8G 7G 5G10G 9
  21132954.999    -8107815.27949  -6266691.76147  21132955.050    21132960.137
       242.000         205.000
  20348778.564   -26995181.64549 -20976370.59848  20348778.474    20348784.309
       244.000         214.000
  21418867.666   -16588454.17249 -12504240.74347  21418867.776    21418872.824
       236.000         195.000
  23517876.567    16628653.62449  12968895.86545  23517875.673    23517882.052
       216.000         159.000
  21019803.021   -21847494.73549 -16676849.43547  21019802.733    21019807.653
       246.000         211.000
  24291709.803    -6514012.69149  -4708676.22645  24291709.320    24291715.344
       213.000         149.000
  21622243.115    -8647628.66549  -6721202.71747  21622242.873    21622248.023
       238.000         201.000
 99  1  2  2 59  0.0000000  0  7G 4G24G 8G 7G 5G10G 9
  21144377.249    -8047790.82149  -6219919.44747  21144377.712    21144382.550
       243.000         205.000
  20344144.439   -27019533.95849 -20995346.41048  20344144.432    20344150.197
       244.000         214.000
  21415597.802   -16605637.46849 -12517630.32247  21415597.490    21415602.965
       236.000         195.000
  23530704.038    16696062.12449  13021421.97745  23530704.093    23530709.286
       216.000         158.000
  21008902.838   -21904775.73849 -16721483.96947  21008902.489    21008907.589
       246.000         212.000
  24273812.262    -6608065.40249  -4781964.03245  24273811.620    24273818.692
       210.000         149.000
  21632476.538    -8593851.80949  -6679298.67947  21632476.288    21632481.970
       238.000         201.000
 99  1  2  2 59 30.0000000  0  7G 4G24G 8G 7G 5G10G 9
  21155875.189    -7987368.90349  -6172837.42447  21155875.712    21155880.095
       243.000         205.000
  20339603.003   -27043399.34849 -21013942.80348  20339602.996    20339608.749
       244.000         214.000
  21412446.958   -16622195.14149 -12530532.39647  21412446.672    21412452.027
       235.000         195.000
  23543525.248    16763438.47749  13073923.03845  23543525.077    23543531.261
       216.000         159.000
  20998053.721   -21961788.15549 -16765909.21247  20998053.360    20998058.355
       245.000         212.000
  24255911.314    -6702134.93049  -4855264.91545  24255911.162    24255917.632
       216.000         152.000
  21642788.658    -8539660.80049  -6637071.93047  21642788.909    21642793.997
       238.000         201.000
 99  1  2  3  0  0.0000000  0  7G 4G24G 8G 7G 5G10G 9
  21167449.315    -7926546.36849  -6125443.23247  21167449.590    21167454.403
       243.000         205.000
  20335158.158   -27066757.41249 -21032143.87748  20335158.243    20335163.714
       245.000         214.000
  21409414.776   -16638129.06149 -12542948.43347  21409414.361    21409419.892
       236.000         195.000
  23556341.885    16830789.64249  13126404.43745  23556341.744    23556347.623
       216.000         159.000
  20987252.530   -22018548.94149 -16810138.38447  20987251.838    20987257.377
       244.000         212.000
  24238003.870    -6796240.22649  -4928593.69845  24238003.899    24238009.490
       216.000         154.000
  21653180.662    -8485050.54649  -6594518.49747  21653181.035    21653185.951
       238.000         201.000
 99  1  2  3  0 30.0000000  0  7G 4G24G 8G 7G 5G10G 9
  21179101.004    -7865316.11249  -6077731.33847  21179101.293    21179106.006
       242.000         205.000
  20330813.502   -27089588.77649 -21049934.53848  20330813.501    20330818.963
       244.000         214.000
  21406500.456   -16653444.01849 -12554882.16147  21406500.318    21406505.817
       236.000         195.000
  23569157.670    16898137.07049  13178882.97245  23569157.662    23569162.592
       217.000         157.000
  20976500.670   -22075050.05049 -16854165.20747  20976500.291    20976505.371
       245.000         212.000
  24220086.753    -6890396.22249  -5001961.96545  24220085.754    24220092.680
       211.000         152.000
  21663654.315    -8430011.62349  -6551631.03747  21663654.344    21663659.765
       238.000         201.000
 99  1  2  3  1  0.0000000  0  7G 4G24G 8G 7G 5G10G 9
  21190835.907    -7803648.50249  -6029678.65147  21190836.189    21190841.149
       244.000         205.000
  20326575.730   -27111858.19049 -21067287.31848  20326575.724    20326581.299
       244.000         214.000
  21403705.486   -16668131.87549 -12566327.23947  21403705.203    21403710.614
       235.000         195.000
  23581981.125    16965524.13949  13231392.35445  23581980.505    23581987.262
       214.000         159.000
  20965800.872   -22131278.43449 -16897979.52447  20965800.458    20965805.459
       245.000         212.000
  24202161.335    -6984593.30249  -5075362.26545  24202160.563    24202167.221
       212.000         150.000
  21674213.462    -8374523.28649  -6508393.38547  21674213.934    21674218.906
       238.000         201.000
 99  1  2  3  1 30.0000000  0  7G 4G24G 8G 7G 5G10G 9
  21202657.331    -7741526.66249  -5981272.01447  21202657.366    21202661.969
       242.000         204.000
  20322449.422   -27133542.14349 -21084183.88848  20322449.711    20322455.195
       244.000         214.000
  21401033.478   -16682173.50449 -12577268.76447  21401033.093    21401038.704
       236.000         195.000
  23594815.966    17032971.99149  13283949.10845  23594814.620    23594821.007
       216.000         158.000
  20955159.344   -22187200.06849 -16941554.81047  20955158.815    20955163.959
       245.000         212.000
  24184230.554    -7078819.10449  -5148784.93145  24184230.396    24184236.475
       213.000         152.000
  21684861.064    -8318569.68049  -6464793.18047  21684861.243    21684866.383
       238.000         200.000
 99  1  2  3  2  0.0000000  0  7G 4G24G 8G 7G 5G10G 9
  21214562.868    -7678962.01549  -5932520.33547  21214562.694    21214567.939
       242.000         204.000
  20318432.409   -27154651.77949 -21100632.93948  20318432.282    20318438.173
       244.000         214.000
  21398484.901   -16695565.83249 -12587704.33847  21398484.557    21398490.157
       236.000         196.000
  23607661.852    17100476.67549  13336550.16445  23607661.296    23607666.916
       215.000         157.000
  20944578.534   -22242802.03649 -16984881.00747  20944577.761    20944583.171
       244.000         212.000
  24166296.163    -7173065.77549  -5222223.84745  24166295.672    24166302.548
       215.000         154.000
  21695595.284    -8262161.14049  -6420838.47847  21695595.552    21695600.415
       238.000         200.000
 99  1  2  3  2 30.0000000  0  7G 4G24G 8G 7G 5G10G 9
  21226549.828    -7615969.67949  -5883435.39847  21226550.555    21226554.950
       242.000         204.000
  20314517.676   -27175223.71749 -21116663.00648  20314517.652    20314523.094
       244.000         214.000
  21396056.993   -16708324.74849 -12597646.34847  21396056.658    21396062.542
       236.000         196.000
  23620515.943    17168025.27749  13389185.42445  23620514.298    23620521.418
       213.000         157.000
  20934059.346   -22298080.00549 -17027954.73247  20934059.212    20934064.360
       245.000         212.000
  24148357.457    -7267334.73849  -5295680.15845  24148356.361    24148362.507
       212.000         151.000
  21706411.519    -8205321.85949  -6376548.13447  21706411.824    21706416.818
       239.000         200.000
 99  1  2  3  3  0.0000000  0  7G 4G24G 8G 7G 5G10G 9
  21238614.600    -7552569.10649  -5834032.34747  21238614.713    21238619.519
       242.000         203.000
  20310697.532   -27195298.83649 -21132305.93948  20310697.277    20310702.999
       244.000         214.000
  21393746.746   -16720464.71949 -12607106.05347  21393746.847    21393752.335
       236.000         196.000
  23633375.269    17235603.09349  13441843.46345  23633373.956    23633380.633
       213.000         157.000
  20923598.013   -22353054.89349 -17070792.30147  20923597.685    20923602.558
       245.000         212.000
  24130413.260    -7361630.79049  -5369157.55945  24130412.343    24130419.356
       213.000         152.000
  21717306.319    -8148069.80449  -6331936.14647  21717306.372    21717311.351
       238.000         200.000
 99  1  2  3  3 30.0000000  0  7G 4G24G 8G 7G 5G10G 9
  21250753.191    -7488780.67749  -5784327.07247  21250753.609    21250758.213
       242.000         203.000
  20306965.620   -27214909.75549 -21147587.15848  20306965.640    20306971.436
       244.000         214.000
  21391549.810   -16732010.01849 -12616102.38447  21391549.339    21391554.830
       235.000         196.000
  23646232.454    17303168.39349  13494491.76145  23646231.964    23646237.793
       215.000         155.000
  20913191.031   -22407743.99449 -17113407.17647  20913190.839    20913195.838
       245.000         212.000
  24112461.410    -7455966.11449  -5442665.55445  24112460.681    24112467.961
       211.000         153.000
  21728275.484    -8090426.33349  -6287019.15547  21728275.388    21728280.596
       237.000         200.000
 99  1  2  3  4  0.0000000  0  7G 4G24G 8G 7G 5G10G 9
  21262965.880    -7424602.55249  -5734318.13947  21262966.255    21262971.109
       241.000         203.000
  20303323.902   -27234047.00849 -21162499.29348  20303323.731    20303329.747
       244.000         214.000
  21389461.009   -16742986.41949 -12624655.42447  21389460.924    21389466.397
       236.000         196.000
  23659086.521    17370716.80649  13547126.87045  23659086.046    23659092.925
       217.000         157.000
  20902837.372   -22462153.13549 -17155803.89347  20902836.967    20902842.207
       244.000         212.000
  24094502.076    -7550342.00849  -5516205.14345  24094500.864    24094508.217
       210.000         152.000
  21739320.440    -8032384.75049  -6241791.95647  21739320.582    21739325.350
       238.000         199.000
 99  1  2  3  4 30.0000000  0  7G 4G24G 8G 7G 5G10G 9
  21275258.824    -7360002.99249  -5683980.81947  21275259.245    21275263.957
       242.000         203.000
  20299780.966   -27252665.22349 -21177006.97948  20299780.904    20299786.665
       244.000         214.000
  21387484.387   -16753373.69149 -12632749.39847  21387484.363    21387489.690
       237.000         196.000
  23671944.236    17438284.13449  13599776.72445  23671944.054    23671949.935
       214.000         158.000
  20892539.852   -22516266.53149 -17197970.15847  20892539.246    20892544.503
       245.000         212.000
  24076540.251    -7644731.18149  -5589755.10945  24076539.009    24076546.899
       210.000         151.000
  21750447.055    -7973913.72849  -6196230.12347  21750447.049    21750452.475
       238.000         200.000
 99  1  2  3  5  0.0000000  0  7G 4G24G 8G 7G 5G10G 9
  21287631.994    -7294981.58149  -5633314.77347  21287632.339    21287636.911
       242.000         203.000
  20296340.833   -27270743.22449 -21191093.71748  20296340.516    20296346.553
       244.000         214.000
  21385622.417   -16763158.60649 -12640374.00747  21385622.562    21385627.740
       237.000         196.000
  23684805.752    17505872.61849  13652443.08445  23684805.540    23684811.551
       214.000         156.000
  20882299.579   -22570079.15149 -17239902.05548  20882299.175    20882304.254
       245.000         213.000
  24058580.077    -7739111.72249  -5663298.35645  24058579.912    24058586.581
       212.000         152.000
  21761658.559    -7914996.98849  -6150320.97347  21761658.357    21761664.204
       238.000         199.000
 99  1  2  3  5 30.0000000  0  8G 4G30G24G 8G 7G 5G10G 9
  21300088.117    -7229523.79749  -5582308.71247  21300088.086    21300093.297
       240.000         202.000
                   -968412.29244                                  23843528.320
       205.000         125.000
  20293011.759   -27288237.36049 -21204725.49848  20293011.740    20293017.735
       243.000         214.000
  21383879.007   -16772320.62949 -12647513.24147  21383879.089    21383884.428
       238.000         197.000
  23697672.393    17573488.37249  13705130.68845  23697672.003    23697678.096
       214.000         156.000
  20872121.891   -22623563.14749 -17281577.88348  20872121.611    20872126.661
       244.000         213.000
  24040625.721    -7833463.50049  -5736819.14445  24040624.682    24040632.282
       212.000         153.000
  21772957.210    -7855622.51349  -6104055.15347  21772957.205    21772962.368
       237.000         199.000
 99  1  2  3  6  0.0000000  0  8G 4G30G24G 8G 7G 5G10G 9
  21312627.049    -7163630.85549  -5530963.55247  21312627.505    21312631.954
       241.000         202.000
  23824912.430    -1366205.85849  -1044619.77445  23824911.987    23824917.913
       204.000         140.000
  20289796.587   -27305132.98049 -21217890.90048  20289796.406    20289802.252
       243.000         214.000
  21382259.769   -16780829.80449 -12654143.77547  21382259.640    21382264.556
       237.000         197.000
  23710548.276    17641151.31749  13757855.03745  23710548.389    23710554.591
       216.000         157.000
  20862008.331   -22676710.18749 -17322991.14347  20862007.842    20862013.278
       244.000         212.000
  24022677.524    -7927781.30449  -5810313.47945  24022676.707    24022683.869
       211.000         154.000
  21784345.274    -7795777.55849  -6057422.72947  21784345.392    21784350.679
       237.000         199.000
 99  1  2  3  6 30.0000000  0  8G 4G30G24G 8G 7G 5G10G 9
  21325244.506    -7097325.81049  -5479297.27947  21325245.110    21325249.784
       241.000         202.000
  23806312.954    -1463952.97049  -1120786.32145  23806312.473    23806317.188
       209.000         144.000
  20286690.210   -27321456.79449 -21230610.74148  20286690.167    20286696.057
       244.000         214.000
  21380766.628   -16788676.35649 -12660257.96847  21380766.823    21380771.697
       238.000         197.000
  23723429.191    17708839.29449  13810598.89845  23723430.081    23723435.014
       215.000         156.000
  20851955.821   -22729536.38149 -17364154.39448  20851955.741    20851960.748
       245.000         213.000
  24004735.205    -8022069.21149  -5883784.55945  24004735.118    24004740.849
       214.000         153.000
  21795817.818    -7735489.10749  -6010444.71547  21795817.549    21795822.924
       238.000         199.000
 99  1  2  3  7  0.0000000  0  8G 4G30G24G 8G 7G 5G10G 9
  21337935.726    -7030633.30449  -5427329.09047  21337935.924    21337940.716
       240.000         201.000
  23787717.011    -1561673.29049  -1196932.00745  23787717.126    23787721.950
       205.000         145.000
  20283688.637   -27337229.96249 -21242901.51248  20283688.645    20283694.380
       243.000         214.000
  21379397.010   -16795873.95749 -12665866.48647  21379396.802    21379401.838
       236.000         196.000
  23736309.370    17776525.23649  13863341.20745  23736308.146    23736315.625
       211.000         156.000
  20841963.144   -22782048.60249 -17405072.99848  20841962.729    20841967.877
       245.000         213.000
  23986796.488    -8116337.57749  -5957240.38445  23986796.256    23986801.868
       212.000         154.000
  21807369.758    -7674783.56049  -5963141.69847  21807369.422    21807374.797
       237.000         199.000
 99  1  2  3  7 30.0000000  0  8G 4G30G24G 8G 7G 5G10G 9
  21350704.917    -6963530.35949  -5375041.07847  21350705.434    21350710.056
       240.000         201.000
  23769131.275    -1659338.72649  -1273034.92545  23769131.613    23769136.353
       209.000         145.000
  20280794.294   -27352439.85049 -21254753.36348  20280794.058    20280799.877
       244.000         214.000
  21378156.210   -16802393.75349 -12670946.83947  21378156.230    21378161.111
       237.000         195.000
  23749193.977    17844236.29149  13916103.05745  23749194.215    23749200.630
       214.000         157.000
  20832032.371   -22834234.57049 -17445737.37548  20832031.954    20832037.114
       244.000         213.000
  23968863.639    -8210576.25049  -6030673.06145  23968862.971    23968869.063
       212.000         156.000
  21819003.886    -7613645.36749  -5915501.56747  21819003.978    21819009.488
       237.000         198.000
 99  1  2  3  8  0.0000000  0  8G 4G30G24G 8G 7G 5G10G 9
  21363546.821    -6896045.69249  -5322455.62147  21363547.224    21363551.554
       240.000         201.000
  23750553.553    -1756964.86949  -1349107.23445  23750554.014    23750559.541
       209.000         146.000
  20277999.130   -27367128.36549 -21266198.94148  20277999.033    20278005.039
       243.000         214.000
  21377039.308   -16808263.22949 -12675520.46347  21377038.904    21377044.427
       237.000         196.000
  23762082.343    17911963.82949  13968877.74545  23762081.843    23762088.161
       214.000         156.000
  20822159.484   -22886116.79349 -17486165.06548  20822159.309    20822164.247
       245.000         213.000
  23950934.074    -8304795.83849  -6104090.86045  23950933.824    23950941.316
       215.000         157.000
  21830714.814    -7552103.59049  -5867546.93947  21830714.981    21830720.086
       237.000         198.000
 99  1  2  3  8 30.0000000  0  8G 4G30G24G 8G 7G 5G10G 9
  21376459.824    -6828188.09349  -5269579.55447  21376460.125    21376464.791
       241.000         200.000
  23731979.977    -1854569.48449  -1425162.76145  23731980.012    23731985.677
       211.000         147.000
  20275298.809   -27381318.69749 -21277256.32648  20275298.623    20275304.441
       244.000         214.000
  21376038.762   -16813521.21349 -12679617.58147  21376038.856    21376044.105
       238.000         197.000
  23774970.114    17979689.03649  14021650.64545  23774969.201    23774974.822
       214.000         155.000
  20812342.926   -22937703.39549 -17526362.40448  20812342.605    20812347.499
       244.000         213.000
  23933008.524    -8398996.52249  -6177493.95645  23933007.644    23933013.719
       215.000         157.000
  21842497.180    -7490187.05049  -5819300.28847  21842496.974    21842502.688
       237.000         198.000
 99  1  2  3  9  0.0000000  0  8G 4G30G24G 8G 7G 5G10G 9
  21389445.950    -6759945.40149  -5216403.42747  21389446.264    21389450.635
       240.000         200.000
  23713414.919    -1952130.12649  -1501184.00645  23713414.974    23713420.363
       211.000         148.000
  20272695.007   -27395001.80249 -21287918.47648  20272694.985    20272700.788
       244.000         214.000
  21375154.909   -16818166.23349 -12683237.08547  21375154.738    21375159.945
       237.000         197.000
  23787860.318    18047427.25249  14074433.65945  23787860.997    23787865.839
       215.000         156.000
  20802586.153   -22988975.16249 -17566314.42048  20802585.859    20802591.114
       245.000         213.000
  23915087.631    -8493171.22949  -6250876.80045  23915087.130    23915093.957
       216.000         157.000
  21854354.265    -7427877.86449  -5770747.68947  21854354.365    21854359.283
       236.000         197.000
 99  1  2  3  9 30.0000000  0  8G 4G30G24G 8G 7G 5G10G 9
  21402501.839    -6691335.99249  -5162941.54347  21402501.656    21402506.664
       241.000         200.000
  23694857.134    -2049650.27149  -1577173.71645  23694858.091    23694862.373
       214.000         150.000
  20270184.113   -27408196.60449 -21298200.12548  20270184.014    20270189.710
       244.000         214.000
  21374383.025   -16822222.24249 -12686397.60247  21374382.743    21374388.184
       237.000         197.000
  23800750.078    18115163.41349  14127215.06345  23800749.194    23800755.902
       212.000         155.000
  20792886.828   -23039945.63649 -17606031.66248  20792886.614    20792891.634
       246.000         213.000
  23897168.985    -8587334.79349  -6324250.95145  23897169.134    23897175.111
       215.000         160.000
  21866283.858    -7365187.27749  -5721897.88547  21866284.186    21866289.340
       237.000         197.000
 99  1  2  3 10  0.0000000  0  8G 4G30G24G 8G 7G 5G10G 9
  21415626.621    -6622364.33649  -5109197.39047  21415627.110    21415631.940
       240.000         200.000
  23676308.199    -2147126.75149  -1653129.41145  23676308.882    23676313.561
       215.000         153.000
  20267769.140   -27420887.33749 -21308088.99448  20267769.155    20267774.763
       244.000         214.000
  21373720.553   -16825703.36149 -12689110.15747  21373720.081    21373725.696
       237.000         197.000
  23813638.108    18182892.40049  14179990.93045  23813638.531    23813644.513
       217.000         154.000
  20783247.635   -23090600.06949 -17645502.63248  20783247.087    20783252.214
       245.000         213.000
  23879255.029    -8681474.32249  -6397606.40545  23879254.226    23879261.487
       215.000         159.000
  21878285.315    -7302119.58949  -5672754.24947  21878285.388    21878290.659
       236.000         198.000
 99  1  2  3 10 30.0000000  0  8G 4G30G24G 8G 7G 5G10G 9
  21428824.192    -6553010.51649  -5055155.44547  21428824.394    21428829.172
       239.000         199.000
  23657768.576    -2244553.25749  -1729046.15245  23657768.787    23657774.552
       216.000         155.000
  20265455.786   -27433044.15949 -21317561.83148  20265455.627    20265461.400
       244.000         214.000
  21373173.794   -16828576.58549 -12691349.03947  21373173.470    21373178.482
       236.000         196.000
  23826526.420    18250618.57349  14232764.52645  23826527.029    23826531.236
       213.000         154.000
  20773671.817   -23140920.86749 -17684713.63648  20773671.476    20773676.632
       245.000         213.000
  23861347.028    -8775580.76749  -6470936.06145  23861346.753    23861353.539
       213.000         158.000
  21890362.027    -7238655.75949  -5623301.91947  21890361.868    21890367.666
       236.000         197.000
 99  1  2  3 11  0.0000000  0  8G 4G30G24G 8G 7G 5G10G 9
  21442097.417    -6483259.38649  -5000803.91447  21442098.154    21442102.749
       239.000         199.000
  23639241.014    -2341916.14949  -1804913.30545  23639241.314    23639246.512
       215.000         156.000
  20263251.347   -27444628.32049 -21326588.43348  20263251.223    20263257.007
       244.000         214.000
  21372750.302   -16830802.18349 -12693083.26947  21372750.013    21372755.807
       237.000         196.000
  23839416.780    18318359.67049  14285549.81045  23839415.886    23839422.808
       207.000         152.000
  20764165.268   -23190878.06549 -17723641.30948  20764164.938    20764170.086
       245.000         213.000
  23843447.065    -8869645.38949  -6544233.11845  23843446.176    23843453.921
       215.000         159.000
  21902519.119    -7174769.88049  -5573520.72847  21902519.201    21902524.452
       236.000         197.000
 99  1  2  3 11 30.0000000  0  8G 4G30G24G 8G 7G 5G10G 9
  21455449.300    -6413094.40949  -4946129.90547  21455449.561    21455454.038
       240.000         199.000
  23620726.914    -2439207.66849  -1880724.84645  23620726.911    23620732.988
       214.000         157.000
  20261159.835   -27455619.14649 -21335152.69948  20261159.571    20261165.391
       244.000         214.000
  21372451.538   -16832372.22949 -12694306.67747  21372450.820    21372456.769
       236.000         196.000
  23852311.689    18386125.53849  14338354.38045  23852311.938    23852318.290
       213.000         152.000
  20754731.210   -23240454.06949 -17762271.95348  20754731.039    20754736.065
       245.000         213.000
  23825557.169    -8963657.87949  -6617489.54545  23825556.540    23825563.355
       216.000         159.000
  21914756.092    -7110464.43949  -5523412.60447  21914756.550    21914761.021
       236.000         197.000
